[[{"header":{"parameterUnit":"m.s-1","parameterCategory":1,"la1":30.6,"la2":29.2853,"lo1":-89.7004,"lo2":-87.6739,"dy":0.0162,"dx":0.0183,"nx":112,"ny":82,"refTime":"2024-07-31T12:00:00:Z","depth":0,"parameterNumber":2,"parameterNumberName":"U-component_of_WINDS"},"data":[0.0,0.0,0.0,0.0,0.0,0.0,0.0,0.0,0.0,0.0,0.0,0.0,0.0,0.0,0.0,0.0,0.0,0.0,0.0,0.0,0.0,0.0,0.0,0.0,0.0,0.0,0.0,0.0,0.0,0.0,0.0,0.0,0.0,0.0,0.0,0.0,0.0,0.0,0.0,0.0,0.0,0.0,0.0,0.0,0.0,0.0,0.0,0.0,0.0,0.0,0.0,0.0,0.0,0.0,0.0,0.0,0.0,0.0,0.0,0.0,0.0,0.0,0.0,0.0,0.0,0.0,0.0,0.0,0.0,0.0,0.0,0.0,0.0,0.0,0.0,0.0,0.0,0.0,0.0,0.0,0.0,0.0,0.0,0.0,0.0,0.0,0.0,0.0,0.0,0.0,0.0,3.3658,3.7958,4.0188,3.9546,3.9123,3.6954,3.2359,0.0,0.0,0.0,0.0,0.0,0.0,0.0,0.0,0.0,0.0,0.0,0.0,0.0,0.0,0.0,0.0,0.0,0.0,0.0,0.0,0.0,0.0,0.0,0.0,0.0,0.0,0.0,0.0,0.0,0.0,0.0,0.0,0.0,0.0,0.0,0.0,0.0,0.0,0.0,0.0,0.0,0.0,0.0,0.0,0.0,0.0,0.0,0.0,0.0,0.0,0.0,0.0,0.0,0.0,0.0,0.0,0.0,0.0,0.0,0.0,0.0,0.0,0.0,0.0,0.0,0.0,0.0,0.0,0.0,0.0,0.0,0.0,0.0,0.0,0.0,0.0,0.0,0.0,0.0,0.0,0.0,0.0,0.0,0.0,0.0,0.0,0.0,0.0,0.0,0.0,0.0,0.0,0.0,0.0,0.0,0.0,0.0,0.0,0.0,0.0,0.0,0.0,0.0,0.0,2.8096,3.547,3.8604,4.0211,4.03,3.8334,3.5907,3.3082,0.0,0.0,0.0,0.0,0.0,0.0,0.0,0.0,0.0,0.0,0.0,0.0,0.0,0.0,0.0,0.0,0.0,0.0,0.0,0.0,0.0,0.0,0.0,0.0,0.0,0.0,0.0,0.0,0.0,0.0,0.0,0.0,0.0,0.0,0.0,0.0,0.0,0.0,0.0,0.0,0.0,0.0,0.0,0.0,0.0,0.0,0.0,0.0,0.0,0.0,0.0,0.0,0.0,0.0,0.0,0.0,0.0,0.0,0.0,0.0,0.0,0.0,0.0,0.0,0.0,0.0,0.0,0.0,0.0,0.0,0.0,0.0,0.0,0.0,0.0,0.0,0.0,0.0,0.0,0.0,0.0,0.0,0.0,0.0,0.0,0.0,0.0,0.0,0.0,0.0,0.0,0.0,0.0,0.0,0.0,0.0,0.0,0.0,0.0,0.0,0.0,0.0,0.0,2.7441,3.0926,3.6594,3.8935,4.0195,4.0473,3.8604,3.6176,3.3278,2.8994,0.0,0.0,0.0,0.0,0.0,0.0,0.0,0.0,0.0,0.0,0.0,0.0,0.0,0.0,0.0,0.0,0.0,0.0,0.0,0.0,0.0,0.0,0.0,0.0,0.0,0.0,0.0,0.0,0.0,0.0,0.0,0.0,0.0,0.0,0.0,0.0,0.0,0.0,0.0,0.0,0.0,0.0,0.0,0.0,0.0,0.0,0.0,0.0,0.0,0.0,0.0,0.0,0.0,0.0,0.0,0.0,0.0,0.0,0.0,0.0,0.0,0.0,0.0,0.0,0.0,0.0,0.0,0.0,0.0,0.0,0.0,0.0,0.0,0.0,0.0,0.0,0.0,0.0,0.0,0.0,0.0,0.0,0.0,0.0,0.0,0.0,0.0,0.0,0.0,0.0,0.0,0.0,0.0,0.0,0.0,0.0,0.0,0.0,0.0,0.0,0.0,0.0,3.0905,3.3717,3.7222,3.9033,4.0043,4.0204,3.8296,3.5792,3.2694,2.7499,0.0,0.0,0.0,0.0,0.0,0.0,0.0,0.0,0.0,0.0,0.0,0.0,0.0,0.0,0.0,0.0,0.0,0.0,0.0,0.0,0.0,0.0,0.0,0.0,0.0,0.0,0.0,0.0,0.0,0.0,0.0,0.0,0.0,0.0,0.0,0.0,0.0,0.0,0.0,0.0,0.0,0.0,0.0,0.0,0.0,0.0,0.0,0.0,0.0,0.0,0.0,0.0,0.0,0.0,0.0,0.0,0.0,0.0,0.0,0.0,0.0,0.0,0.0,0.0,0.0,0.0,0.0,0.0,0.0,0.0,0.0,0.0,0.0,0.0,0.0,0.0,0.0,0.0,0.0,0.0,0.0,0.0,0.0,0.0,0.0,0.0,0.0,0.0,0.0,0.0,0.0,0.0,0.0,0.0,0.0,0.0,0.0,0.0,0.0,0.0,0.0,0.0,3.0979,3.4692,3.7337,3.8814,3.9578,3.94,3.6353,3.3402,3.0935,2.5236,0.0,0.0,0.0,0.0,0.0,0.0,0.0,0.0,0.0,0.0,0.0,0.0,0.0,0.0,0.0,0.0,0.0,0.0,0.0,0.0,0.0,0.0,0.0,0.0,0.0,0.0,0.0,0.0,0.0,0.0,0.0,0.0,0.0,0.0,0.0,0.0,0.0,0.0,0.0,0.0,0.0,0.0,0.0,0.0,0.0,0.0,0.0,0.0,0.0,0.0,0.0,0.0,0.0,0.0,0.0,0.0,0.0,0.0,0.0,0.0,0.0,0.0,0.0,0.0,0.0,0.0,0.0,0.0,0.0,0.0,0.0,0.0,0.0,0.0,0.0,0.0,0.0,0.0,0.0,0.0,0.0,0.0,0.0,0.0,0.0,0.0,0.0,0.0,0.0,0.0,0.0,0.0,0.0,0.0,0.0,0.0,0.0,0.0,0.0,0.0,0.0,0.0,3.001,3.3592,0.0,3.8707,3.952,3.9323,3.7123,3.4288,3.0823,0.0,0.0,0.0,0.0,0.0,0.0,0.0,0.0,0.0,0.0,0.0,0.0,0.0,0.0,0.0,0.0,0.0,0.0,0.0,0.0,0.0,0.0,0.0,0.0,0.0,0.0,0.0,0.0,0.0,0.0,0.0,0.0,0.0,0.0,0.0,0.0,0.0,0.0,0.0,0.0,0.0,0.0,0.0,0.0,0.0,0.0,0.0,0.0,0.0,0.0,0.0,0.0,0.0,0.0,0.0,0.0,0.0,0.0,0.0,0.0,0.0,0.0,0.0,0.0,0.0,0.0,0.0,0.0,0.0,0.0,0.0,0.0,0.0,0.0,0.0,0.0,0.0,0.0,0.0,0.0,0.0,0.0,0.0,0.0,0.0,0.0,0.0,0.0,0.0,0.0,0.0,0.0,0.0,0.0,0.0,0.0,0.0,0.0,0.0,0.0,0.0,0.0,2.6043,2.9861,3.3451,0.0,3.8641,3.9425,3.8939,3.6796,3.3859,3.0016,0.0,0.0,0.0,0.0,0.0,0.0,0.0,0.0,0.0,0.0,0.0,0.0,0.0,0.0,0.0,0.0,0.0,0.0,0.0,0.0,0.0,0.0,0.0,0.0,0.0,0.0,0.0,0.0,0.0,0.0,0.0,0.0,0.0,0.0,0.0,0.0,0.0,0.0,0.0,0.0,0.0,0.0,0.0,0.0,0.0,0.0,0.0,0.0,0.0,0.0,0.0,0.0,0.0,0.0,0.0,0.0,0.0,0.0,0.0,0.0,0.0,0.0,0.0,0.0,0.0,0.0,0.0,0.0,0.0,0.0,0.0,0.0,0.0,0.0,0.0,0.0,0.0,0.0,0.0,0.0,0.0,0.0,0.0,0.0,0.0,0.0,0.0,0.0,0.0,0.0,0.0,0.0,0.0,0.0,0.0,0.0,0.0,0.0,0.0,0.0,0.0,0.0,2.6209,3.0815,3.4673,3.6958,3.8641,3.9157,3.8093,3.4872,3.1527,0.0,0.0,0.0,0.0,0.0,0.0,0.0,0.0,0.0,0.0,0.0,0.0,0.0,0.0,0.0,0.0,0.0,0.0,0.0,0.0,0.0,0.0,0.0,0.0,0.0,0.0,0.0,0.0,0.0,0.0,0.0,0.0,0.0,0.0,0.0,0.0,0.0,0.0,0.0,0.0,0.0,0.0,0.0,0.0,0.0,0.0,0.0,0.0,0.0,0.0,0.0,0.0,0.0,0.0,0.0,0.0,0.0,0.0,0.0,0.0,0.0,0.0,0.0,0.0,0.0,0.0,0.0,0.0,0.0,0.0,0.0,0.0,0.0,0.0,0.0,0.0,0.0,0.0,0.0,0.0,0.0,0.0,0.0,0.0,0.0,0.0,0.0,0.0,0.0,0.0,0.0,0.0,0.0,0.0,0.0,0.0,0.0,0.0,0.0,0.0,0.0,0.0,0.0,2.6961,3.1164,3.4673,3.6958,3.8641,3.9157,3.8093,3.5988,3.2788,2.8226,0.0,0.0,0.0,0.0,0.0,0.0,0.0,0.0,0.0,0.0,0.0,0.0,0.0,0.0,0.0,0.0,0.0,0.0,0.0,0.0,0.0,0.0,0.0,0.0,0.0,0.0,0.0,0.0,0.0,0.0,0.0,0.0,0.0,0.0,0.0,0.0,0.0,0.0,0.0,0.0,0.0,0.0,0.0,0.0,0.0,0.0,0.0,0.0,0.0,0.0,0.0,0.0,0.0,0.0,0.0,0.0,0.0,0.0,0.0,0.0,0.0,0.0,0.0,0.0,0.0,0.0,0.0,0.0,0.0,0.0,0.0,0.0,0.0,0.0,0.0,0.0,0.0,0.0,0.0,0.0,0.0,0.0,0.0,0.0,0.0,0.0,0.0,0.0,0.0,0.0,0.0,0.0,0.0,0.0,0.0,0.0,0.0,0.0,0.0,0.0,0.0,0.0,2.7769,3.1788,3.5147,3.7426,3.8829,3.9157,3.8093,3.6757,3.382,2.8741,0.0,0.0,0.0,0.0,0.0,0.0,0.0,0.0,0.0,0.0,0.0,0.0,0.0,0.0,0.0,0.0,0.0,0.0,0.0,0.0,0.0,0.0,0.0,0.0,0.0,0.0,0.0,0.0,0.0,0.0,0.0,0.0,0.0,0.0,0.0,0.0,0.0,0.0,0.0,0.0,0.0,0.0,0.0,0.0,0.0,0.0,0.0,0.0,0.0,0.0,0.0,0.0,0.0,0.0,0.0,0.0,0.0,0.0,0.0,0.0,0.0,0.0,0.0,0.0,0.0,0.0,0.0,0.0,0.0,0.0,0.0,0.0,0.0,0.0,0.0,0.0,0.0,0.0,0.0,0.0,0.0,0.0,0.0,0.0,0.0,0.0,0.0,0.0,0.0,0.0,0.0,0.0,0.0,0.0,0.0,0.0,0.0,0.0,0.0,0.0,0.0,0.0,2.8617,3.2585,3.5914,3.8158,3.9154,3.9199,3.8093,3.7199,3.4589,2.9625,0.0,0.0,0.0,0.0,0.0,0.0,0.0,0.0,0.0,0.0,0.0,0.0,0.0,0.0,0.0,0.0,0.0,0.0,0.0,0.0,0.0,0.0,0.0,0.0,0.0,0.0,0.0,0.0,0.0,0.0,0.0,0.0,0.0,0.0,0.0,0.0,0.0,0.0,0.0,0.0,0.0,0.0,0.0,0.0,0.0,0.0,0.0,0.0,0.0,0.0,0.0,0.0,0.0,0.0,0.0,0.0,0.0,0.0,0.0,0.0,0.9313,0.9361,0.0,0.0,0.0,0.0,0.0,0.0,0.0,0.0,0.0,0.0,0.0,0.0,0.0,0.0,0.0,0.0,0.0,0.0,0.0,0.0,0.0,0.0,0.0,0.0,0.0,0.0,0.0,0.0,0.0,0.0,0.0,0.0,0.0,0.0,0.0,0.0,0.0,0.0,0.0,0.0,2.9561,3.3231,3.6179,3.8162,3.9366,3.9452,3.8108,3.7199,3.482,3.0417,2.7802,0.0,0.0,0.0,0.0,0.0,0.0,0.0,0.0,0.0,0.0,0.0,0.0,0.0,0.0,0.0,0.0,0.0,0.0,0.0,0.0,0.0,0.0,0.0,0.0,0.0,0.0,0.0,0.0,0.0,0.0,0.0,0.0,0.0,0.0,0.0,0.0,0.0,0.0,0.0,0.0,0.0,0.0,0.0,0.0,0.0,0.0,0.0,0.0,0.0,0.0,0.0,0.0,0.0,0.0,0.0,0.0,0.0,0.0,0.0,1.0568,1.0379,0.0,0.0,0.0,0.0,0.0,0.0,0.0,0.0,0.0,0.0,0.0,0.0,0.0,0.0,0.0,0.0,0.0,0.0,0.0,0.0,0.0,0.0,0.0,0.0,0.0,0.0,0.0,0.0,0.0,0.0,0.0,0.0,0.0,0.0,0.0,0.0,0.0,0.0,0.0,0.0,3.036,3.3942,3.6831,3.8765,3.9654,3.9526,3.8127,3.7584,3.5699,3.1852,2.9629,0.0,0.0,0.0,0.0,0.0,0.0,0.0,0.0,0.0,0.0,0.0,0.0,0.0,0.0,0.0,0.0,0.0,0.0,0.0,0.0,0.0,0.0,0.0,0.0,0.0,0.0,0.0,0.0,0.0,0.0,0.0,0.0,0.0,0.0,0.0,0.0,0.0,0.0,0.0,0.0,0.0,0.0,0.0,0.0,0.0,0.0,0.0,0.0,0.0,0.0,0.0,0.0,0.0,1.2485,1.2766,1.2766,1.3369,1.3586,1.3457,1.2453,1.1943,1.1778,1.1351,0.0,0.0,0.0,0.0,0.0,0.0,0.0,0.0,0.0,0.0,0.0,0.0,0.0,0.0,0.0,0.0,0.0,0.0,0.0,0.0,0.0,0.0,2.1714,2.3594,2.4749,2.4487,2.1054,0.0,0.0,0.0,0.0,0.0,0.0,0.0,0.0,0.0,0.0,0.0,3.1348,3.4866,3.7684,3.9406,3.9943,3.9637,3.8339,3.8084,3.6661,3.3545,3.1775,2.9833,0.0,0.0,0.0,0.0,0.0,0.0,0.0,0.0,0.0,0.0,0.0,0.0,0.0,0.0,0.0,0.0,0.0,0.0,0.0,0.0,0.0,0.0,0.0,0.0,0.0,0.0,0.0,0.0,0.0,0.0,0.0,0.0,0.1386,0.38,0.0,0.0,0.0,0.0,0.0,0.0,0.0,0.0,0.0,0.0,0.0,0.0,0.0,1.0423,1.1247,1.2472,1.3319,1.3748,1.4335,1.4616,1.4616,1.4697,1.5308,1.626,1.6089,0.0,1.3436,1.3129,0.0,0.0,0.0,0.0,0.0,0.0,0.0,0.0,0.0,0.0,0.0,0.0,0.0,0.0,0.0,0.0,0.0,0.0,0.0,0.0,0.0,0.0,2.6651,2.6008,2.7806,2.9174,2.7461,2.5506,2.403,2.3979,2.2573,2.1204,0.0,0.0,0.0,0.0,0.0,0.0,3.321,3.633,3.8539,3.9505,4.012,4.0092,3.92,3.843,3.7199,3.5276,3.3526,3.2102,3.1064,2.8041,0.0,0.0,0.0,0.0,0.0,0.0,0.0,0.0,0.0,0.0,0.0,0.0,0.0,0.0,0.0,0.0,0.0,0.0,0.0,0.0,0.0,0.0,0.0,0.0,0.0,0.0,0.0,0.0,0.0,0.1054,0.1093,0.4004,0.4555,0.4525,0.0,0.0,0.0,0.0,0.0,0.0,0.0,0.0,0.0,0.9276,0.9615,1.0589,1.2385,1.3275,1.4065,1.483,1.5251,1.5451,1.5451,1.5451,1.6169,1.7334,1.7334,1.7186,1.7004,1.6333,1.5748,1.5253,0.0,0.0,0.0,0.0,1.4577,1.3297,1.4246,1.4261,1.4058,1.4452,0.0,0.0,0.0,0.0,0.0,0.0,0.0,2.1378,2.2597,2.537,2.8026,2.8655,3.0136,3.1533,3.1837,3.0678,2.8982,2.7154,2.7075,2.6475,2.3942,2.3761,0.0,0.0,0.0,3.1046,3.4444,3.693,3.8783,3.9785,4.0248,4.0162,3.9373,3.8507,3.7488,3.6257,3.4564,3.3409,3.2915,3.0532,2.8553,0.0,0.0,0.0,0.0,0.0,0.0,0.0,0.0,0.0,0.0,0.0,0.0,0.0,0.0,0.0,0.0,0.0,0.0,0.0,0.0,0.0,0.0,0.0,0.0,0.0,0.0,0.0,0.0,0.3037,0.2531,0.4497,0.505,0.5047,0.0,0.0,0.0,0.0,0.0,0.0,0.748,0.75,0.8495,1.0789,1.0784,1.1688,1.3662,1.4069,1.4652,1.5504,1.5725,1.5832,1.5832,1.6109,1.6936,1.8141,1.8503,1.9322,2.0274,1.8924,1.783,1.7105,1.7944,1.7189,1.579,1.7436,1.65,1.4582,1.5782,1.5689,1.5091,1.5673,1.5617,1.5506,1.6026,0.0,0.0,0.0,0.0,2.2589,2.4225,2.6759,2.9268,3.0677,3.2042,3.3372,3.4675,3.4691,3.3612,3.0762,3.1091,3.0905,2.7975,2.7812,0.0,0.0,0.0,3.3327,3.5807,3.7698,3.9176,4.0005,4.0339,4.0258,3.9662,3.8623,3.7719,3.7065,3.5468,3.4405,3.4132,3.2724,3.1016,2.9078,0.0,0.0,0.0,0.0,0.0,0.0,0.0,0.0,0.0,0.0,0.0,0.0,0.0,0.0,0.0,0.0,0.0,0.0,0.0,0.0,0.0,0.0,0.0,0.0,0.0,0.0,0.0,0.0,0.0,0.5434,0.5577,0.0,0.0,0.0,0.0,0.5755,0.6162,0.663,0.6939,0.9226,1.0926,1.1599,1.3896,1.5279,1.5664,1.5697,1.571,1.5805,1.5818,1.5832,1.5825,1.7037,1.8226,1.9488,2.0666,2.1756,2.2698,1.9782,1.9084,1.9746,1.9307,1.9076,1.8973,1.938,1.8103,1.6222,1.6605,1.7126,1.7717,1.8638,1.9472,2.014,1.9742,1.9088,0.0,0.0,2.24,2.4066,2.5871,2.8975,3.1654,3.1709,3.359,3.5383,3.5521,3.6101,3.6284,3.5513,3.3766,3.2571,3.3019,0.0,3.163,3.3204,3.4488,3.5901,3.756,3.9082,4.0043,4.0101,4.0339,4.0469,4.0431,3.8931,3.7988,3.793,3.6372,3.5307,3.5047,3.417,3.2759,3.0809,2.7535,0.0,0.0,0.0,0.0,0.0,0.0,0.0,0.0,0.0,0.0,0.0,0.0,0.0,0.0,0.0,0.0,0.0,0.0,0.0,0.0,0.0,0.0,0.0,0.0,0.0,0.0,0.0,0.0,0.5782,0.6116,0.0,0.6115,0.6407,0.6634,0.6661,0.6902,0.7531,0.8666,0.883,0.9746,1.1814,1.2942,1.3945,1.4814,1.5895,1.6393,1.6393,1.6393,1.6393,1.6393,1.7732,1.9057,2.0268,2.1349,2.2441,2.3417,2.202,2.1245,2.0929,2.1457,2.0738,1.9531,2.0357,1.9694,1.8394,1.8522,1.8669,1.8927,1.904,1.9825,2.0606,2.0198,2.0372,2.1066,2.2735,2.4113,2.5549,2.7827,3.0393,3.2486,3.3055,3.4382,3.5785,3.6801,3.7192,3.7616,3.8387,3.7411,3.6199,3.5217,3.574,3.6287,3.6208,3.7099,3.8289,3.959,3.9949,4.0158,4.0339,4.0457,4.0489,4.0489,3.895,3.7757,3.7199,3.5426,3.405,3.3259,3.277,3.1856,3.0476,2.8783,2.63,0.0,0.0,0.0,0.0,0.0,0.0,0.0,0.0,0.0,0.0,0.0,0.0,0.0,0.0,0.0,0.0,0.0,0.0,0.0,0.0,0.0,0.0,0.0,0.0,0.0,0.4422,0.5886,0.5544,0.6392,0.6896,0.6729,0.7027,0.7275,0.736,0.7509,0.8058,0.9127,0.8803,0.9469,1.1264,1.1974,1.2989,1.4389,1.5482,1.6192,1.6707,1.6707,1.69,1.7385,1.8739,2.0095,2.1336,2.2324,2.3246,2.3975,2.3691,2.3099,2.2413,2.288,2.2129,2.0764,2.1578,2.1123,2.0124,2.0124,2.0124,2.0172,2.0377,2.0923,2.1488,2.1219,2.1993,2.3089,2.4096,2.548,2.7067,2.8978,3.1061,3.282,3.3808,3.4758,3.591,3.7472,3.7822,3.8278,3.9799,3.9534,3.872,3.7668,3.8597,3.9363,3.8951,3.9574,4.044,4.1302,4.0976,4.0745,4.0915,4.0681,4.0489,4.0489,3.895,3.7709,3.7053,3.5261,3.3709,3.252,3.2037,3.1166,2.9824,2.8741,2.7145,2.4997,0.0,0.0,0.0,0.0,0.0,0.0,0.0,0.0,0.0,0.0,0.0,0.0,0.0,0.0,0.0,0.0,0.0,0.0,0.0,0.0,0.0,0.0,0.0,0.0949,0.4139,0.6428,0.4715,0.637,0.7439,0.72,0.7681,0.7942,0.7821,0.796,0.8045,0.8045,0.938,1.0171,1.0171,1.1578,1.3023,1.4456,1.457,1.5398,1.6734,1.6734,1.7413,1.8777,2.0031,2.1379,2.2735,2.3868,2.4434,2.4434,2.4424,2.4414,2.4336,2.3506,2.3164,2.3154,2.3154,2.2413,2.1391,2.1391,2.1391,2.1569,2.2765,2.3135,2.3135,2.3222,2.3963,2.4872,2.4872,2.6438,2.8299,2.9309,3.1061,3.282,3.3808,3.4758,3.591,3.7472,3.7822,3.8262,3.9833,3.9993,4.0053,4.0528,4.0495,4.07,4.1545,4.1942,0.0,4.2598,4.2179,4.1835,4.1797,4.1046,4.0527,4.0489,3.895,3.7874,3.7581,3.5963,3.4415,3.3049,3.2229,3.0939,2.9163,2.7567,2.6741,2.6722,0.0,0.0,0.0,0.0,0.0,0.0,0.0,0.0,0.0,0.0,0.0,0.0,0.0,0.0,0.0,0.0,0.0,0.0,0.0,0.0,0.0,0.448,0.7358,0.5448,0.5004,0.4908,0.4951,0.6699,0.7815,0.7804,0.7909,0.7984,0.7977,0.8119,0.8208,0.8208,0.8646,0.8931,0.8931,1.1476,1.3044,1.3455,1.564,1.7023,1.7341,1.7341,1.8046,1.9358,2.0752,2.2158,2.3447,2.4431,2.4893,2.4863,2.4551,2.4414,2.4394,2.416,2.3877,2.3613,2.3613,2.3221,2.2589,2.2589,2.2589,2.2755,2.3953,2.4296,2.4457,2.5305,2.5808,2.6213,2.6942,2.7591,2.8694,3.1074,3.2136,3.3031,3.4691,3.5294,3.591,3.7472,3.7822,3.8398,4.0283,4.0976,4.1321,4.1449,4.2096,4.2779,4.3286,4.3136,4.3075,4.3433,4.3024,4.2508,4.1873,4.1585,4.1181,4.0546,3.895,3.7625,3.6722,3.4355,3.2996,3.3003,3.2056,3.1538,3.1623,3.0595,2.9787,0.0,0.0,0.0,0.0,0.0,0.0,0.0,0.0,0.0,0.0,0.0,0.0,0.0,0.0,0.0,0.0,0.0,0.0,0.0,0.0,0.0,0.0,0.2615,0.5272,0.7248,0.6325,0.5746,0.6216,0.731,0.7965,0.8041,0.8099,0.8136,0.8136,0.8275,0.8663,0.9274,0.9429,0.9828,1.0346,1.2211,1.3381,1.4017,1.5771,1.7041,1.7582,1.7582,1.8603,2.0538,2.1347,2.2767,2.4599,2.515,2.5352,2.5332,2.5078,2.4971,2.4932,0.0,0.0,0.0,0.0,2.3633,2.3467,2.3697,2.38,2.3963,2.5126,2.5546,2.563,2.6307,2.6801,2.736,2.8433,2.8995,2.9986,3.2508,3.3171,3.3602,3.5133,3.5733,3.629,3.7515,3.827,3.9076,4.0603,4.1578,0.0,4.2162,4.2903,4.3679,4.4194,4.4033,4.4037,4.4497,4.3998,4.3412,4.2893,4.2547,4.1989,4.1123,3.9815,0.0,0.0,0.0,3.3963,3.3371,3.2422,0.0,0.0,0.0,0.0,0.0,0.0,0.0,0.0,3.1937,3.2412,0.0,0.0,0.0,0.0,0.0,0.0,0.0,0.0,0.0,0.0,0.0,0.0,0.0,0.0,0.0,0.0,-0.0276,0.1635,0.6426,0.7122,0.7346,0.7975,0.7979,0.7969,0.8065,0.8191,0.8279,0.8292,0.8428,0.9129,1.0677,1.0856,0.0,0.0,0.0,1.4126,1.5417,1.5524,1.628,1.7582,1.7582,1.9013,2.1448,2.1651,2.3076,2.543,2.5635,2.5742,2.5742,2.5742,2.5742,2.5654,2.4814,2.4492,2.4434,2.4014,2.3947,2.4148,2.4757,0.0,0.0,2.6385,2.6764,2.6719,2.6812,2.7602,2.8615,2.9476,3.0504,3.1742,3.3518,3.4027,3.4245,3.5279,3.6054,3.6783,3.7632,3.8863,4.0033,4.0839,4.1937,4.2711,4.2788,4.3196,4.3791,4.4501,4.4631,4.4877,4.5513,4.4913,4.4412,4.4316,4.3662,0.0,4.2027,4.103,3.9905,3.8628,3.7668,3.6227,3.4164,3.3568,3.3623,3.4339,3.4357,3.5128,3.6707,3.8138,3.8619,3.8172,3.4849,3.4868,0.0,0.0,0.0,0.0,0.0,0.0,0.0,0.0,0.0,0.0,0.0,0.0,0.0,0.0,0.0,-0.4363,-0.1897,0.0393,0.1403,0.3406,0.5513,0.7779,0.7965,0.8092,0.8214,0.8252,0.8319,0.8431,0.8581,0.9297,1.0767,1.0949,1.1697,1.3199,1.4426,1.5097,1.5417,1.6605,1.7364,1.7582,1.7582,0.0,2.0033,2.1143,2.2567,2.4196,2.5226,2.5742,2.5742,2.5742,2.5742,2.5684,2.5156,2.4941,2.4893,2.4453,2.4907,2.5857,2.5941,2.6357,2.6981,2.8057,2.8104,2.7936,2.887,2.9845,0.0,3.0843,3.1583,3.2593,3.3739,3.4027,3.4245,3.5279,3.6054,3.6783,3.7632,3.8863,4.0163,4.1367,4.2221,4.2826,4.325,4.3642,4.4076,4.4527,4.4825,4.514,4.555,4.5451,4.5066,4.4374,4.4162,4.3739,4.2912,4.1204,3.9966,3.9479,3.8175,3.6952,3.5844,3.6909,3.7588,3.7753,3.7753,3.823,3.9203,3.9515,3.995,4.0486,4.0263,4.0302,0.0,0.0,0.0,0.0,0.0,0.0,0.0,0.0,0.0,0.0,0.0,-0.5574,-0.5181,0.0,-0.4816,-0.2982,-0.118,-0.0,-0.0,0.2314,0.5027,0.7682,0.7959,0.8099,0.8255,0.8333,0.8438,0.8584,0.8737,0.9791,1.2033,1.213,1.3156,1.5423,1.6209,1.6719,1.6719,1.7626,1.8036,1.8036,1.7883,1.8851,2.09,2.1428,2.2776,2.4716,2.543,2.5742,2.5742,2.5742,2.5742,2.5713,2.5488,2.54,2.5447,2.5631,2.6084,2.6769,2.7755,2.83,2.8652,2.9492,2.956,2.9383,2.9699,3.0495,3.1315,3.1742,3.2593,3.3518,3.4476,3.4758,3.4957,3.5864,3.6631,3.7381,3.8189,3.9631,4.1,4.1664,4.2483,4.3178,4.3444,4.3772,4.4146,4.4527,4.4732,4.5033,4.555,4.5586,4.5432,4.4989,4.4951,4.4533,4.3541,4.1854,4.0785,4.0659,3.9793,3.9129,3.8726,3.9478,3.99,3.99,3.99,4.0102,4.0506,4.0891,4.1313,4.1717,4.2619,4.2787,0.0,0.0,0.0,0.0,0.0,0.0,0.0,0.0,-0.5939,-0.6267,-0.6063,-0.5463,-0.4547,-0.4765,-0.4001,-0.0603,-0.0,-0.0,-0.0,0.2314,0.5027,0.7682,0.7959,0.8109,0.8292,0.8414,0.8557,0.874,0.8869,1.0241,1.3156,1.3305,1.4736,1.7556,1.7969,1.813,1.813,1.837,1.849,1.849,1.825,1.9291,2.1375,2.1696,2.3094,2.5159,2.5595,2.5859,2.5859,2.5771,2.5742,2.5742,2.5742,2.583,2.6157,2.6796,2.7289,2.7956,2.9502,3.0181,3.0361,3.0804,3.0859,3.0658,3.0327,3.0864,3.1817,3.2635,3.3533,3.4461,3.5279,3.5504,3.5668,3.6446,3.7203,3.7978,3.8745,4.0408,4.181,4.181,4.2734,4.3497,4.3497,4.3726,4.4076,4.4527,4.4676,4.4919,4.5513,4.5531,4.5495,4.5495,4.5495,4.5017,4.3811,4.2558,4.1723,4.1534,4.1235,4.1111,4.1111,4.1111,4.1185,4.135,4.135,4.1423,4.1589,4.2213,4.2525,4.2543,4.3476,4.3733,-0.8375,-0.734,-0.6355,-0.5978,-0.5932,-0.62,0.0,0.0,-0.6915,-0.7397,-0.5601,-0.3179,-0.097,-0.0692,-0.0502,-0.0101,-0.0,-0.0,-0.0,0.2314,0.5027,0.7682,0.7959,0.815,0.8431,0.8472,0.8601,0.8893,0.8927,1.0241,1.3156,1.3561,1.4987,1.7855,1.8277,1.8444,1.8444,1.8477,1.849,1.849,1.8457,1.8658,1.8975,2.1478,2.2731,2.3136,2.5329,2.6318,2.6289,2.5898,2.5742,2.5742,2.5742,2.639,2.74,2.7526,2.887,3.0761,3.098,3.1454,3.1934,3.1968,3.17,3.1347,3.1681,3.2386,3.3284,3.3675,3.4543,3.5359,3.5439,3.5504,3.5668,3.6446,3.7203,3.7978,3.8745,4.0408,4.181,4.181,4.2734,4.3497,4.3497,4.3548,4.3791,4.4501,4.4849,4.518,4.555,4.5342,4.5159,4.5159,4.5159,4.4668,4.3453,4.2912,4.221,4.1227,4.1111,4.1111,4.1111,4.1111,4.1442,4.2158,4.2176,4.2525,4.3222,4.3314,4.3369,4.3351,4.3511,4.3703,-0.9098,-0.8413,-0.7673,-0.6715,-0.6749,-0.7034,-0.7387,-0.739,-0.7428,-0.7807,-0.6938,-0.4876,-0.0795,-0.0,-0.0,0.0,-0.0,-0.0,-0.0,0.2355,0.4997,0.7691,0.7972,0.817,0.8455,0.8482,0.8608,0.8916,0.9699,1.1152,1.3446,1.4428,1.5985,1.8174,1.8584,1.8744,1.8744,1.8911,1.9005,1.8998,1.8824,1.9172,1.9918,2.1881,2.3597,2.5298,2.6299,2.6758,2.6719,2.6289,2.6113,2.6094,2.584,2.6935,2.868,2.868,2.9772,3.1311,3.2052,3.2451,3.2667,3.2328,3.2441,3.2758,3.2659,3.3424,3.4399,3.4493,3.5052,3.5504,3.5504,3.5846,3.6352,3.71,3.7905,3.8635,3.9437,4.0745,4.181,4.181,4.2734,4.3497,4.3497,4.3497,4.3679,4.4194,4.4373,4.4612,4.4966,4.4896,4.4825,4.4825,4.4587,4.425,4.3755,4.3392,4.3,4.2525,4.2506,4.2506,4.2506,4.2506,4.2653,4.2983,4.3002,4.3149,4.3497,4.3497,4.3497,4.3497,4.3497,4.3563,-0.9401,-0.8955,-0.8522,-0.7325,-0.7356,-0.7641,-0.7573,-0.7641,-0.7787,-0.7915,-0.7975,-0.6656,-0.231,-0.0705,-0.0,-0.0,-0.0,-0.0,-0.0,0.1658,0.4116,0.7607,0.7982,0.8066,0.83,0.8459,0.8591,0.8855,0.993,1.1457,1.3583,1.4828,1.645,1.8492,1.8891,1.9045,1.9045,1.9259,1.9366,1.9366,1.9152,1.9814,2.1108,2.2836,2.4986,2.7363,2.7246,2.7197,2.7168,2.6738,2.6494,2.6357,2.6408,2.7589,2.9407,2.9772,3.0676,3.1865,3.2797,3.3081,3.3006,3.2591,3.3002,3.36,3.366,3.43,3.5125,3.5372,3.5606,3.5729,3.5549,3.6054,3.6783,3.7632,3.8358,3.9139,3.9901,4.0844,4.1578,4.175,4.26,4.3339,4.3479,4.3497,4.3563,4.3836,4.3849,4.4046,4.4527,4.4501,4.4428,4.4428,4.4106,4.3912,4.3986,4.3693,4.3497,4.3497,4.3497,4.3497,4.3497,4.3497,4.3497,4.3497,4.3497,4.3497,4.3497,4.3497,4.3497,4.3497,4.3497,4.3548,-0.9079,-0.8644,-0.8468,-0.7587,-0.7584,-0.7841,-0.7987,-0.8024,-0.8028,-0.8038,-0.7959,-0.7459,-0.5625,-0.2409,-0.0,-0.0,-0.0,-0.0,-0.0,0.0104,0.2056,0.7418,0.7995,0.8029,0.7965,0.83,0.8547,0.8706,0.9092,1.0595,1.3593,1.4122,1.5753,1.8791,1.9199,1.9352,1.9352,1.9366,1.9366,1.9366,1.9359,2.0134,2.1677,2.4675,2.6797,2.8232,2.7822,2.7646,2.7617,2.7178,2.6758,2.6476,2.7678,2.8612,2.9498,3.0676,3.1965,3.3081,3.3081,3.3081,3.3081,3.3056,3.3043,3.3428,3.4803,3.5237,3.5432,3.6247,3.6462,3.6312,3.5669,3.6054,3.6783,3.7632,3.8358,3.9139,3.9901,4.0546,4.1087,4.1664,4.2302,4.2902,4.341,4.3497,4.3479,4.3513,4.3513,4.3758,4.4501,4.4261,4.4016,4.4016,4.3726,4.3646,4.3986,4.3693,4.3497,4.3497,4.3497,4.3497,4.3497,4.3497,4.3497,4.3497,4.3497,4.3497,4.3497,4.3497,4.3497,4.3497,4.3497,4.366,-1.113,-1.1191,-1.0919,-0.9359,-0.9148,-0.9049,-0.8223,-0.8038,-0.8038,-0.8038,-0.7878,-0.7622,-0.7018,-0.6033,-0.4178,-0.0607,-0.0,-0.0,-0.0,-0.0,0.0637,0.2471,0.5822,0.8059,0.819,0.8319,0.8445,0.8693,0.976,1.1085,1.2348,1.3639,1.5257,1.7542,1.7757,1.8286,1.9366,1.9366,1.9366,1.9366,1.9366,2.0709,2.3039,2.4156,2.5945,2.8281,2.8144,2.8086,2.8047,2.7617,2.7363,2.7383,2.7924,2.8817,2.9926,3.0883,3.2052,3.3081,3.3081,3.3081,3.3081,3.3081,3.4024,3.5238,3.5741,3.6566,3.7389,3.7645,3.7135,3.6432,3.6207,3.6389,3.6783,3.7632,3.8358,3.9139,3.9901,4.0528,4.1087,4.1664,4.2302,4.2864,4.341,4.3497,4.3497,4.3497,4.3497,4.3597,4.3855,4.3758,4.3679,4.3679,4.3563,4.3548,4.3646,4.3563,4.3497,4.3497,4.3497,4.3497,4.3497,4.3497,4.3321,4.2976,4.2976,4.2976,4.2976,4.2976,4.3142,4.3497,4.3497,4.3563,-1.1855,-1.1927,-1.1711,-1.0196,-0.9909,-0.9805,-0.892,-0.8333,-0.8011,-0.7902,-0.7717,-0.7627,-0.7516,-0.7614,-0.664,-0.3365,-0.1226,-0.0,-0.0,-0.0,-0.0,-0.0,0.3082,0.6001,0.8056,0.8347,0.8513,0.8696,0.9876,1.0924,1.1774,1.2826,1.4555,1.6962,1.6968,1.7806,1.9366,1.9366,1.9366,1.9366,2.0486,2.1934,2.3822,2.4939,2.6499,2.8291,2.8291,2.8291,2.8271,2.7998,2.7803,2.7816,2.8407,2.9203,3.0079,3.1073,3.2123,3.3081,3.3081,3.3081,3.3081,3.3081,3.4024,3.5265,3.596,3.6864,3.7755,3.8225,3.7793,3.7105,3.6881,3.709,3.7468,3.8003,3.8748,3.94,3.9969,4.0368,4.0844,4.1639,4.2121,4.2637,4.3356,4.3497,4.3497,4.3497,4.3497,4.3497,4.3497,4.3497,4.3497,4.3497,4.3497,4.3497,4.3497,4.3497,4.3497,4.3497,4.3497,4.341,4.3214,4.3214,4.2958,4.2382,4.2382,4.248,4.2711,4.2711,4.2976,4.3497,4.3497,4.3497,-1.1424,-1.1288,-1.1125,-1.0391,-1.019,-1.019,-0.9998,-0.9008,-0.8031,-0.7648,-0.757,-0.7461,-0.7149,-0.7051,-0.7312,-0.7832,-0.3674,-0.0307,-0.0,-0.0,-0.0,0.0,0.0,0.2081,0.7379,0.8362,0.8669,0.8747,0.9266,1.023,1.1578,1.1904,1.3522,1.6727,1.685,1.7683,1.9366,1.9366,1.9366,1.9482,2.2274,2.3599,2.3933,2.6726,2.8174,2.8291,2.8291,2.8291,2.8291,2.8291,2.8057,2.7894,2.9147,2.9773,3.0191,3.1562,3.2451,3.3119,3.3081,3.3081,3.3081,3.3081,3.3154,3.3556,3.5507,3.6212,3.6556,3.7986,3.8407,3.8242,3.7629,3.8013,3.857,3.8829,3.9421,3.9957,4.012,4.0138,4.0468,4.1552,4.1793,4.2185,4.3321,4.3497,4.3497,4.3497,4.3497,4.3497,4.3497,4.3497,4.3497,4.3497,4.3497,4.3497,4.3497,4.3497,4.3497,4.3444,4.3444,4.3214,4.2655,4.2655,4.2382,4.1768,4.175,4.2038,4.2616,4.2655,4.2939,4.3444,4.3497,4.3497,-1.3944,-1.4333,-1.4294,-1.3165,-1.2909,-1.242,-1.0485,-0.9585,-0.8765,-0.7649,-0.7163,-0.6837,-0.6539,-0.6848,-0.7156,-0.7265,-0.6588,0.0,-0.053,-0.0,0.0,-0.0,0.0,0.0575,0.1927,0.6036,0.8687,0.9013,0.9256,0.9582,1.0123,1.0317,1.1856,1.5074,1.5192,1.6503,1.9366,1.9366,1.9366,1.9366,2.0155,2.1714,2.3822,2.4608,2.6164,2.8291,2.8291,2.8291,2.8291,2.8291,2.8232,2.8298,3.0269,3.1053,3.1326,3.2865,3.3532,3.3633,3.3219,3.3081,3.3081,3.3081,3.3641,3.4428,3.4897,3.616,3.7468,3.7866,3.8163,3.8347,3.8182,3.7901,3.8055,3.9295,3.9734,4.0073,4.0774,4.0916,4.0967,4.1117,4.1853,4.2675,4.3375,4.3497,4.3497,4.3497,4.3497,4.3497,4.3497,4.3497,4.3497,4.3497,4.3497,4.3497,4.3497,4.3497,4.3321,4.2939,4.2902,4.2637,4.2062,4.2021,4.1768,4.1133,4.1133,4.1223,4.1358,4.181,4.2324,4.2902,4.3321,4.3497,-1.4412,-1.4716,-1.4752,-1.407,-1.3878,-1.3402,-1.1571,-1.0407,-0.9305,-0.7697,-0.7082,-0.6594,-0.5991,-0.6298,-0.6695,0.0,0.0,0.0,-0.2327,-0.0778,-0.0,0.0,-0.0,0.0,-0.0,0.2978,0.5536,0.7194,0.8676,0.9503,0.9605,0.9744,1.0899,1.3526,1.4242,1.6149,1.9366,1.9366,1.9366,1.9366,2.0033,2.1593,2.3822,2.4488,2.6054,2.8291,2.8291,2.8291,2.8291,2.8291,2.8291,2.8475,3.0229,3.1196,3.1732,3.3203,3.3838,3.3859,3.3545,3.3282,3.3081,3.3081,3.3471,3.4108,3.4594,3.5842,3.719,3.7663,3.8267,3.8841,3.8841,3.8571,3.853,3.9562,4.0055,4.0478,4.1006,4.1379,4.1648,4.1453,4.2101,4.2788,4.3105,4.3321,4.3497,4.3497,4.3497,4.3497,4.3497,4.3497,4.3497,4.3497,4.3497,4.3497,4.3497,4.3286,4.3014,4.2711,4.244,4.2021,4.1446,4.1402,4.115,4.0577,4.0528,4.0655,4.0903,4.1223,4.1853,4.2711,4.3014,4.3286,-1.4106,-1.4166,-1.407,-1.3974,-1.4046,-1.382,-1.2624,-1.131,-0.9761,-0.7855,-0.712,-0.651,-0.565,-0.5741,-0.6142,-0.6573,0.0,-0.6487,-0.4316,-0.1667,-0.0,-0.0,-0.0,-0.0,-0.0,-0.0,0.1333,0.4666,0.8,0.9798,0.9646,0.9754,1.066,1.2453,1.4123,1.6385,1.9366,1.9366,1.9366,1.9366,2.0702,2.2145,2.3822,2.5151,2.6717,2.8291,2.8291,2.8291,2.8291,2.8291,2.8291,2.8495,3.0016,3.0976,3.1791,3.3206,3.3869,3.4098,3.3947,3.3583,3.3169,3.3106,3.3081,3.324,3.4191,3.5278,3.6369,3.7343,3.8457,3.9424,3.9424,3.9424,3.9459,3.9843,4.048,4.1096,4.128,4.1816,4.2294,4.2265,4.2449,4.2659,4.2817,4.316,4.341,4.3497,4.3497,4.3497,4.3497,4.3497,4.3497,4.3497,4.3497,4.3479,4.341,4.2976,4.2616,4.248,4.1979,4.1402,4.0827,4.078,4.0577,4.0121,4.007,4.0336,4.078,4.0874,4.1446,4.248,4.2519,4.2938,-1.5425,-1.5439,-1.5242,-1.4166,-1.4489,-1.4358,-1.1589,-1.102,0.0,0.0,-0.7135,-0.6219,-0.5807,-0.5763,-0.5949,-0.6285,-0.7179,-0.6979,-0.4412,-0.1665,-0.0,0.0,-0.0,-0.0,-0.0,-0.0,0.1351,0.4671,0.7896,0.9744,0.9788,0.9805,1.1137,1.4128,1.5784,1.7449,1.9366,1.9366,1.9366,1.9366,1.9707,2.1152,2.3822,2.4044,2.5717,2.8291,2.8291,2.8291,2.8291,2.8291,2.8291,2.8495,3.1019,3.2085,3.2352,3.4423,3.5219,3.5127,3.4211,3.3834,3.3684,3.3219,3.3081,3.3154,3.3313,3.4719,3.6277,3.6448,3.789,3.9424,3.9424,3.9424,3.9778,4.127,4.1693,4.1991,4.2835,4.2601,4.2447,4.2938,4.2571,4.2492,4.345,4.3165,4.2976,4.3444,4.3497,4.3497,4.3497,4.3497,4.3497,4.3497,4.3497,4.3339,4.2864,4.2732,4.2244,4.1268,4.1133,4.078,4.0237,4.0254,4.0221,4.007,4.007,4.0171,4.0254,4.0703,4.0995,4.1206,4.1707,4.2624,-1.5832,-1.5832,-1.5635,-1.5045,-1.5019,-1.4615,-1.2296,0.0,0.0,0.0,-0.7536,-0.6697,-0.5823,-0.5852,-0.5982,-0.6033,-0.6767,-0.7067,-0.6228,-0.2577,-0.0,-0.0,-0.0,-0.0,-0.0,0.1606,0.3952,0.7165,0.8906,0.9757,0.9825,0.9822,1.1257,1.4485,1.5311,1.6973,1.9366,1.9366,1.9366,1.9366,1.9366,2.0931,2.3822,2.3822,2.5498,2.8291,2.8291,2.8291,2.8291,2.8291,2.8291,2.8495,3.0514,3.1735,3.2509,3.4282,3.5207,3.5429,3.4613,3.4135,3.3809,3.3257,3.3081,3.3081,3.3081,3.4178,3.5507,3.6053,3.7329,3.8708,3.9265,3.9424,3.961,4.0447,4.1346,4.2345,4.3726,4.342,4.2969,4.327,4.2943,4.2927,4.38,4.3935,4.3932,4.4106,4.3871,4.356,4.316,4.2828,4.2847,4.3444,4.3497,4.3286,4.275,4.24,4.1853,4.0949,4.0655,4.0368,4.0121,4.007,4.007,4.007,4.007,4.007,4.007,4.0368,4.0607,4.092,4.1614,4.2494,-1.5812,-1.5832,-1.573,-1.5439,-1.5153,-1.4409,-1.2752,-1.1795,0.0,-0.8831,-0.8015,-0.7283,-0.5977,-0.5935,-0.6077,-0.6021,-0.6377,-0.6989,-0.7748,-0.3827,-0.0654,-0.0116,-0.0,0.0,-0.0,0.2347,0.5195,0.8556,0.941,0.9751,0.9825,0.9822,1.114,1.4004,1.4361,1.6026,1.8887,1.9243,1.9366,1.9366,1.9366,2.0931,2.3822,2.3822,2.5498,2.8291,2.8291,2.8291,2.8291,2.8291,2.8291,2.8398,2.9817,3.1122,3.2443,3.3871,3.4907,3.5642,3.509,3.4537,3.3985,3.3432,3.3169,3.3081,3.3081,3.3882,3.4897,3.5894,3.6944,3.8069,3.9104,3.9424,3.9481,3.9864,4.1162,4.2707,4.4253,4.4096,4.3673,4.3673,4.344,4.3417,4.4056,4.4502,4.4764,4.4578,4.4315,4.3844,4.3055,4.2418,4.2376,4.3269,4.3341,4.3032,4.2382,4.1979,4.149,4.078,4.0336,4.007,4.007,4.007,4.007,4.007,4.007,4.007,4.007,4.007,4.0421,4.1009,4.1598,4.2367,-1.5758,-1.5832,-1.5534,-1.4364,-1.4343,-1.3893,-1.1514,0.0,-1.0688,-0.9372,-0.8342,-0.7456,-0.6642,-0.6126,-0.6057,-0.6709,-0.657,-0.6512,-0.7108,-0.517,-0.2707,-0.0343,0.0,0.0,-0.0,0.0247,0.1851,0.506,0.8136,0.9849,0.9822,0.9822,1.066,1.2333,1.3885,1.5429,1.7202,1.8642,1.9366,1.9366,1.9366,2.0931,2.3822,2.3822,2.5498,2.8291,2.8291,2.8291,2.8291,2.8291,2.8291,2.8398,2.9817,3.1122,3.2443,3.3871,3.5246,3.6207,3.5655,3.5115,3.4562,3.401,3.3483,3.3081,3.3081,3.3882,3.4897,3.5894,3.6944,3.8069,3.9104,3.9424,3.9809,4.1346,4.2458,4.3426,4.4384,4.4519,4.4468,4.4468,4.3898,4.3591,4.4196,4.422,4.4139,4.4068,4.4545,4.4653,4.3961,4.3236,4.2837,4.2967,4.2853,4.2284,4.1178,4.1534,4.1331,4.0254,4.0121,4.007,4.007,4.007,4.007,4.007,4.007,4.007,4.007,4.007,4.0477,4.1188,4.1256,4.233,-1.5444,-1.5698,-1.5635,-1.5146,-1.4663,-1.3774,-1.2126,-1.1216,-1.0401,-0.9218,-0.8618,-0.8156,-0.7396,-0.6713,-0.6501,-0.7135,-0.6242,-0.5718,-0.6502,-0.6093,-0.4223,-0.0434,-0.0,-0.0,-0.0,-0.0,0.1356,0.4677,0.7894,0.9744,0.9822,0.9822,1.0539,1.2093,1.3765,1.5429,1.6962,1.8642,1.9366,1.9366,1.9366,2.0931,2.3822,2.3822,2.5498,2.8291,2.8291,2.8291,2.8291,2.8291,2.8291,2.8398,2.89,3.0421,3.223,3.2039,3.3353,3.5101,3.4554,3.3914,3.3576,3.3794,3.3533,3.3081,3.3081,3.3882,3.4897,3.5894,3.6944,3.8069,3.9104,3.9424,3.9864,4.1609,4.2252,4.2909,4.431,4.4587,4.4587,4.4587,4.4333,4.43,4.4906,4.4985,4.4896,4.4717,4.4664,4.4384,4.3598,4.2947,4.2528,4.2528,4.2335,4.181,4.0949,4.1133,4.092,4.0171,4.007,4.007,4.007,4.007,4.007,4.007,4.007,4.0307,4.0747,4.0747,4.1136,4.1863,4.232,4.2988,-1.5064,-1.5478,-1.5705,-1.5705,-1.4823,-1.3641,-1.2445,-1.1269,-1.012,-0.9031,-0.8804,-0.8586,-0.783,-0.7289,-0.7091,-0.7649,-0.6375,-0.5752,-0.6795,-0.687,-0.5655,-0.2602,-0.0879,-0.0,-0.0,-0.0,0.0986,0.3318,0.7401,0.9761,0.9832,0.9825,1.0301,1.1499,1.3526,1.5192,1.6256,1.8409,1.9366,1.9366,1.9366,2.0931,2.3822,2.3822,2.5498,2.8291,2.8291,2.8291,2.8291,2.8291,2.8291,2.8291,2.8291,2.9911,3.2129,3.0824,3.2039,3.4326,3.3437,3.3064,3.3028,3.3362,3.3482,3.3294,3.3131,3.3641,3.4498,3.5814,3.7175,3.8472,3.9177,3.9424,3.9864,4.1609,4.1997,4.2504,4.4253,4.4587,4.4587,4.4587,4.4587,4.472,4.5178,4.5355,4.5406,4.5099,4.4831,4.4473,4.3718,4.3062,4.2625,4.2625,4.2199,4.1696,4.1064,4.0948,4.0655,4.0121,4.007,4.0172,4.0409,4.0409,4.051,4.073,4.073,4.1001,4.1525,4.1525,4.1897,4.2642,4.3166,4.3538,-1.4649,-1.5177,-1.5398,-1.5398,-1.4516,-1.3333,-1.2144,-1.0962,-0.9873,-0.8991,-0.8804,-0.8586,-0.783,-0.767,-0.7811,-0.8131,-0.7159,-0.6916,-0.8332,-0.7569,-0.7042,-0.7607,-0.3095,-0.0,-0.0,-0.0,-0.0,-0.0,0.6162,0.9767,0.9856,0.9832,0.9822,0.9819,1.2933,1.4604,1.4604,1.7812,1.9366,1.9366,1.9366,2.0931,2.3822,2.3822,2.5498,2.8291,2.8291,2.8291,2.8291,2.8291,2.8291,2.8291,2.8291,2.9911,3.2129,3.0824,3.2039,3.4178,3.2844,3.2799,3.3387,3.2853,3.3284,3.3796,3.3244,3.3081,3.3556,3.5654,3.7724,3.9424,3.9424,3.9424,3.9864,4.1609,4.1997,4.2504,4.4253,4.4587,4.4587,4.4587,4.4587,4.4587,4.4626,4.5089,4.532,4.472,4.5125,4.525,4.4648,4.3876,4.3403,4.3403,4.2726,4.1982,4.1255,4.1006,4.0655,4.0121,4.007,4.0409,4.117,4.1187,4.1525,4.2252,4.2269,4.2269,4.2286,4.2286,4.2675,4.3403,4.342,4.3826,-1.2692,-1.3206,-1.3534,-1.3333,-1.2852,-1.2178,-1.1196,-1.0528,-0.9866,-0.8991,-0.8804,-0.8752,-0.848,-0.7616,-0.7359,-0.855,-0.7841,-0.743,-0.8111,-0.8398,-0.8153,-0.7097,-0.2814,-0.0,-0.0,-0.0,-0.0,-0.0,0.4059,0.7388,0.9731,0.9832,0.9822,0.9822,1.2933,1.4604,1.4604,1.7812,1.9366,1.9366,1.9366,2.0931,2.3822,2.3822,2.5498,2.8291,2.8291,2.8291,2.8291,2.8291,2.8291,2.8398,2.9303,3.0721,3.2129,3.0824,3.1429,3.2944,3.2431,3.2216,3.2363,3.4059,3.4276,3.3872,3.3696,3.4406,3.5668,3.7814,3.8855,3.9424,3.9424,3.9424,3.9864,4.1609,4.1997,4.2504,4.4253,4.4587,4.4587,4.4587,4.4587,4.4587,4.4587,4.4776,4.4814,4.4626,4.4759,4.4814,4.4626,4.4367,4.4215,4.4215,4.3521,4.276,4.2016,4.1903,4.175,4.1628,4.1593,4.1466,4.1106,4.1648,4.1749,4.1438,4.1382,4.1704,4.2219,4.2219,4.2919,4.4215,4.4215,4.435,-1.1503,-1.2051,-1.2446,-1.2184,-1.1837,-1.1336,-1.0568,-1.008,-0.9599,-0.8945,-0.8804,-0.8804,-0.8804,-0.783,-0.7338,-0.8404,-0.805,-0.7596,-0.7762,-0.8495,-0.8203,-0.5957,-0.4136,-0.2183,-0.0243,-0.0,-0.0,-0.0,0.3074,0.6274,0.9625,0.9839,0.9822,0.9822,1.2933,1.4604,1.4604,1.7812,1.9366,1.9366,1.9366,2.0931,2.3822,2.3822,2.5498,2.8291,2.8291,2.8291,0.0,2.8291,2.8291,2.8398,2.9207,3.0307,3.1429,3.0016,3.0411,3.1531,3.1531,3.1627,3.2146,3.4125,3.4322,3.3985,3.4385,3.5266,3.6448,3.7814,3.8767,3.9424,3.9424,3.9424,3.9737,4.1147,4.1739,4.2379,4.3798,4.4384,4.4587,4.4587,4.4587,4.4587,4.4587,4.4587,4.4587,4.4587,4.4587,4.4587,4.4587,4.4587,4.4587,4.4587,4.4147,4.3673,4.32,4.2625,4.2286,4.2286,4.2286,4.2064,4.1494,4.1982,4.1986,4.1417,4.1357,4.1645,4.2101,4.2101,4.2649,4.3604,4.3604,4.3604,0.0,-1.1456,-1.1677,-1.1657,-1.1256,-1.0722,-1.0154,-0.9619,0.0,-0.8871,-0.8804,-0.8824,-0.8884,-0.8211,-0.7706,-0.7954,-0.7857,-0.7617,-0.7383,-0.8139,-0.7513,-0.4532,-0.6084,-0.5442,-0.0473,-0.0,-0.0,-0.0,0.3076,0.628,0.9655,0.9852,0.9822,0.9822,1.2933,1.4604,1.4604,1.7812,1.9366,1.9366,1.9366,2.0931,2.3822,2.3822,2.5498,2.8291,2.8291,2.8291,2.8291,2.8291,2.8291,2.8291,2.8398,2.9207,3.012,2.89,2.9207,3.0317,3.0421,3.1224,3.2453,3.3347,3.3783,3.4161,3.5148,3.5749,3.6212,3.6277,3.78,3.9424,3.9424,3.9424,3.961,4.0569,4.1412,4.2252,4.3169,4.4006,4.4587,4.4587,4.4587,4.4587,4.4587,4.4587,4.4587,4.4587,4.4587,4.4587,4.4587,4.4587,4.4587,4.4587,4.4587,4.4587,4.4587,4.3267,4.2455,4.2455,4.2402,4.2344,4.2193,4.2167,4.2085,4.1917,4.1933,4.1933,4.1933,4.1933,4.1933,4.1997,4.1997,4.1997,-0.9332,0.0,-0.98,-0.9586,-0.9586,-0.9559,0.0,-0.9178,-0.9103,-0.8871,-0.8804,-0.9011,-0.9686,-0.8333,-0.7529,-0.8765,-0.856,-0.806,-0.7613,-0.8113,-0.7843,-0.5952,-0.3456,-0.1342,-0.0122,-0.0,-0.0,-0.0,0.3076,0.628,0.9655,0.9852,0.9822,0.9822,1.2933,1.4604,1.4604,1.7812,1.9366,1.9366,1.9366,2.0931,2.3822,2.3822,2.5498,2.8291,2.8291,2.8291,2.8291,2.8291,2.8291,2.8398,2.9408,3.0016,3.0214,2.9911,3.0016,3.0421,3.1429,3.2028,3.2553,3.4435,3.5077,3.5002,3.4489,3.5182,3.6369,3.7175,3.8383,3.9424,3.9424,3.9424,3.9809,4.1346,4.1869,4.2442,4.3931,4.4457,4.4587,4.4587,4.4587,4.4587,4.4587,4.4587,4.4587,4.4587,4.4587,4.4587,4.4587,4.4587,4.4587,4.4587,4.4587,4.4587,4.4587,4.4248,4.4045,4.4045,4.3413,4.2725,4.2074,4.2074,4.1693,4.1013,4.1013,4.1013,4.1013,4.1013,4.1346,4.1997,4.1997,4.1997,-0.8771,-0.9118,-0.9406,-0.9245,-0.9325,-0.9406,-0.9245,-0.9125,-0.8998,-0.8838,-0.8804,-0.8991,-0.9599,-0.8246,-0.7438,-0.8592,-0.8499,-0.8267,-0.8521,-0.8563,-0.7918,-0.5718,-0.4836,-0.3332,-0.0246,-0.0,-0.0,-0.0,0.16,0.4798,0.9532,0.9741,0.9832,0.9822,1.2933,1.4604,1.4604,1.7812,1.9366,1.9366,1.9366,2.0931,2.3822,2.3822,2.5498,2.8291,2.8291,2.8291,2.8291,2.8291,2.8291,2.8398,2.9102,2.9408,2.9408,2.9408,2.9408,2.9608,3.0927,3.2241,3.3604,3.5322,3.5755,3.5391,3.4537,3.5352,3.6664,3.7014,3.8219,3.9424,3.9424,3.9424,3.961,4.0585,4.108,4.1788,4.3092,4.3739,4.4121,4.4514,4.4587,4.4587,4.4587,4.4587,4.4587,4.4587,4.4587,4.4587,4.4587,4.4587,4.4587,4.4587,4.4587,4.4587,4.4587,4.4253,4.4196,4.457,4.3426,4.252,4.1997,4.1609,4.1013,4.0115,4.0115,4.0115,4.0115,4.0115,4.0309,4.0842,4.0842,4.0842,-0.8784,-0.9365,-0.984,-0.9659,-0.9686,-0.974,-0.9693,-0.9299,-0.8945,-0.8945,-0.8945,-0.9085,-0.9552,-0.8598,-0.7912,-0.8442,-0.8247,-0.8299,-0.9371,-0.9122,-0.8021,-0.549,-0.7027,-0.6555,-0.1975,-0.0617,-0.0,-0.0,-0.0,0.2706,0.8775,0.95,0.9846,0.9822,1.2933,1.4604,1.4604,1.7812,1.9366,1.9366,1.9366,2.0931,2.3822,2.3822,2.5498,2.8291,2.8291,2.8291,2.8291,2.8291,2.8291,2.8291,2.8291,2.8291,2.8291,2.8291,2.8291,2.8495,3.012,3.2241,3.4581,3.5966,3.6044,3.5554,3.4914,3.5804,3.6893,3.6325,3.7724,3.9424,3.9424,3.9424,3.9409,3.9538,4.0185,4.0946,4.1997,4.2785,4.3562,4.444,4.4587,4.4587,4.4587,4.4587,4.4587,4.4587,4.4587,4.4587,4.4587,4.4587,4.4587,4.4587,4.4587,4.457,4.4384,4.3621,4.3426,4.4179,4.2691,4.1739,4.1609,4.0894,4.0185,3.9409,3.9424,3.9424,3.9424,3.9424,3.9424,3.9424,3.9424,3.9424,-0.9025,-0.9967,-1.0555,-0.9552,-0.9679,-0.9987,-0.974,-0.9613,-0.9546,-0.9546,-0.9546,-0.994,-1.1229,-1.0504,-0.9818,-1.0187,-0.8914,-0.8028,-0.872,-0.891,-0.8742,-0.8561,-0.4343,-0.3326,-0.7806,-0.321,-0.0,-0.0,-0.0,0.1598,0.5412,0.8247,0.9846,0.9822,1.2933,1.4604,1.4604,1.7812,1.9366,1.9366,1.9366,2.0931,2.3822,2.3822,2.5498,2.8291,2.8291,2.8291,2.8291,2.8291,2.8291,2.8291,2.8291,2.8291,2.8291,2.8291,2.8291,2.8698,3.1122,3.3055,3.4581,3.5966,3.6307,3.6044,3.5027,3.5491,3.6351,3.6195,3.7724,3.9424,3.9424,3.9424,3.961,4.0309,4.0622,4.1147,4.2785,4.3185,4.3562,4.444,4.4587,4.4587,4.4587,4.4587,4.4587,4.4587,4.4587,4.4587,4.4587,4.4587,4.4587,4.4587,4.4587,4.4327,4.3562,4.2707,4.2252,4.2379,4.1478,4.0569,3.9809,3.9681,3.9553,3.9424,3.9424,3.9424,3.9424,3.9424,3.9424,3.9424,3.9424,3.9424,-0.8611,-0.9399,-1.0027,-0.9967,-1.0635,-1.1223,-1.0935,-1.0283,-0.9841,-1.0494,-1.0104,-0.9945,-1.0781,-1.0279,-0.9612,-0.93,-0.919,-0.9108,-0.8766,-0.9518,-0.9905,-0.9408,-0.5313,-0.3077,-0.4445,-0.1728,-0.0,-0.0,-0.0,0.1478,0.4671,0.8011,0.9741,0.9822,1.2933,1.4604,1.4604,1.7812,1.9366,1.9366,1.9366,2.0931,2.3822,2.3822,2.5498,2.8291,2.8291,2.8291,2.8291,2.8291,2.8291,2.8291,2.8291,2.8291,2.8291,2.8291,2.8291,2.8698,3.1327,3.2744,3.365,3.575,3.6358,3.6207,3.5416,3.5711,3.6379,3.6647,3.7599,3.8708,3.9265,3.9424,3.9481,3.9935,3.999,4.0447,4.2189,4.2583,4.297,4.4327,4.4587,4.4587,4.4587,4.4587,4.4587,4.4587,4.4587,4.4587,4.4587,4.4587,4.4587,4.4587,4.4587,4.4253,4.3366,4.252,4.1609,4.0638,4.069,4.0309,3.9424,3.9424,3.9424,3.9424,3.9424,3.9424,3.9424,3.9424,3.9424,3.9424,3.9424,3.9424,-0.8397,-0.8951,-0.9539,-1.0416,-1.1182,-1.1837,-1.2031,-1.0876,-1.0096,-1.1501,-1.0898,-1.0266,-1.0881,-1.0445,-0.9754,-0.9087,-0.9552,-0.9692,-0.8845,-0.9865,-1.0337,-0.949,-0.671,-0.3656,-0.0368,-0.0,-0.0,-0.0,-0.0,0.1479,0.4671,0.8025,0.9757,0.9822,1.2933,1.4604,1.4604,1.7812,1.9366,1.9366,1.9366,2.0931,2.3822,2.3822,2.5498,2.8291,2.8291,2.8291,2.8291,2.8291,2.8291,2.8291,2.8291,2.8291,2.8291,2.8291,2.8291,2.8698,3.1327,3.2331,3.2733,3.5547,3.6358,3.6257,3.5705,3.5761,3.6223,3.6793,3.7348,3.8127,3.9106,3.9424,3.9424,3.9424,3.9424,3.9809,4.1346,4.1674,4.2189,4.3931,4.4327,4.4384,4.457,4.4587,4.4587,4.4587,4.4587,4.4587,4.4587,4.4587,4.4587,4.4587,4.4384,4.3873,4.2785,4.1869,4.0842,3.9481,4.006,4.0115,3.9424,3.9424,3.9424,3.9424,3.9424,3.9424,3.9424,3.9424,3.9424,3.9424,3.9424,3.9424,-0.8891,-0.9412,-0.98,-1.047,-1.0414,-1.0695,-1.2392,-1.1064,-1.0219,-1.2614,-1.2024,-1.1617,-1.3483,-1.2471,-1.1522,-1.2035,-1.0119,-0.869,-0.8882,-0.9164,-0.9401,-0.9349,-0.6771,-0.3554,-0.0362,-0.0,-0.0,-0.0,-0.0,0.1479,0.4671,0.8025,0.9757,0.9822,1.2933,1.4604,1.4604,1.7812,1.9366,1.9366,1.9366,2.0931,2.3822,2.3822,2.5498,2.8291,2.8291,2.8291,2.8291,2.8291,2.8291,2.8291,2.8291,2.8291,2.8291,2.8291,2.8291,2.8698,3.1327,3.2331,3.2733,3.5547,3.6358,3.6257,3.5705,3.5516,3.5707,3.6236,3.7213,3.8313,3.918,3.9424,3.9424,3.9424,3.9424,3.9681,4.0554,4.0811,4.128,4.3047,4.3366,4.3621,4.444,4.4587,4.4587,4.4587,4.4587,4.4587,4.4587,4.4587,4.4587,4.4587,4.3873,4.2707,4.1013,4.013,3.9553,3.9424,3.9481,3.9481,3.9424,3.9424,3.9424,3.9424,3.9424,3.9424,3.9424,3.9424,3.9424,3.9424,3.9424,3.9424,-0.851,-0.9185,-0.9866,-1.0641,-1.1022,-1.1476,-1.2587,-1.1408,-1.0893,-1.3924,-1.2826,-1.1492,-1.2355,-1.0792,-0.9442,-0.986,-0.9188,-0.8699,-0.891,-0.9062,-0.9167,-0.9097,-0.6633,-0.3646,-0.0356,-0.0,-0.0,-0.0,-0.0,0.1458,0.4725,0.7983,0.9757,0.9822,1.2933,1.4604,1.4604,1.7812,1.9366,1.9366,1.9366,2.0931,2.3822,2.3822,2.5498,2.8291,2.8291,2.8291,2.8291,2.8291,2.8291,2.8291,2.8291,2.8291,2.8291,2.8291,2.8291,2.8601,3.0421,3.1633,3.2632,3.4557,3.5763,3.632,3.6119,3.5818,3.5663,3.6569,3.6917,3.7368,3.9046,4.0066,4.0531,4.0127,4.0023,4.0179,4.0593,4.069,4.108,4.2252,4.252,4.2785,4.3621,4.3814,4.4006,4.4514,4.4587,4.4587,4.4587,4.4587,4.4587,4.4587,4.335,4.1997,4.0811,3.9935,3.9424,3.9424,3.9424,3.9424,3.9424,3.9424,3.9424,3.9424,3.9424,3.9104,3.8383,3.9104,3.9031,3.8383,3.8383,3.8383,-0.8397,-0.9018,-0.978,-1.0748,-1.1436,-1.2018,-1.2486,-1.131,-1.1112,-1.4291,-1.3508,-1.2204,-1.2353,-1.0672,-0.9287,-0.9161,-0.8927,-0.8764,-0.8916,-0.9028,-0.911,-0.8917,-0.7257,-0.4525,-0.035,-0.0,-0.0,-0.0,0.1784,0.3348,0.4649,0.7892,0.968,0.9754,1.2901,1.4604,1.4604,1.7812,1.9366,1.9366,1.9366,2.0931,2.3822,2.3822,2.5498,2.8291,2.8291,2.8291,2.8291,2.8291,2.8291,2.8291,2.8291,2.8291,2.8291,2.8291,2.8291,2.8495,2.9807,3.0927,3.1938,3.3773,3.4969,3.5858,3.6263,3.6094,3.5978,3.6663,3.6894,3.727,3.9214,4.0271,4.084,4.0726,4.0711,4.0738,4.0644,4.0631,4.0816,4.1444,4.1609,4.1933,4.3108,4.3306,4.3621,4.4457,4.4587,4.4587,4.4587,4.4384,4.3989,4.341,4.2316,4.1213,4.0378,3.9737,3.9424,3.9424,3.9424,3.9424,3.9424,3.9424,3.9424,3.9424,3.9424,3.887,3.7829,3.8546,3.8308,3.7252,3.7252,3.7252,-0.8811,-0.9031,-0.9475,-1.0708,-1.145,-1.197,-1.2052,-1.0868,-1.0574,-1.346,-1.4074,-1.4068,-1.426,-1.3066,-1.174,-1.0621,-0.9451,-0.8764,-0.8916,-0.885,-0.887,-0.889,-0.8907,-0.6564,-0.0574,-0.0,-0.0,-0.0,0.5424,0.7551,0.4688,0.763,0.9509,0.9608,1.283,1.4599,1.4599,1.7812,1.9366,1.9366,1.9366,2.0931,2.3822,2.3822,2.5388,2.8291,2.8291,2.8291,2.8291,2.8291,2.8291,2.8291,2.8291,2.8291,2.8291,2.8291,2.8291,2.8495,2.9817,3.0317,3.0721,3.3464,3.4385,3.4581,3.5966,3.6358,3.6358,3.6358,3.7243,3.8379,3.9536,3.9745,3.9888,4.1141,4.1384,4.1205,4.0546,4.0397,4.0465,4.0639,4.069,4.1213,4.2986,4.3306,4.3562,4.444,4.4587,4.4587,4.4587,4.3814,4.2645,4.0878,4.069,4.0378,3.9481,3.9424,3.9424,3.9424,3.9424,3.9424,3.9424,3.9424,3.9352,3.9352,3.9337,3.8855,3.7753,3.7753,3.7252,3.6212,3.6212,3.6212,-0.9058,-0.978,-1.0655,-1.1423,-1.205,-1.2445,-1.2662,-1.1652,-1.0851,-1.1298,-1.1581,-1.1685,-1.1578,-1.0458,-0.9495,-0.9246,-0.8894,-0.8764,-0.8916,-0.885,-0.8183,-0.6047,-0.7644,-0.6532,-0.0565,-0.0,-0.0,-0.0,0.161,0.405,0.7407,0.8586,0.9248,0.9449,1.249,1.4205,1.4478,1.7529,1.9158,1.9366,1.9366,2.0371,2.2258,2.3375,2.4939,2.6825,2.7843,2.8291,2.8291,2.8291,2.8291,2.8291,2.8291,2.8291,2.8291,2.8291,2.8291,2.8398,2.8804,2.9503,3.0421,3.1235,3.214,3.3155,3.4569,3.4981,3.5174,3.6156,3.6628,3.715,3.8289,3.9175,4.018,4.1759,4.2073,4.1893,4.1235,4.0726,4.0411,4.0462,4.0126,4.0115,4.128,4.1478,4.1804,4.2645,4.2769,4.2769,4.2769,4.2583,4.1933,4.0811,4.069,4.0378,3.9481,3.9424,3.9424,3.9424,3.9424,3.9424,3.9424,3.8708,3.8308,3.8308,3.7572,3.6618,3.5615,3.6304,3.6146,3.5129,3.5129,3.5129,-0.9619,-1.0534,-1.157,-1.2518,-1.3054,-1.3212,-1.2662,-1.1601,-1.0624,-1.0292,-1.0412,-1.0539,-1.0543,-0.9882,-0.9231,-0.88,-0.876,-0.8832,-0.8927,-0.8856,-0.785,-0.4808,-0.5043,-0.3926,-0.0336,-0.0,-0.0,-0.0,-0.0,0.2044,0.6938,0.8211,0.8974,0.9293,1.1735,1.3427,1.4244,1.6762,1.8421,1.9192,1.9312,1.9815,2.0809,2.2822,2.4599,2.6155,2.7618,2.8291,2.8291,2.8291,2.8291,2.8291,2.8291,2.8291,2.8291,2.8291,2.8291,2.8291,2.8291,2.8804,2.9608,3.012,3.0824,3.1836,3.3773,3.4385,3.4678,3.6061,3.6358,3.6628,3.7756,3.9006,4.0234,4.1726,4.2401,4.2566,4.1908,4.1459,4.1025,4.0502,4.0083,3.9983,4.0615,4.069,4.1013,4.1869,4.1997,4.1853,4.1543,4.1478,4.1147,4.0309,4.017,3.999,3.9409,3.9424,3.9424,3.9424,3.9017,3.8943,3.9352,3.8383,3.7829,3.7829,3.6774,3.5748,3.4664,3.5278,3.5047,3.4037,3.4037,3.4037,-1.0383,-1.127,-1.2225,-1.3714,-1.419,-1.3848,-1.2097,-1.0812,-1.0045,-1.0167,-1.0203,-1.0319,-1.0435,-1.0493,-1.0091,-0.8921,-0.8838,-0.894,-0.894,-0.8866,-0.7753,-0.4808,-0.1791,-0.0,-0.0,-0.0,-0.0,-0.0,-0.0,0.134,0.4359,0.7263,0.9041,0.9133,1.085,1.2416,1.3901,1.5699,1.7326,1.8885,1.9158,1.9285,1.9401,2.2461,2.4599,2.6155,2.7501,2.8067,2.8067,2.8067,2.8184,2.8291,2.8291,2.8291,2.8291,2.8291,2.8291,2.8291,2.8291,2.8291,2.8495,2.9713,3.012,3.0628,3.3365,3.4178,3.4483,3.5966,3.6358,3.6628,3.7678,3.8827,4.0059,4.1169,4.2386,4.3165,4.2581,4.2402,4.2013,4.0816,4.0487,4.048,4.0632,4.06,4.0826,4.1674,4.1739,4.1478,4.069,4.0554,4.0309,3.9481,3.9424,3.9424,3.9424,3.9424,3.9424,3.9424,3.8383,3.8234,3.9192,3.8144,3.7587,3.7663,3.654,3.5507,3.4594,3.4594,3.4037,3.3081,3.3081,3.3081,-1.0383,-1.127,-1.2225,-1.3714,-1.3273,-1.2061,-1.0751,-0.9438,-0.8514,-0.8747,-0.8801,-0.8756,-0.8978,-0.9026,-0.9029,-0.871,-0.8838,-0.894,-0.894,-0.8866,-0.7753,-0.4808,-0.1791,-0.0,-0.0,-0.0,-0.0,-0.0,-0.0,0.1343,0.4359,0.7315,0.8913,0.8988,1.0441,1.2068,1.3775,1.5271,1.6864,1.8584,1.8651,1.8677,1.8803,2.225,2.4599,2.6155,2.649,2.6608,2.6527,2.6608,2.7276,2.8291,2.8291,2.8291,2.8291,2.8291,2.8291,2.8291,2.8291,2.8291,2.8398,2.8591,2.8698,2.9207,3.1938,3.2744,3.3243,3.575,3.6358,3.6452,3.6709,3.7586,3.8827,3.9972,4.1782,4.3284,4.315,4.2716,4.2267,4.1998,4.1115,4.0426,4.048,4.0013,3.9737,3.9935,3.9935,3.9864,3.9666,3.9666,3.961,3.9409,3.9424,3.9424,3.9424,3.9424,3.9424,3.9424,3.8383,3.7904,3.8144,3.6332,3.5762,3.6526,3.4733,3.3628,3.3484,3.3484,3.3313,3.3081,3.3081,3.3081,-1.0414,-1.141,-1.2498,-1.4275,-1.3773,-1.2522,-1.1165,-0.9899,-0.8851,-0.824,-0.8218,-0.8292,-0.8367,-0.8503,-0.8601,-0.8601,-0.873,-0.8828,-0.8828,-0.8823,-0.7753,-0.4808,-0.1791,-0.0,-0.0,-0.0,-0.0,-0.0,-0.0,0.1344,0.4359,0.7296,0.8876,0.894,0.9699,1.1152,1.3436,1.4422,1.5991,1.8277,1.8424,1.8919,1.9669,2.2158,2.4607,2.6877,2.6877,2.699,2.7187,2.7168,2.7618,2.8291,2.8291,2.8291,2.8291,2.8291,2.8291,2.8291,2.8291,2.8291,2.8291,2.8291,2.8291,2.8804,3.1531,3.2331,3.2833,3.5655,3.6358,3.6358,3.6358,3.7243,3.8379,3.9623,4.1267,4.2644,4.317,4.306,4.2746,4.2432,4.1549,4.0771,4.0457,3.9858,3.9424,3.9424,3.9424,3.9424,3.9424,3.9424,3.9424,3.9424,3.9424,3.9424,3.9424,3.9424,3.9177,3.8708,3.7663,3.7021,3.7021,3.5047,3.4415,3.544,3.394,3.3081,3.3081,3.3081,3.3081,3.3081,3.2426,3.2152,-1.0267,-1.1516,-1.2852,-1.483,-1.4578,-1.3437,-1.2226,-1.0877,-0.9608,-0.8233,-0.814,-0.8231,-0.8231,-0.8347,-0.8445,-0.8445,-0.857,-0.8672,-0.8672,-0.8818,-0.7793,-0.4877,-0.189,-0.0,-0.0,-0.0,-0.0,-0.0,-0.0,0.1344,0.4359,0.7296,0.8876,0.894,0.894,1.0351,1.3264,1.3556,1.5085,1.7969,1.8217,1.9069,2.0542,2.1711,2.3754,2.6454,2.6454,2.6652,2.6962,2.7292,2.7515,2.7748,2.8038,2.8184,2.8193,2.8262,2.8291,2.8291,2.8291,2.8291,2.8291,2.8291,2.8291,2.8804,3.1224,3.2129,3.2833,3.5355,3.625,3.6358,3.6358,3.7057,3.8121,3.9271,4.0304,4.142,4.2981,4.3329,4.3165,4.2626,4.1908,4.1175,4.0516,3.9858,3.9424,3.9424,3.9424,3.9424,3.9424,3.9424,3.9424,3.9424,3.9424,3.9424,3.9424,3.9424,3.8943,3.7829,3.6774,3.6119,3.5974,3.4095,3.3556,3.4428,3.3556,3.3081,3.3081,3.3081,3.3081,3.3068,3.1777,3.1223,-0.9272,-1.1049,-1.3138,-1.4629,-1.4295,-1.322,-1.2093,-1.0877,-0.9608,-0.8233,-0.8055,-0.8069,-0.8069,-0.8194,-0.8299,-0.8299,-0.8418,-0.8513,-0.8513,-0.8554,-0.7608,-0.4809,-0.1842,-0.0,-0.0,-0.0,-0.0,-0.0,-0.0,0.1344,0.4359,0.7296,0.8876,0.894,0.894,1.0351,1.3264,1.3295,1.4821,1.7642,1.7682,1.8422,1.9754,1.9962,2.0611,2.1634,2.1634,2.1665,2.1813,2.2996,2.4281,2.5595,2.716,2.7754,2.7793,2.8154,2.8291,2.8291,2.8291,2.8291,2.8291,2.8291,2.8291,2.8601,3.012,3.1429,3.2644,3.4166,3.5463,3.6358,3.6358,3.6546,3.6896,3.803,3.8469,3.942,4.2629,4.3329,4.3314,4.3225,4.2222,4.1175,4.0516,3.9858,3.9424,3.9424,3.9424,3.9424,3.9424,3.9424,3.9424,3.9424,3.9424,3.9424,3.9424,3.9424,3.8943,3.7829,3.6774,3.5814,3.4979,3.3713,3.3154,3.3313,3.3154,3.3081,3.3081,3.3081,3.3081,3.3068,3.1777,3.1223,-0.9593,-1.1216,-1.2812,-1.4142,-1.4359,-1.3817,-1.2078,-1.1371,-1.0485,-0.8432,-0.8038,-0.8038,-0.8038,-0.8096,-0.814,-0.814,-0.8265,-0.8364,-0.8364,-0.8452,-0.7982,-0.692,-0.278,-0.0,-0.0,-0.0,-0.0,-0.0,-0.0,0.056,0.1898,0.6391,0.888,0.885,0.8947,0.9915,1.2077,1.294,1.4776,1.7582,1.7582,1.7891,1.8506,1.8506,1.9574,2.16,2.16,2.2128,2.3165,2.3799,2.4864,2.6172,2.7011,2.7305,2.7353,2.7783,2.7939,2.7978,2.8213,2.8291,2.8291,2.8291,2.8291,2.8601,2.9911,3.1224,3.2632,3.397,3.5379,3.6358,3.6358,3.6358,3.6709,3.8107,3.8289,3.8545,4.0376,4.1587,4.2445,4.2772,4.2327,4.1639,4.0741,4.0337,3.9978,3.9484,3.9424,3.9424,3.9424,3.9424,3.9177,3.8546,3.9031,3.9177,3.8546,3.8472,3.8069,3.6944,3.5908,3.4897,3.3882,3.3313,3.3081,3.3081,3.3081,3.3081,3.3081,3.3081,3.2698,3.2052,3.0765,2.9863,-0.9699,-1.0862,-1.1864,-1.328,-1.4082,-1.4108,-1.2265,-1.1883,-1.1196,-0.9011,-0.8233,-0.8038,-0.8038,-0.8038,-0.8038,-0.8038,-0.8136,-0.8211,-0.8211,-0.8213,-0.8297,-0.8324,-0.3998,-0.0739,-0.0106,-0.0,-0.0,-0.0,-0.0,-0.0,-0.0,0.4914,0.8084,0.886,0.895,0.9588,1.1105,1.294,1.5097,1.7582,1.7582,1.7582,1.7582,1.7582,1.8836,2.1138,2.1138,2.1908,2.3193,2.3825,2.4772,2.5739,2.6492,2.6855,2.6924,2.7471,2.7666,2.7725,2.8144,2.8291,2.8291,2.8291,2.8291,2.8495,2.9513,3.0721,3.2039,3.3464,3.486,3.5966,3.6263,3.6358,3.6722,3.7848,3.7848,3.7939,3.8814,4.0118,4.1374,4.209,4.1868,4.1406,4.1129,4.0545,3.9935,3.9471,3.9151,3.8906,3.8658,3.8775,3.8553,3.7749,3.8384,3.8466,3.7676,3.7519,3.6944,3.5894,3.5129,3.4191,3.3154,3.3081,3.3081,3.3081,3.2797,3.2612,3.2612,3.2612,3.1965,3.0676,2.9487,2.8495,-0.8844,-0.9296,-0.9821,-1.1897,-1.2852,-1.3261,-1.2993,-1.2204,-1.1201,-1.0156,-0.8924,-0.8038,-0.8038,-0.8038,-0.8038,-0.8038,-0.8045,-0.8052,-0.8052,-0.8058,-0.7972,-0.7995,-0.553,-0.2792,-0.0207,-0.0,-0.0,-0.0,-0.0,-0.0,-0.0,0.2991,0.604,0.886,0.895,0.9588,1.1105,1.3906,1.6068,1.7582,1.7582,1.7582,1.7582,1.7582,1.7694,1.7806,1.7806,1.7925,1.8142,2.079,2.1912,2.2249,2.5214,2.6426,2.6523,2.7363,2.7666,2.7725,2.8144,2.8291,2.8291,2.8291,2.8291,2.8291,2.8398,2.9303,3.0721,3.2028,3.3453,3.4775,3.6061,3.6358,3.6452,3.6546,3.6546,3.707,3.9373,3.9899,4.0318,4.1461,4.0294,3.9716,4.1581,4.0022,3.8716,3.9311,3.8603,3.7619,3.667,3.7125,3.7523,3.7437,3.7262,3.719,3.7109,3.6636,3.5814,3.4815,3.4746,3.4191,3.3154,3.3081,3.3081,3.3081,3.1865,3.1311,3.1311,3.1311,3.0676,2.9498,2.8226,2.7683,-0.8437,-0.8958,-0.9495,-1.0862,-1.177,-1.2093,-1.0893,-1.0891,-1.0605,-0.8855,-0.8783,-0.889,-0.812,-0.8038,-0.8038,-0.8038,-0.8038,-0.8038,-0.8038,-0.8038,-0.8048,-0.7969,-0.7202,-0.4879,-0.0406,-0.0,-0.0,-0.0,-0.0,0.0861,0.2799,0.3928,0.5836,0.8849,0.8906,1.0021,1.2512,1.3588,1.5204,1.7582,1.7582,1.7582,1.7582,1.7582,1.7582,1.7582,1.7582,1.8094,1.9013,2.0939,2.2257,2.3194,2.5182,2.5967,2.6045,2.6631,2.7021,2.7305,2.7744,2.8066,2.8291,2.8291,2.8291,2.8291,2.8291,2.9207,3.0618,3.1927,3.3353,3.4678,3.6061,3.6358,3.6358,3.6358,3.6358,3.6628,3.7428,3.8841,3.9986,4.0404,3.9965,3.9798,4.0505,4.1169,4.0593,3.7935,3.7148,3.6949,3.7037,3.7219,3.7203,3.6703,3.6944,3.6825,3.6096,3.5546,3.5047,3.4746,3.4037,3.3471,3.3167,3.3081,3.3081,3.3081,3.1865,3.1223,3.1223,3.0406,2.9407,2.8226,2.7767,2.7125,-0.801,0.0,0.0,-1.014,-1.0775,-1.1067,-1.0585,-1.0653,-1.0351,-0.8836,-0.9452,-0.9867,-0.8807,-0.8689,-0.8531,-0.8038,-0.8038,-0.8038,-0.8038,-0.8038,-0.8045,-0.7959,-0.7979,-0.625,-0.1808,-0.051,-0.0,-0.0,-0.0,0.0846,0.2858,0.4834,0.674,0.8879,0.8832,1.0073,1.2512,1.3048,1.4449,1.6823,1.7364,1.7582,1.7582,1.7582,1.7582,1.7582,1.7582,1.8094,1.9117,2.0939,2.2257,2.3176,2.502,2.5742,2.5791,2.623,2.6562,2.6865,2.7295,2.7627,2.7891,2.8037,2.8086,2.8105,2.8252,2.89,3.0016,3.1825,3.2944,3.4068,3.5953,3.6358,3.6358,3.6358,3.6358,3.6358,3.6358,3.7599,3.8841,3.9183,3.9019,3.9019,3.9724,4.0476,3.9931,3.6896,3.6358,3.6531,3.6987,3.7088,3.6907,3.6404,3.6273,3.5982,3.5323,3.4549,3.4191,3.4191,3.3471,3.3081,3.3081,3.3081,3.2896,3.2426,3.1223,3.0406,2.9943,2.9223,2.8132,2.6945,2.6945,2.6637,0.0,0.0,0.0,0.0,-0.986,-1.0187,-1.2198,-1.1661,-1.0644,-1.0359,-1.0751,-1.0842,-0.9944,-0.9951,-0.9592,-0.8226,-0.8038,-0.8038,-0.8038,-0.8038,-0.8038,-0.8038,-0.7969,-0.6962,-0.4218,-0.1611,-0.0,-0.0,-0.0,-0.0,-0.0,0.5286,0.8518,0.8848,0.8723,0.9421,1.1097,1.2507,1.4019,1.5417,1.6929,1.7582,1.7582,1.7582,1.7582,1.7582,1.7582,1.7582,1.7786,2.0531,2.1752,2.1954,2.4609,2.5742,2.5791,2.6211,2.6377,2.6445,2.6855,2.7002,2.709,2.751,2.7646,2.7725,2.8144,2.8271,2.889,3.152,3.223,3.2833,3.5655,3.6358,3.6358,3.6358,3.6358,3.6358,3.6358,3.6358,3.6696,3.7848,3.715,3.7163,3.9373,3.7861,3.6358,3.6358,3.6358,3.6358,3.6358,3.6358,3.6358,3.6358,3.5378,3.4726,3.4726,3.3709,3.3081,3.3081,3.3081,3.3068,3.3081,3.3068,3.2513,3.1134,3.0045,2.8773,2.7589,2.7589,2.6945,2.5742,2.5752,2.6211,-0.7574,0.0,0.0,0.0,0.0,0.0,0.0,-0.9394,-0.9152,-0.8329,-0.9846,-1.099,-0.9582,-1.0204,-1.0485,-0.9296,-0.8456,-0.8038,-0.8038,-0.8038,-0.8038,-0.8038,-0.7962,-0.6954,-0.4218,-0.1608,-0.0,-0.0,-0.0,-0.0,-0.0,0.3305,0.6205,0.8358,0.8662,0.9474,1.0902,1.2543,1.4019,1.5417,1.6929,1.7582,1.7582,1.7582,1.7582,1.7582,1.7582,1.7582,1.7786,2.0531,2.1752,2.1954,2.4609,2.5742,2.5752,2.5879,2.6113,2.6406,2.6523,2.6758,2.7031,2.7158,2.7197,2.7275,2.7705,2.7842,2.8311,3.0326,3.0813,3.1531,3.4264,3.4981,3.5174,3.6156,3.6358,3.6358,3.6358,3.6056,3.5974,3.6726,3.6628,3.6628,3.7256,3.6803,3.6358,3.6358,3.6358,3.6358,3.6358,3.6358,3.6358,3.6358,3.5378,3.4726,3.4726,3.3709,3.3081,3.3081,3.3081,3.2698,3.1777,3.2612,3.2064,2.9954,2.959,2.8773,2.7589,2.6658,2.6014,2.5742,2.6064,2.6494,0.0,0.0,0.0,0.0,0.0,0.0,-0.898,-0.9108,-0.8948,-0.8288,-1.0049,-1.1288,-1.0109,-1.0733,-1.1117,-1.0072,-0.9063,-0.8304,-0.8011,-0.8038,-0.8038,-0.8038,-0.7959,-0.7363,-0.5837,-0.2211,-0.0,-0.0,-0.0,-0.0,-0.0,0.1525,0.4119,0.8004,0.8282,0.8867,0.9871,1.2056,1.355,1.44,1.6548,1.7582,1.7582,1.7582,1.7582,1.7582,1.7582,1.7582,1.7786,1.993,2.1143,2.1954,2.3998,2.5226,2.5742,2.5742,2.5898,2.6113,2.6113,2.6279,2.6514,2.6699,2.6758,2.6836,2.7266,2.7393,2.7742,2.928,3.0136,3.0985,3.2799,3.3099,3.3227,3.3994,3.4508,3.4915,3.4915,3.54,3.5918,3.6006,3.583,3.5818,3.6282,3.6358,3.6358,3.6358,3.6358,3.6358,3.6358,3.6094,3.5906,3.5906,3.4989,3.4374,3.4374,3.3583,3.3081,3.3081,3.2612,3.1965,3.1223,3.1412,3.0598,2.868,2.868,2.8038,2.6849,2.611,2.5742,2.5752,2.6182,2.6621,-0.8724,-0.8804,0.0,0.0,-0.9365,0.0,-0.9826,-0.9826,-0.9603,-0.925,-1.0529,-1.1488,-1.0912,-1.1197,-1.1282,-1.0488,-0.9463,-0.8662,-0.8024,-0.7991,-0.7997,-0.8014,-0.7932,-0.7955,-0.7985,-0.3519,-0.0403,-0.0,-0.0,-0.0,-0.0,-0.0,0.233,0.7346,0.7869,0.813,0.8459,1.1321,1.279,1.3026,1.5903,1.7443,1.7582,1.7582,1.7582,1.7582,1.7582,1.7582,1.7687,1.8916,2.0231,2.1651,2.3076,2.4402,2.5528,2.5635,2.5742,2.5742,2.5742,2.5742,2.5801,2.6191,2.6318,2.6396,2.6816,2.6943,2.7147,2.8456,2.9622,3.0685,3.1227,3.1113,3.0886,3.1112,3.2034,3.2828,3.2983,3.4506,3.5769,3.5189,3.4807,3.4977,3.5956,3.6157,3.6219,3.6345,3.6358,3.6358,3.6358,3.5381,3.4753,3.484,3.4015,3.3518,3.3518,3.3021,3.2711,3.2711,3.1601,3.0944,3.0765,2.9863,2.8773,2.741,2.74,2.6849,2.5742,2.5742,2.5742,2.5752,2.6032,2.6439,-0.9933,-1.016,-1.0428,-0.9833,0.0,0.0,-0.9292,-0.9385,-0.9434,-0.8566,-0.9519,-1.0309,-0.9843,-1.0145,-1.0358,-1.0034,-0.9027,-0.8212,-0.7715,-0.7685,-0.7729,-0.7841,-0.7862,-0.7919,-0.7962,-0.5832,-0.3112,-0.0201,-0.0,-0.0,-0.0,-0.0,0.151,0.4647,0.6876,0.8084,0.8313,1.0199,1.1812,1.3026,1.4775,1.6403,1.7582,1.7582,1.7582,1.7582,1.7582,1.7582,1.7582,1.7891,1.8812,2.0238,2.2776,2.389,2.4205,2.5323,2.5742,2.5742,2.5742,2.5742,2.5752,2.584,2.5859,2.5947,2.6377,2.6514,2.6682,2.7209,2.7592,2.8096,2.9257,2.9501,2.9883,3.1984,3.259,3.3055,3.4121,3.3441,3.2614,3.2426,3.3477,3.4349,3.4562,3.4839,3.5341,3.6232,3.6358,3.6358,3.6358,3.2954,3.1009,3.2296,3.153,3.0893,3.0893,3.0434,3.0135,3.0135,2.9863,2.9315,2.8319,2.9039,2.8308,2.611,2.611,2.5917,2.5742,2.5742,2.5742,2.5655,2.5265,2.5121,-1.0748,-1.0768,-1.0922,-1.0628,0.0,0.0,0.0,-0.9566,-0.9453,-0.9587,-0.9614,-0.9761,-1.0158,-1.0294,-1.0158,-0.9667,-0.9335,-0.8861,-0.8105,-0.7731,-0.7512,-0.7584,-0.759,-0.7662,-0.7931,-0.7211,-0.4874,-0.0301,-0.0,-0.0,-0.0,-0.0,0.1208,0.3915,0.6606,0.8076,0.8153,0.9713,1.1271,1.2705,1.427,1.5822,1.7368,1.7368,1.7442,1.7582,1.7582,1.7582,1.7582,1.7582,1.7989,1.8812,2.0845,2.2466,2.3791,2.4402,2.5128,2.5742,2.5742,2.5742,2.5742,2.5742,2.5742,2.5781,2.5996,2.6064,2.6152,2.6582,2.6543,2.6516,2.7511,2.7489,2.7641,2.8935,2.9257,2.9395,3.0086,2.9448,2.895,2.9784,3.0618,3.1463,3.2297,3.3205,3.4085,3.4638,3.2687,3.1055,3.1055,2.8986,2.7873,2.8634,2.8969,2.9206,2.9206,2.9357,2.9407,2.9407,2.8866,2.8226,2.7589,2.7579,2.6935,2.5732,2.5742,2.5742,2.5742,2.5742,2.5742,2.5655,2.5034,2.476,0.0,0.0,0.0,0.0,0.0,-1.1022,0.0,0.0,0.0,-1.0581,-0.9987,-0.9619,-1.0568,-1.0548,-1.019,-0.9391,-0.9656,-0.9586,-0.8578,-0.7918,-0.761,-0.7584,-0.7382,-0.75,-0.7977,-0.7904,-0.6,-0.1887,-0.0593,-0.0,-0.0,-0.0,0.1008,0.3112,0.635,0.7975,0.8045,0.9253,1.0637,1.1979,1.3568,1.522,1.6747,1.6959,1.7221,1.7502,1.7502,1.7528,1.7582,1.7582,1.7582,1.7681,1.9124,2.1151,2.3384,2.3583,2.451,2.5742,2.5742,2.5742,2.5742,2.5742,2.5742,2.5742,2.5742,2.5742,2.581,2.6162,2.6006,2.582,2.6172,2.6006,2.5742,2.5742,2.5742,2.5742,2.5742,2.5742,2.61,2.7474,2.7746,2.8287,3.0022,3.15,3.2426,3.2426,2.8577,2.5742,2.5742,2.5742,2.5742,2.5742,2.6924,2.7746,2.7746,2.8297,2.8669,2.8669,2.7767,2.722,2.722,2.6294,2.5742,2.5742,2.5742,2.5742,2.5742,2.5742,2.5742,2.5655,2.4738,2.4262,0.0,0.0,0.0,0.0,-1.2365,0.0,0.0,0.0,-1.0608,-0.9967,0.0,0.0,0.0,0.0,0.0,-0.9302,-0.9292,-0.9175,-0.8482,-0.8216,-0.8222,-0.8422,-0.7496,-0.7225,-0.822,-0.7453,-0.6956,-0.7089,-0.2688,-0.0,-0.0,-0.0,0.0101,0.0402,0.5338,0.7982,0.7969,0.8165,0.9022,1.0672,1.2003,1.354,1.5101,1.6238,1.6921,1.7201,1.7201,1.7341,1.7582,1.7582,1.7582,1.7681,1.9124,2.0538,2.2055,2.3276,2.451,2.5742,2.5742,2.5742,2.5742,2.5742,2.5742,2.5742,2.5742,2.5742,2.5752,2.5791,2.5771,2.5752,2.5801,2.5771,2.5742,2.5742,2.5742,2.5742,2.5742,2.5742,2.5732,2.5917,2.6014,2.6744,2.9131,2.9681,2.9863,2.9863,2.7484,2.5742,2.5742,2.5742,2.5742,2.5742,2.583,2.6014,2.6014,2.611,2.61,2.61,2.6014,2.5927,2.5927,2.5732,2.5742,2.5742,2.5742,2.5742,2.5742,2.5742,2.5742,2.5645,2.3431,2.2548,0.0,0.0,0.0,0.0,0.0,0.0,-1.1029,0.0,-1.0528,0.0,0.0,0.0,0.0,0.0,0.0,0.0,-0.949,0.0,-0.8897,-0.8521,-0.826,-0.8075,-0.7569,-0.7452,-0.7934,-0.7609,-0.7293,-0.7063,-0.4101,-0.1621,-0.0096,-0.0,-0.0,-0.0,0.3718,0.6445,0.7972,0.7952,0.8759,1.0211,1.1495,1.299,1.4518,1.5841,1.6613,1.6901,1.7074,1.7215,1.7341,1.7515,1.7582,1.7687,1.8199,1.9324,2.0538,2.1151,2.2676,2.451,2.451,2.502,2.5742,2.5742,2.5742,2.5742,2.5742,2.5742,2.5742,2.5742,2.5742,2.5742,2.5742,2.5742,2.5742,2.5742,2.5742,2.5742,2.5742,2.5742,2.5742,2.5742,2.5742,2.6014,2.7115,2.721,2.721,2.721,2.638,2.5742,2.5742,2.5742,2.5742,2.5742,2.5742,2.5742,2.5742,2.5742,2.5742,2.5742,2.5742,2.5742,2.5742,2.5742,2.5742,2.5742,2.5742,2.5742,2.5742,2.5742,2.5742,2.5645,2.3184,2.219,-1.3607,0.0,0.0,0.0,0.0,0.0,0.0,0.0,0.0,0.0,0.0,0.0,0.0,0.0,0.0,0.0,0.0,-0.9639,-0.913,-0.8789,-0.8462,0.0,-0.8022,-0.7924,-0.7685,-0.7621,-0.7387,-0.6619,-0.5277,-0.3162,-0.0186,-0.0,-0.0,-0.0,0.1904,0.4524,0.7985,0.7962,0.8439,0.9422,1.0779,1.2124,1.3658,1.5052,1.5803,1.6082,1.6713,1.679,1.6742,1.7271,1.7508,1.7582,1.7582,1.8199,1.9117,1.942,2.1355,2.3692,2.3692,2.4609,2.5742,2.5742,2.5742,2.5742,2.5742,2.5742,2.5742,2.5742,2.5742,2.5742,2.5742,2.5742,2.5742,2.5742,2.5742,2.5742,2.5742,2.5742,2.5742,2.5742,2.5742,2.5742,2.5742,2.5742,2.5742,2.5742,2.5742,2.5742,2.5742,2.5742,2.5742,2.5742,2.5742,2.5742,2.5742,2.5742,2.5742,2.5742,2.5742,2.5742,2.5742,2.5742,2.5742,2.5742,2.5742,2.5528,2.5128,2.5128,2.4922,2.452,2.2758,2.201,0.0,0.0,0.0,-1.2752,0.0,0.0,0.0,0.0,-1.1583,0.0,0.0,0.0,0.0,0.0,0.0,0.0,0.0,0.0,0.0,0.0,0.0,0.0,0.0,-0.8461,-0.7768,-0.7437,-0.7306,-0.7387,-0.6289,-0.4028,-0.0178,-0.0,-0.0,-0.0,0.01,0.2618,0.7922,0.7989,0.7972,0.8072,0.9422,1.0685,1.2052,1.3403,1.4122,1.4469,1.579,1.5908,1.5365,1.6633,1.7328,1.7582,1.7582,1.7582,1.7786,1.9117,2.1355,2.3692,2.3692,2.4609,2.5742,2.5742,2.5742,2.5742,2.5742,2.5742,2.5742,2.5742,2.5742,2.5742,2.5742,2.5742,2.5742,2.5742,2.5742,2.5742,2.5742,2.5742,2.5742,2.5742,2.5742,2.5742,2.5742,2.5742,2.5742,2.5742,2.5742,2.5742,2.5742,2.5742,2.5742,2.5742,2.5742,2.5742,2.5742,2.5742,2.5742,2.5742,2.5742,2.5742,2.5742,2.5742,2.5742,2.5742,2.5742,2.502,2.3791,2.3791,2.3076,2.1853,2.176,2.1865,0.0,0.0,-1.5948,-1.3689,0.0,0.0,0.0,0.0,0.0,0.0,0.0,0.0,0.0,0.0,0.0,0.0,0.0,0.0,0.0,0.0,0.0,0.0,0.0,0.0,-0.8062,-0.7502,-0.7113,-0.7062,-0.6769,-0.5969,-0.4431,-0.1548,-0.0,-0.0,-0.0,0.0905,0.2718,0.5127,0.6845,0.7972,0.9324,1.0194,1.0681,1.2904,1.3925,1.411,1.568,1.6183,1.5989,1.6886,1.7208,1.7315,1.7508,1.7582,1.7687,1.8094,1.942,2.1253,2.3076,2.4609,2.5742,2.5742,2.5742,2.5742,2.5742,2.5742,2.5742,2.5742,2.5742,2.5742,2.5742,2.5742,2.5742,2.5742,2.5742,2.5742,2.5742,2.5742,2.543,2.451,2.5118,2.5742,2.5742,2.5742,2.5742,2.5742,2.5742,2.5742,2.5742,2.5742,2.5333,2.4501,2.4402,2.3998,2.3176,2.3899,2.4716,2.5635,2.5742,2.5742,2.5742,2.5742,2.5323,2.4402,2.4402,2.3692,2.2366,2.2366,2.2156,2.1651,2.0743,2.0403,-1.5369,-1.5784,0.0,-1.4796,-1.3974,0.0,-1.2438,0.0,0.0,0.0,0.0,0.0,0.0,0.0,0.0,0.0,0.0,0.0,0.0,-0.8804,0.0,0.0,0.0,0.0,0.0,-0.7903,-0.7434,-0.7063,-0.7096,-0.6948,-0.6493,-0.3894,-0.1669,-0.0096,-0.0,-0.0,-0.0,0.231,0.5024,0.7979,0.8847,0.9517,1.0096,1.1745,1.2517,1.2624,1.406,1.4783,1.5004,1.596,1.6632,1.7181,1.7468,1.7582,1.7582,1.7582,1.8401,2.0033,2.2776,2.4304,2.502,2.502,2.502,2.4913,2.4402,2.4304,2.4304,2.4304,2.4304,2.4304,2.4304,2.4304,2.4304,2.4304,2.4304,2.4304,2.4304,2.4304,2.3998,2.3176,2.3692,2.4304,2.4304,2.4304,2.4304,2.4304,2.451,2.451,2.3899,2.4097,2.3998,2.3076,2.2976,2.2667,2.1752,2.2165,2.3185,2.4913,2.451,2.4716,2.5635,2.5226,2.4609,2.3692,2.3692,2.2767,2.0939,2.0939,2.0743,2.0231,1.9317,1.8916]},{"header":{"parameterUnit":"m.s-1","parameterCategory":1,"la1":30.6,"la2":29.2853,"lo1":-89.7004,"lo2":-87.6739,"dy":0.0162,"dx":0.0183,"nx":112,"ny":82,"refTime":"2024-07-31T12:00:00:Z","depth":0,"parameterNumber":3,"parameterNumberName":"V-component_of_WINDS"},"data":[0.0,0.0,0.0,0.0,0.0,0.0,0.0,0.0,0.0,0.0,0.0,0.0,0.0,0.0,0.0,0.0,0.0,0.0,0.0,0.0,0.0,0.0,0.0,0.0,0.0,0.0,0.0,0.0,0.0,0.0,0.0,0.0,0.0,0.0,0.0,0.0,0.0,0.0,0.0,0.0,0.0,0.0,0.0,0.0,0.0,0.0,0.0,0.0,0.0,0.0,0.0,0.0,0.0,0.0,0.0,0.0,0.0,0.0,0.0,0.0,0.0,0.0,0.0,0.0,0.0,0.0,0.0,0.0,0.0,0.0,0.0,0.0,0.0,0.0,0.0,0.0,0.0,0.0,0.0,0.0,0.0,0.0,0.0,0.0,0.0,0.0,0.0,0.0,0.0,0.0,0.0,-0.7078,-0.7292,-0.7267,-0.6973,-0.6898,-0.6599,-0.5997,0.0,0.0,0.0,0.0,0.0,0.0,0.0,0.0,0.0,0.0,0.0,0.0,0.0,0.0,0.0,0.0,0.0,0.0,0.0,0.0,0.0,0.0,0.0,0.0,0.0,0.0,0.0,0.0,0.0,0.0,0.0,0.0,0.0,0.0,0.0,0.0,0.0,0.0,0.0,0.0,0.0,0.0,0.0,0.0,0.0,0.0,0.0,0.0,0.0,0.0,0.0,0.0,0.0,0.0,0.0,0.0,0.0,0.0,0.0,0.0,0.0,0.0,0.0,0.0,0.0,0.0,0.0,0.0,0.0,0.0,0.0,0.0,0.0,0.0,0.0,0.0,0.0,0.0,0.0,0.0,0.0,0.0,0.0,0.0,0.0,0.0,0.0,0.0,0.0,0.0,0.0,0.0,0.0,0.0,0.0,0.0,0.0,0.0,0.0,0.0,0.0,0.0,0.0,0.0,-0.5716,-0.6574,-0.7854,-0.8181,-0.7197,-0.6759,-0.6574,-0.658,0.0,0.0,0.0,0.0,0.0,0.0,0.0,0.0,0.0,0.0,0.0,0.0,0.0,0.0,0.0,0.0,0.0,0.0,0.0,0.0,0.0,0.0,0.0,0.0,0.0,0.0,0.0,0.0,0.0,0.0,0.0,0.0,0.0,0.0,0.0,0.0,0.0,0.0,0.0,0.0,0.0,0.0,0.0,0.0,0.0,0.0,0.0,0.0,0.0,0.0,0.0,0.0,0.0,0.0,0.0,0.0,0.0,0.0,0.0,0.0,0.0,0.0,0.0,0.0,0.0,0.0,0.0,0.0,0.0,0.0,0.0,0.0,0.0,0.0,0.0,0.0,0.0,0.0,0.0,0.0,0.0,0.0,0.0,0.0,0.0,0.0,0.0,0.0,0.0,0.0,0.0,0.0,0.0,0.0,0.0,0.0,0.0,0.0,0.0,0.0,0.0,0.0,0.0,-0.761,-0.7639,-0.7445,-0.8276,-0.8452,-0.7228,-0.6807,-0.6623,-0.6695,-0.4592,0.0,0.0,0.0,0.0,0.0,0.0,0.0,0.0,0.0,0.0,0.0,0.0,0.0,0.0,0.0,0.0,0.0,0.0,0.0,0.0,0.0,0.0,0.0,0.0,0.0,0.0,0.0,0.0,0.0,0.0,0.0,0.0,0.0,0.0,0.0,0.0,0.0,0.0,0.0,0.0,0.0,0.0,0.0,0.0,0.0,0.0,0.0,0.0,0.0,0.0,0.0,0.0,0.0,0.0,0.0,0.0,0.0,0.0,0.0,0.0,0.0,0.0,0.0,0.0,0.0,0.0,0.0,0.0,0.0,0.0,0.0,0.0,0.0,0.0,0.0,0.0,0.0,0.0,0.0,0.0,0.0,0.0,0.0,0.0,0.0,0.0,0.0,0.0,0.0,0.0,0.0,0.0,0.0,0.0,0.0,0.0,0.0,0.0,0.0,0.0,0.0,0.0,-0.967,-0.9748,-0.8337,-0.8832,-0.8694,-0.7179,-0.6753,-0.6553,-0.6726,-0.4417,0.0,0.0,0.0,0.0,0.0,0.0,0.0,0.0,0.0,0.0,0.0,0.0,0.0,0.0,0.0,0.0,0.0,0.0,0.0,0.0,0.0,0.0,0.0,0.0,0.0,0.0,0.0,0.0,0.0,0.0,0.0,0.0,0.0,0.0,0.0,0.0,0.0,0.0,0.0,0.0,0.0,0.0,0.0,0.0,0.0,0.0,0.0,0.0,0.0,0.0,0.0,0.0,0.0,0.0,0.0,0.0,0.0,0.0,0.0,0.0,0.0,0.0,0.0,0.0,0.0,0.0,0.0,0.0,0.0,0.0,0.0,0.0,0.0,0.0,0.0,0.0,0.0,0.0,0.0,0.0,0.0,0.0,0.0,0.0,0.0,0.0,0.0,0.0,0.0,0.0,0.0,0.0,0.0,0.0,0.0,0.0,0.0,0.0,0.0,0.0,0.0,0.0,-1.0516,-1.1105,-0.8449,-0.9587,-0.9502,-0.7125,-0.641,-0.6266,-0.6646,-0.445,0.0,0.0,0.0,0.0,0.0,0.0,0.0,0.0,0.0,0.0,0.0,0.0,0.0,0.0,0.0,0.0,0.0,0.0,0.0,0.0,0.0,0.0,0.0,0.0,0.0,0.0,0.0,0.0,0.0,0.0,0.0,0.0,0.0,0.0,0.0,0.0,0.0,0.0,0.0,0.0,0.0,0.0,0.0,0.0,0.0,0.0,0.0,0.0,0.0,0.0,0.0,0.0,0.0,0.0,0.0,0.0,0.0,0.0,0.0,0.0,0.0,0.0,0.0,0.0,0.0,0.0,0.0,0.0,0.0,0.0,0.0,0.0,0.0,0.0,0.0,0.0,0.0,0.0,0.0,0.0,0.0,0.0,0.0,0.0,0.0,0.0,0.0,0.0,0.0,0.0,0.0,0.0,0.0,0.0,0.0,0.0,0.0,0.0,0.0,0.0,0.0,0.0,-1.0627,-1.1077,0.0,-1.001,-0.9579,-0.7111,-0.6546,-0.62,-0.5922,0.0,0.0,0.0,0.0,0.0,0.0,0.0,0.0,0.0,0.0,0.0,0.0,0.0,0.0,0.0,0.0,0.0,0.0,0.0,0.0,0.0,0.0,0.0,0.0,0.0,0.0,0.0,0.0,0.0,0.0,0.0,0.0,0.0,0.0,0.0,0.0,0.0,0.0,0.0,0.0,0.0,0.0,0.0,0.0,0.0,0.0,0.0,0.0,0.0,0.0,0.0,0.0,0.0,0.0,0.0,0.0,0.0,0.0,0.0,0.0,0.0,0.0,0.0,0.0,0.0,0.0,0.0,0.0,0.0,0.0,0.0,0.0,0.0,0.0,0.0,0.0,0.0,0.0,0.0,0.0,0.0,0.0,0.0,0.0,0.0,0.0,0.0,0.0,0.0,0.0,0.0,0.0,0.0,0.0,0.0,0.0,0.0,0.0,0.0,0.0,0.0,0.0,-0.9479,-1.0868,-1.1192,0.0,-1.0263,-0.9556,-0.7041,-0.6488,-0.6046,-0.5563,0.0,0.0,0.0,0.0,0.0,0.0,0.0,0.0,0.0,0.0,0.0,0.0,0.0,0.0,0.0,0.0,0.0,0.0,0.0,0.0,0.0,0.0,0.0,0.0,0.0,0.0,0.0,0.0,0.0,0.0,0.0,0.0,0.0,0.0,0.0,0.0,0.0,0.0,0.0,0.0,0.0,0.0,0.0,0.0,0.0,0.0,0.0,0.0,0.0,0.0,0.0,0.0,0.0,0.0,0.0,0.0,0.0,0.0,0.0,0.0,0.0,0.0,0.0,0.0,0.0,0.0,0.0,0.0,0.0,0.0,0.0,0.0,0.0,0.0,0.0,0.0,0.0,0.0,0.0,0.0,0.0,0.0,0.0,0.0,0.0,0.0,0.0,0.0,0.0,0.0,0.0,0.0,0.0,0.0,0.0,0.0,0.0,0.0,0.0,0.0,0.0,0.0,-0.9539,-1.1216,-1.1601,-0.9903,-1.0263,-0.9582,-0.6888,-0.6149,-0.5772,0.0,0.0,0.0,0.0,0.0,0.0,0.0,0.0,0.0,0.0,0.0,0.0,0.0,0.0,0.0,0.0,0.0,0.0,0.0,0.0,0.0,0.0,0.0,0.0,0.0,0.0,0.0,0.0,0.0,0.0,0.0,0.0,0.0,0.0,0.0,0.0,0.0,0.0,0.0,0.0,0.0,0.0,0.0,0.0,0.0,0.0,0.0,0.0,0.0,0.0,0.0,0.0,0.0,0.0,0.0,0.0,0.0,0.0,0.0,0.0,0.0,0.0,0.0,0.0,0.0,0.0,0.0,0.0,0.0,0.0,0.0,0.0,0.0,0.0,0.0,0.0,0.0,0.0,0.0,0.0,0.0,0.0,0.0,0.0,0.0,0.0,0.0,0.0,0.0,0.0,0.0,0.0,0.0,0.0,0.0,0.0,0.0,0.0,0.0,0.0,0.0,0.0,0.0,-0.9813,-1.1343,-1.1601,-0.9903,-1.0263,-0.9582,-0.6888,-0.6346,-0.5929,-0.5359,0.0,0.0,0.0,0.0,0.0,0.0,0.0,0.0,0.0,0.0,0.0,0.0,0.0,0.0,0.0,0.0,0.0,0.0,0.0,0.0,0.0,0.0,0.0,0.0,0.0,0.0,0.0,0.0,0.0,0.0,0.0,0.0,0.0,0.0,0.0,0.0,0.0,0.0,0.0,0.0,0.0,0.0,0.0,0.0,0.0,0.0,0.0,0.0,0.0,0.0,0.0,0.0,0.0,0.0,0.0,0.0,0.0,0.0,0.0,0.0,0.0,0.0,0.0,0.0,0.0,0.0,0.0,0.0,0.0,0.0,0.0,0.0,0.0,0.0,0.0,0.0,0.0,0.0,0.0,0.0,0.0,0.0,0.0,0.0,0.0,0.0,0.0,0.0,0.0,0.0,0.0,0.0,0.0,0.0,0.0,0.0,0.0,0.0,0.0,0.0,0.0,0.0,-1.0107,-1.157,-1.1845,-1.0116,-1.0314,-0.9582,-0.6888,-0.6481,-0.604,-0.5262,0.0,0.0,0.0,0.0,0.0,0.0,0.0,0.0,0.0,0.0,0.0,0.0,0.0,0.0,0.0,0.0,0.0,0.0,0.0,0.0,0.0,0.0,0.0,0.0,0.0,0.0,0.0,0.0,0.0,0.0,0.0,0.0,0.0,0.0,0.0,0.0,0.0,0.0,0.0,0.0,0.0,0.0,0.0,0.0,0.0,0.0,0.0,0.0,0.0,0.0,0.0,0.0,0.0,0.0,0.0,0.0,0.0,0.0,0.0,0.0,0.0,0.0,0.0,0.0,0.0,0.0,0.0,0.0,0.0,0.0,0.0,0.0,0.0,0.0,0.0,0.0,0.0,0.0,0.0,0.0,0.0,0.0,0.0,0.0,0.0,0.0,0.0,0.0,0.0,0.0,0.0,0.0,0.0,0.0,0.0,0.0,0.0,0.0,0.0,0.0,0.0,0.0,-1.0345,-1.1779,-1.2017,-1.0403,-1.0308,-0.9411,-0.6888,-0.6559,-0.6177,-0.5424,0.0,0.0,0.0,0.0,0.0,0.0,0.0,0.0,0.0,0.0,0.0,0.0,0.0,0.0,0.0,0.0,0.0,0.0,0.0,0.0,0.0,0.0,0.0,0.0,0.0,0.0,0.0,0.0,0.0,0.0,0.0,0.0,0.0,0.0,0.0,0.0,0.0,0.0,0.0,0.0,0.0,0.0,0.0,0.0,0.0,0.0,0.0,0.0,0.0,0.0,0.0,0.0,0.0,0.0,0.0,0.0,0.0,0.0,0.0,0.0,-2.3642,-2.1529,0.0,0.0,0.0,0.0,0.0,0.0,0.0,0.0,0.0,0.0,0.0,0.0,0.0,0.0,0.0,0.0,0.0,0.0,0.0,0.0,0.0,0.0,0.0,0.0,0.0,0.0,0.0,0.0,0.0,0.0,0.0,0.0,0.0,0.0,0.0,0.0,0.0,0.0,0.0,0.0,-0.9891,-1.0797,-1.1061,-1.0315,-0.9633,-0.8566,-0.6805,-0.6559,-0.6218,-0.5432,-0.4965,0.0,0.0,0.0,0.0,0.0,0.0,0.0,0.0,0.0,0.0,0.0,0.0,0.0,0.0,0.0,0.0,0.0,0.0,0.0,0.0,0.0,0.0,0.0,0.0,0.0,0.0,0.0,0.0,0.0,0.0,0.0,0.0,0.0,0.0,0.0,0.0,0.0,0.0,0.0,0.0,0.0,0.0,0.0,0.0,0.0,0.0,0.0,0.0,0.0,0.0,0.0,0.0,0.0,0.0,0.0,0.0,0.0,0.0,0.0,-2.8265,-2.635,0.0,0.0,0.0,0.0,0.0,0.0,0.0,0.0,0.0,0.0,0.0,0.0,0.0,0.0,0.0,0.0,0.0,0.0,0.0,0.0,0.0,0.0,0.0,0.0,0.0,0.0,0.0,0.0,0.0,0.0,0.0,0.0,0.0,0.0,0.0,0.0,0.0,0.0,0.0,0.0,-1.0454,-1.0947,-1.0997,-1.0478,-0.952,-0.8311,-0.6809,-0.6627,-0.6295,-0.5616,-0.5291,0.0,0.0,0.0,0.0,0.0,0.0,0.0,0.0,0.0,0.0,0.0,0.0,0.0,0.0,0.0,0.0,0.0,0.0,0.0,0.0,0.0,0.0,0.0,0.0,0.0,0.0,0.0,0.0,0.0,0.0,0.0,0.0,0.0,0.0,0.0,0.0,0.0,0.0,0.0,0.0,0.0,0.0,0.0,0.0,0.0,0.0,0.0,0.0,0.0,0.0,0.0,0.0,0.0,-3.4302,-3.5073,-3.5073,-3.4827,-3.5162,-3.5754,-3.3086,-3.1942,-3.1712,-2.8633,0.0,0.0,0.0,0.0,0.0,0.0,0.0,0.0,0.0,0.0,0.0,0.0,0.0,0.0,0.0,0.0,0.0,0.0,0.0,0.0,0.0,0.0,-2.4652,-2.4432,-2.4749,-2.3958,-1.9892,0.0,0.0,0.0,0.0,0.0,0.0,0.0,0.0,0.0,0.0,0.0,-1.1178,-1.1329,-1.1073,-1.0651,-0.9405,-0.8064,-0.6846,-0.6715,-0.6464,-0.5915,-0.5603,-0.526,0.0,0.0,0.0,0.0,0.0,0.0,0.0,0.0,0.0,0.0,0.0,0.0,0.0,0.0,0.0,0.0,0.0,0.0,0.0,0.0,0.0,0.0,0.0,0.0,0.0,0.0,0.0,0.0,0.0,0.0,0.0,0.0,-2.1146,-2.2117,0.0,0.0,0.0,0.0,0.0,0.0,0.0,0.0,0.0,0.0,0.0,0.0,0.0,-3.208,-3.4358,-3.5965,-3.7095,-3.7771,-3.9386,-4.0157,-4.0157,-4.0107,-3.9878,-3.9499,-3.9083,0.0,-3.4109,-3.2907,0.0,0.0,0.0,0.0,0.0,0.0,0.0,0.0,0.0,0.0,0.0,0.0,0.0,0.0,0.0,0.0,0.0,0.0,0.0,0.0,0.0,0.0,-2.8958,-2.7769,-2.7324,-2.6733,-2.5163,-2.1592,-1.8026,-1.5647,-1.4037,-1.218,0.0,0.0,0.0,0.0,0.0,0.0,-1.1112,-1.0761,-1.0417,-1.0585,-0.8619,-0.725,-0.6912,-0.6776,-0.6559,-0.622,-0.5911,-0.5661,-0.5477,-0.5071,0.0,0.0,0.0,0.0,0.0,0.0,0.0,0.0,0.0,0.0,0.0,0.0,0.0,0.0,0.0,0.0,0.0,0.0,0.0,0.0,0.0,0.0,0.0,0.0,0.0,0.0,0.0,0.0,0.0,-2.0989,-2.3842,-2.3608,-2.4879,-2.5024,0.0,0.0,0.0,0.0,0.0,0.0,0.0,0.0,0.0,-3.4922,-3.5883,-3.693,-3.8116,-3.9674,-4.056,-4.0744,-4.1901,-4.2451,-4.2451,-4.2451,-4.212,-4.1591,-4.1591,-4.0488,-3.8417,-3.5634,-3.358,-3.1978,0.0,0.0,0.0,0.0,-3.126,-3.2101,-3.4181,-3.4429,-3.3731,-3.3436,0.0,0.0,0.0,0.0,0.0,0.0,0.0,-2.786,-2.8793,-2.9574,-3.0054,-2.9673,-2.9102,-2.8144,-2.6596,-2.4402,-2.1839,-1.8663,-1.6673,-1.46,-1.1548,-1.0641,0.0,0.0,0.0,-1.0918,-1.1109,-1.0589,-1.003,-0.9643,-0.8097,-0.7082,-0.6943,-0.679,-0.661,-0.6393,-0.6095,-0.6117,-0.6622,-0.6281,-0.62,0.0,0.0,0.0,0.0,0.0,0.0,0.0,0.0,0.0,0.0,0.0,0.0,0.0,0.0,0.0,0.0,0.0,0.0,0.0,0.0,0.0,0.0,0.0,0.0,0.0,0.0,0.0,0.0,-2.387,-2.6285,-2.5505,-2.7926,-2.8621,0.0,0.0,0.0,0.0,0.0,0.0,-3.4091,-3.5665,-3.7166,-3.8578,-3.9896,-4.076,-4.113,-4.2353,-4.2857,-4.2598,-4.3204,-4.3497,-4.3497,-4.3375,-4.2995,-4.248,-4.2302,-4.1913,-4.1112,-3.7749,-3.6155,-3.5661,-3.3395,-3.302,-3.3863,-3.4781,-3.5385,-3.6091,-3.8576,-3.9077,-3.8558,-3.8072,-3.657,-3.4422,-3.1795,0.0,0.0,0.0,0.0,-3.025,-3.2002,-3.147,-3.0573,-3.0946,-3.0274,-2.901,-2.7091,-2.6141,-2.4646,-2.1241,-1.924,-1.7043,-1.3796,-1.2821,0.0,0.0,0.0,-1.1313,-1.1204,-1.0455,-0.9586,-0.896,-0.7841,-0.7099,-0.6993,-0.681,-0.6651,-0.6536,-0.6254,-0.6532,-0.7567,-0.733,-0.7518,-0.8064,0.0,0.0,0.0,0.0,0.0,0.0,0.0,0.0,0.0,0.0,0.0,0.0,0.0,0.0,0.0,0.0,0.0,0.0,0.0,0.0,0.0,0.0,0.0,0.0,0.0,0.0,0.0,0.0,0.0,-2.8967,-3.2038,0.0,0.0,0.0,0.0,-3.2641,-3.4949,-3.7127,-3.8858,-3.9182,-4.0424,-4.2913,-4.2451,-4.2555,-4.333,-4.3422,-4.3458,-4.3424,-4.3461,-4.3497,-4.3479,-4.2976,-4.2422,-4.1793,-4.1223,-4.0703,-4.0118,-3.946,-3.8912,-3.8339,-3.6696,-3.6067,-3.6253,-3.7032,-3.7954,-3.8923,-3.9842,-3.9387,-3.8652,-3.9969,-3.8216,-3.5416,-3.4541,-3.3228,0.0,0.0,-3.321,-3.343,-3.4332,-3.304,-3.1516,-3.1571,-3.0645,-2.9297,-2.7627,-2.647,-2.5171,-2.2953,-2.1408,-1.9474,-1.6373,0.0,-1.4,-1.2415,-1.1539,-1.1233,-1.1752,-1.0198,-0.8969,-0.889,-0.7841,-0.7136,-0.7129,-0.6865,-0.6698,-0.6688,-0.6413,-0.6703,-0.777,-0.7575,-0.7789,-0.84,-0.7636,0.0,0.0,0.0,0.0,0.0,0.0,0.0,0.0,0.0,0.0,0.0,0.0,0.0,0.0,0.0,0.0,0.0,0.0,0.0,0.0,0.0,0.0,0.0,0.0,0.0,0.0,0.0,0.0,-3.2378,-3.5592,0.0,-3.468,-3.6334,-3.7623,-3.7777,-3.9142,-4.0636,-4.2126,-4.2451,-4.3071,-4.4089,-4.4402,-4.4568,-4.4596,-4.4886,-4.5039,-4.5039,-4.5039,-4.5039,-4.5039,-4.4445,-4.3829,-4.3218,-4.2126,-4.1332,-4.0764,-4.0138,-3.9957,-3.9991,-3.911,-3.9209,-3.9824,-3.9738,-4.0157,-4.0833,-4.1118,-4.0966,-4.0589,-4.0601,-3.9547,-3.815,-3.7394,-3.6563,-3.5942,-3.6208,-3.5918,-3.549,-3.5141,-3.3607,-3.2064,-3.1505,-3.0553,-2.9238,-2.7232,-2.6529,-2.5612,-2.3408,-2.1491,-1.945,-1.7081,-1.61,-1.5031,-1.3358,-1.2413,-1.1706,-1.1446,-0.996,-0.8627,-0.7841,-0.7316,-0.7139,-0.7139,-0.6868,-0.6658,-0.6559,-0.6806,-0.7393,-0.8292,-0.8781,-0.9361,-1.0049,-0.9631,-0.8864,0.0,0.0,0.0,0.0,0.0,0.0,0.0,0.0,0.0,0.0,0.0,0.0,0.0,0.0,0.0,0.0,0.0,0.0,0.0,0.0,0.0,0.0,0.0,0.0,0.0,-3.2493,-3.5175,-3.5507,-3.8714,-4.0134,-3.8161,-3.9854,-4.1258,-4.1739,-4.2585,-4.3478,-4.4364,-4.4768,-4.5031,-4.5179,-4.5885,-4.6055,-4.5637,-4.5938,-4.6044,-4.5902,-4.5902,-4.581,-4.5586,-4.4962,-4.4351,-4.3746,-4.2656,-4.1937,-4.1525,-4.1035,-4.1035,-4.128,-4.0441,-4.0546,-4.1196,-4.0797,-4.1013,-4.149,-4.149,-4.149,-4.1358,-4.0647,-4.0193,-3.9782,-3.9284,-3.8676,-3.8238,-3.819,-3.7422,-3.6413,-3.5468,-3.3897,-3.2393,-3.1389,-3.0482,-2.9209,-2.6976,-2.6483,-2.5819,-2.356,-2.1577,-1.9729,-1.8068,-1.6983,-1.5605,-1.3698,-1.2573,-1.1596,-1.0585,-0.9272,-0.8105,-0.7307,-0.7173,-0.7139,-0.7139,-0.6868,-0.6819,-0.7035,-0.7334,-0.8015,-0.9172,-0.9642,-1.0202,-1.0855,-1.0461,-0.988,-0.9098,0.0,0.0,0.0,0.0,0.0,0.0,0.0,0.0,0.0,0.0,0.0,0.0,0.0,0.0,0.0,0.0,0.0,0.0,0.0,0.0,0.0,0.0,0.0,-3.3463,-3.6327,-3.8411,-3.8403,-4.1388,-4.2736,-4.0835,-4.3011,-4.4472,-4.4355,-4.5143,-4.5624,-4.5624,-4.6106,-4.6358,-4.6358,-4.6872,-4.6958,-4.6557,-4.6563,-4.6357,-4.5975,-4.5975,-4.5659,-4.5052,-4.4466,-4.3834,-4.3212,-4.2619,-4.232,-4.232,-4.2303,-4.2286,-4.2151,-4.0713,-4.0121,-4.0104,-4.0104,-4.0434,-4.0874,-4.0874,-4.0874,-4.078,-4.0237,-4.007,-4.007,-4.002,-3.9489,-3.8854,-3.8854,-3.7758,-3.6384,-3.5398,-3.3897,-3.2393,-3.1389,-3.0482,-2.9209,-2.6976,-2.6483,-2.5808,-2.3464,-2.1714,-2.0298,-1.9331,-1.7713,-1.5725,-1.3399,-1.2027,0.0,-0.9444,-0.8199,-0.7377,-0.737,-0.7238,-0.7146,-0.7139,-0.6868,-0.7105,-0.816,-0.7973,-0.8581,-1.0341,-1.0084,-1.0202,-1.0615,-1.0033,-0.9733,-0.9726,0.0,0.0,0.0,0.0,0.0,0.0,0.0,0.0,0.0,0.0,0.0,0.0,0.0,0.0,0.0,0.0,0.0,0.0,0.0,0.0,0.0,-3.4614,-3.699,-3.7003,-3.9331,-4.1468,-4.2624,-4.4163,-4.4891,-4.4259,-4.4855,-4.5278,-4.524,-4.6047,-4.6547,-4.6547,-4.7223,-4.7607,-4.7607,-4.7802,-4.7844,-4.7709,-4.7779,-4.7739,-4.7645,-4.7645,-4.732,-4.6735,-4.6069,-4.5431,-4.4802,-4.3625,-4.3115,-4.3064,-4.2523,-4.2286,-4.2252,-4.1847,-4.1356,-4.0899,-4.0899,-4.0629,-4.0336,-4.0336,-4.0336,-4.022,-3.9473,-3.9262,-3.9139,-3.8596,-3.8262,-3.7962,-3.7424,-3.6948,-3.6073,-3.3912,-3.2989,-3.2177,-3.0558,-3.0011,-2.9209,-2.6976,-2.6483,-2.5535,-2.2444,-2.0766,-1.9709,-1.9438,-1.7544,-1.5465,-1.3856,-1.2471,-1.114,-0.9828,-0.846,-0.7495,-0.7383,-0.7333,-0.7261,-0.7149,-0.6868,-0.7058,-0.7973,-0.8169,-0.8918,-1.0485,-1.0804,-1.1168,-1.151,-1.1136,-1.0842,0.0,0.0,0.0,0.0,0.0,0.0,0.0,0.0,0.0,0.0,0.0,0.0,0.0,0.0,0.0,0.0,0.0,0.0,0.0,0.0,0.0,0.0,-3.8603,-4.0734,-4.1104,-4.2323,-4.3647,-4.4943,-4.551,-4.5757,-4.5605,-4.5932,-4.6144,-4.6144,-4.6932,-4.7319,-4.7163,-4.7949,-4.8307,-4.8159,-4.8526,-4.8662,-4.8483,-4.8537,-4.8458,-4.8306,-4.8306,-4.7838,-4.6955,-4.6571,-4.5915,-4.5072,-4.4228,-4.391,-4.3876,-4.3436,-4.325,-4.3183,0.0,0.0,0.0,0.0,-4.0933,-4.0442,-3.9831,-3.961,-3.9489,-3.869,-3.8414,-3.8358,-3.7921,-3.7573,-3.7144,-3.623,-3.5806,-3.4955,-3.265,-3.2033,-3.1609,-3.0139,-2.9456,-2.8609,-2.6883,-2.5692,-2.4299,-2.1817,-1.9943,0.0,-1.8772,-1.7117,-1.5146,-1.3301,-1.2315,-1.1082,-0.9255,-0.8254,-0.7655,-0.7563,-0.7502,-0.7404,-0.7251,-0.7021,0.0,0.0,0.0,-0.9739,-1.1247,-1.1481,0.0,0.0,0.0,0.0,0.0,0.0,0.0,0.0,-0.826,-0.7557,0.0,0.0,0.0,0.0,0.0,0.0,0.0,0.0,0.0,0.0,0.0,0.0,0.0,0.0,0.0,0.0,-4.2186,-4.4071,-4.5012,-4.4967,-4.5109,-4.5815,-4.5834,-4.5776,-4.574,-4.6451,-4.6951,-4.7028,-4.7798,-4.8086,-4.7666,-4.8467,0.0,0.0,0.0,-4.9265,-4.8897,-4.8863,-4.8657,-4.8306,-4.8306,-4.7656,-4.6524,-4.643,-4.5783,-4.472,-4.4626,-4.4587,-4.4587,-4.4587,-4.4587,-4.4434,-4.298,-4.2422,-4.232,-4.1593,-4.127,-4.0995,-3.962,0.0,0.0,-3.8033,-3.7695,-3.7632,-3.7589,-3.6964,-3.6136,-3.5284,-3.4478,-3.3449,-3.1669,-3.118,-3.097,-2.9998,-2.8937,-2.7844,-2.6719,-2.4639,-2.265,-2.1373,-1.9222,-1.7692,-1.7505,-1.6473,-1.4758,-1.2237,-1.175,-1.0774,-0.8333,-0.7919,-0.7831,-0.7814,-0.7699,0.0,-0.7411,-0.7327,-0.8119,-1.008,-1.0269,-1.0903,-1.235,-1.2218,-1.2238,-1.2498,-1.2505,-1.2786,-1.336,-1.3881,-1.3581,-1.2403,-0.991,-0.9018,0.0,0.0,0.0,0.0,0.0,0.0,0.0,0.0,0.0,0.0,0.0,0.0,0.0,0.0,0.0,-4.151,-4.3455,-4.5037,-4.5916,-4.5831,-4.5723,-4.5868,-4.5757,-4.5893,-4.6586,-4.6797,-4.7182,-4.7817,-4.8663,-4.8969,-4.8567,-4.9387,-4.9676,-4.9258,-4.9096,-4.8996,-4.8897,-4.8568,-4.8364,-4.8306,-4.8306,0.0,-4.7194,-4.6664,-4.6014,-4.5267,-4.4814,-4.4587,-4.4587,-4.4587,-4.4587,-4.4485,-4.3572,-4.32,-4.3115,-4.2354,-4.1657,-4.0981,-4.072,-3.9821,-3.8713,-3.7916,-3.7296,-3.6737,-3.6133,-3.5255,0.0,-3.4254,-3.3573,-3.2593,-3.1462,-3.118,-3.097,-2.9998,-2.8937,-2.7844,-2.6719,-2.4639,-2.2378,-2.0288,-1.8688,-1.7412,-1.6386,-1.5134,-1.3686,-1.2139,-1.1072,-0.9801,-0.8237,-0.8014,-0.7946,-0.7824,-0.7787,-0.7712,-0.7567,-0.8196,-0.9043,-1.0302,-1.1945,-1.2904,-1.3046,-1.3434,-1.3681,-1.3741,-1.3741,-1.3915,-1.4269,-1.4382,-1.4442,-1.4337,-1.1926,-1.0236,0.0,0.0,0.0,0.0,0.0,0.0,0.0,0.0,0.0,0.0,0.0,-3.6214,-3.8067,0.0,-4.2266,-4.402,-4.5063,-4.5801,-4.623,-4.6075,-4.5897,-4.5905,-4.5719,-4.5932,-4.6817,-4.7259,-4.7855,-4.8682,-4.9548,-4.9789,-4.9174,-4.9572,-4.9532,-4.8915,-4.9154,-4.9251,-4.9251,-4.9432,-4.9554,-4.9554,-4.9132,-4.8475,-4.75,-4.6749,-4.5933,-4.5052,-4.472,-4.4587,-4.4587,-4.4587,-4.4587,-4.4536,-4.4147,-4.3995,-4.3855,-4.2657,-4.1946,-4.1419,-4.0196,-3.9311,-3.8545,-3.741,-3.6831,-3.6447,-3.5709,-3.4773,-3.3876,-3.3449,-3.2593,-3.1669,-3.0771,-3.0482,-3.0254,-2.9172,-2.8108,-2.7035,-2.588,-2.3345,-2.0891,-1.9761,-1.8033,-1.6574,-1.592,-1.4752,-1.3392,-1.2139,-1.1361,-1.019,-0.8237,-0.8038,-0.8011,-0.7933,-0.7926,-0.8153,-0.8661,-1.0145,-1.1311,-1.1755,-1.3411,-1.4242,-1.4095,-1.4369,-1.4522,-1.4522,-1.4522,-1.4596,-1.4743,-1.4883,-1.5037,-1.5184,-1.3438,-1.1765,0.0,0.0,0.0,0.0,0.0,0.0,0.0,0.0,-3.4116,-3.7448,-3.8826,-4.0138,-4.2374,-4.3509,-4.4606,-4.6051,-4.6308,-4.6308,-4.6308,-4.6075,-4.5897,-4.5905,-4.5719,-4.599,-4.7028,-4.7721,-4.8529,-4.9567,-5.0298,-5.0336,-4.9532,-4.9655,-4.9351,-4.8565,-4.937,-4.9811,-4.9811,-5.0472,-5.0802,-5.0802,-5.0141,-4.9289,-4.8293,-4.7335,-4.632,-4.5388,-4.5009,-4.479,-4.479,-4.4637,-4.4587,-4.4587,-4.4587,-4.4514,-4.4186,-4.2883,-4.2222,-4.1642,-3.9689,-3.8805,-3.8341,-3.7203,-3.6776,-3.6537,-3.5666,-3.4733,-3.3675,-3.2635,-3.1683,-3.0758,-2.9998,-2.9792,-2.9534,-2.8347,-2.7279,-2.6224,-2.5041,-2.2054,-1.9497,-1.9497,-1.7483,-1.5832,-1.5832,-1.4949,-1.3686,-1.2139,-1.1658,-1.0681,-0.8333,-0.8233,-0.8432,-0.8432,-0.8432,-0.8852,-1.0014,-1.2003,-1.3356,-1.3495,-1.4501,-1.4963,-1.4963,-1.4963,-1.499,-1.505,-1.505,-1.5077,-1.5137,-1.5364,-1.5478,-1.5484,-1.4652,-1.3475,-2.6972,-2.9169,-3.1235,-3.3058,-3.3641,-3.5161,0.0,0.0,-3.9219,-4.195,-4.3272,-4.4085,-4.4442,-4.5327,-4.6052,-4.6269,-4.6308,-4.6308,-4.6308,-4.6075,-4.5897,-4.5905,-4.5719,-4.622,-4.7817,-4.8048,-4.8779,-5.0433,-5.0625,-5.0336,-4.9532,-5.0172,-5.0193,-4.9391,-5.0215,-5.0674,-5.0674,-5.0765,-5.0802,-5.0802,-5.071,-5.0574,-5.0415,-4.9102,-4.847,-4.8234,-4.6409,-4.5585,-4.5534,-4.4857,-4.4587,-4.4587,-4.4587,-4.4138,-4.3426,-4.3207,-4.2203,-4.0821,-4.0557,-3.9543,-3.8397,-3.8267,-3.7778,-3.7029,-3.5496,-3.4427,-3.3284,-3.1817,-3.0696,-2.9934,-2.9869,-2.9792,-2.9534,-2.8347,-2.7279,-2.6224,-2.5041,-2.2054,-1.9497,-1.9497,-1.7483,-1.5832,-1.5832,-1.5635,-1.4758,-1.2237,-1.0974,-0.9706,-0.8237,-0.9019,-0.9805,-0.9805,-0.9805,-1.021,-1.1238,-1.2609,-1.3817,-1.4701,-1.4963,-1.4963,-1.4963,-1.4963,-1.5084,-1.5344,-1.5351,-1.5478,-1.5732,-1.5765,-1.5785,-1.5778,-1.5622,-1.4835,-3.1729,-3.343,-3.4609,-3.6675,-3.8277,-3.9892,-4.1893,-4.1912,-4.2124,-4.4278,-4.5075,-4.5442,-4.554,-4.5957,-4.6465,0.0,-4.7051,-4.7051,-4.7051,-4.6894,-4.6568,-4.5962,-4.5796,-4.6336,-4.7952,-4.8105,-4.8817,-5.0567,-5.0483,-5.0302,-5.0183,-5.0316,-5.0315,-5.0273,-5.1059,-5.1499,-5.1499,-5.1958,-5.2215,-5.2197,-5.172,-5.1279,-5.0889,-4.9436,-4.838,-4.7579,-4.672,-4.6346,-4.6278,-4.5534,-4.5229,-4.5196,-4.4756,-4.3739,-4.252,-4.252,-4.1739,-4.0622,-4.0115,-3.9541,-3.8931,-3.8527,-3.7816,-3.6864,-3.5798,-3.4161,-3.2501,-3.1885,-3.0739,-2.9792,-2.9792,-2.9287,-2.853,-2.7452,-2.6295,-2.521,-2.4049,-2.1551,-1.9497,-1.9497,-1.7483,-1.5832,-1.5832,-1.5832,-1.5146,-1.3301,-1.2619,-1.1745,-1.0485,-1.0779,-1.1072,-1.1072,-1.1843,-1.248,-1.2857,-1.4099,-1.5016,-1.5478,-1.5471,-1.5471,-1.5471,-1.5471,-1.5524,-1.5645,-1.5651,-1.5705,-1.5832,-1.5832,-1.5832,-1.5832,-1.5832,-1.5534,-3.4484,-3.6254,-3.7661,-3.9522,-4.172,-4.3335,-4.2951,-4.3335,-4.4162,-4.5468,-4.5815,-4.5907,-4.5997,-4.6147,-4.6523,-4.7402,-4.7578,-4.7598,-4.7598,-4.7471,-4.7047,-4.6075,-4.5853,-4.6334,-4.7681,-4.7971,-4.8721,-5.0221,-5.0498,-5.0634,-5.0692,-5.0871,-5.1007,-5.1154,-5.1903,-5.2325,-5.2325,-5.2913,-5.3206,-5.3206,-5.2619,-5.1955,-5.1274,-4.982,-4.8514,-4.7394,-4.7192,-4.7107,-4.7056,-4.6312,-4.5889,-4.5652,-4.4832,-4.3515,-4.1997,-4.1739,-4.108,-4.0239,-3.961,-3.9424,-3.9334,-3.8841,-3.8132,-3.7317,-3.6096,-3.445,-3.2754,-3.1849,-3.0816,-2.998,-2.9829,-2.8937,-2.7844,-2.6719,-2.563,-2.4457,-2.3387,-2.1489,-1.9943,-1.9579,-1.7755,-1.6204,-1.5825,-1.5832,-1.5534,-1.4561,-1.4459,-1.3782,-1.2139,-1.2237,-1.2425,-1.2425,-1.359,-1.4268,-1.3974,-1.5045,-1.5832,-1.5832,-1.5832,-1.5832,-1.5832,-1.5832,-1.5832,-1.5832,-1.5832,-1.5832,-1.5832,-1.5832,-1.5832,-1.5832,-1.5832,-1.5635,-3.3883,-3.6711,-4.0272,-4.144,-4.3008,-4.447,-4.5297,-4.5509,-4.5528,-4.5586,-4.5719,-4.5803,-4.5808,-4.5972,-4.6387,-4.7266,-4.7519,-4.7598,-4.7598,-4.748,-4.7084,-4.6185,-4.593,-4.6123,-4.6966,-4.7681,-4.8471,-4.9375,-5.0913,-5.1499,-5.073,-5.2246,-5.2757,-5.1981,-5.2747,-5.317,-5.317,-5.3206,-5.3206,-5.3206,-5.3188,-5.2795,-5.2011,-5.0592,-4.9612,-4.89,-4.8189,-4.7885,-4.7834,-4.7073,-4.6346,-4.5628,-4.4726,-4.3434,-4.1933,-4.108,-4.0185,-3.9424,-3.9424,-3.9424,-3.9424,-3.9394,-3.9379,-3.8796,-3.6197,-3.5391,-3.4667,-3.1509,-3.0595,-3.047,-2.993,-2.8937,-2.7844,-2.6719,-2.563,-2.4457,-2.3387,-2.2129,-2.0935,-1.9761,-1.8503,-1.7225,-1.6015,-1.5832,-1.5825,-1.573,-1.573,-1.4854,-1.2237,-1.3006,-1.3878,-1.3878,-1.4949,-1.5242,-1.3974,-1.5045,-1.5832,-1.5832,-1.5832,-1.5832,-1.5832,-1.5832,-1.5832,-1.5832,-1.5832,-1.5832,-1.5832,-1.5832,-1.5832,-1.5832,-1.5832,-1.514,-3.6403,-3.8708,-4.075,-4.2657,-4.398,-4.4978,-4.5473,-4.5586,-4.5586,-4.5586,-4.5257,-4.4944,-4.4944,-4.5067,-4.5472,-4.6383,-4.7558,-4.8359,-4.8457,-4.8926,-4.8687,-4.7142,-4.7417,-4.7524,-4.7046,-4.7182,-4.7894,-4.9298,-5.0212,-5.1056,-5.1931,-5.2737,-5.3207,-5.3198,-5.3456,-5.3484,-5.3206,-5.3206,-5.3206,-5.3206,-5.3206,-5.2572,-5.1444,-5.0929,-5.0107,-4.8984,-4.8748,-4.8646,-4.8578,-4.7834,-4.7394,-4.6954,-4.5125,-4.3744,-4.254,-4.1169,-4.0115,-3.9424,-3.9424,-3.9424,-3.9424,-3.9424,-3.8457,-3.7133,-3.6211,-3.47,-3.3079,-3.201,-3.116,-3.057,-3.0382,-2.9206,-2.7844,-2.6719,-2.563,-2.4457,-2.3387,-2.212,-2.0935,-1.9761,-1.8503,-1.7318,-1.6015,-1.5832,-1.5832,-1.5832,-1.5832,-1.5439,-1.4567,-1.4854,-1.5146,-1.5146,-1.5534,-1.5635,-1.5242,-1.5534,-1.5832,-1.5832,-1.5832,-1.5832,-1.5832,-1.5832,-1.6197,-1.7037,-1.7037,-1.7037,-1.7037,-1.7037,-1.6669,-1.5832,-1.5832,-1.5534,-3.9081,-4.0589,-4.1525,-4.3729,-4.4696,-4.5159,-4.5362,-4.5513,-4.5432,-4.4816,-4.4333,-4.3814,-4.3179,-4.3181,-4.3777,-4.5285,-4.682,-4.8047,-4.873,-4.9629,-4.9648,-4.8125,-4.8652,-4.8871,-4.8139,-4.7951,-4.8279,-4.9317,-5.0807,-5.195,-5.2565,-5.3423,-5.3849,-5.3795,-5.3814,-5.3604,-5.3206,-5.3206,-5.3206,-5.3206,-5.268,-5.1988,-5.1086,-5.0572,-4.9838,-4.9001,-4.9001,-4.9001,-4.8968,-4.8494,-4.8156,-4.7696,-4.5906,-4.4331,-4.2957,-4.1612,-4.0384,-3.9424,-3.9424,-3.9424,-3.9424,-3.9424,-3.8457,-3.7161,-3.6434,-3.4982,-3.3403,-3.2503,-3.1712,-3.1135,-3.0947,-2.9768,-2.8362,-2.7107,-2.589,-2.474,-2.3426,-2.2492,-2.1489,-1.9861,-1.8864,-1.777,-1.6103,-1.5832,-1.5832,-1.5832,-1.5832,-1.5832,-1.5832,-1.5832,-1.5832,-1.5832,-1.5832,-1.5832,-1.5832,-1.5832,-1.5832,-1.5832,-1.5832,-1.6015,-1.648,-1.648,-1.703,-1.8319,-1.8319,-1.8141,-1.7692,-1.7692,-1.7037,-1.5832,-1.5832,-1.5832,-4.1544,-4.2127,-4.2635,-4.4566,-4.5033,-4.5033,-4.5096,-4.5285,-4.4972,-4.3374,-4.2931,-4.2316,-4.0546,-4.0504,-4.147,-4.3857,-4.5418,-4.6874,-4.8476,-4.9648,-5.0,0.0,0.0,-5.0172,-5.0124,-4.9969,-4.9798,-4.9606,-5.2549,-5.3881,-5.2768,-5.4256,-5.4741,-5.3869,-5.3851,-5.3624,-5.3206,-5.3206,-5.3206,-5.3164,-5.1843,-5.1189,-5.1034,-4.9739,-4.9046,-4.9001,-4.9001,-4.9001,-4.9001,-4.9001,-4.8595,-4.7831,-4.6872,-4.5196,-4.3117,-4.2075,-4.0796,-3.9469,-3.9424,-3.9424,-3.9424,-3.9424,-3.9337,-3.8943,-3.693,-3.6212,-3.5612,-3.3021,-3.2227,-3.2089,-3.1574,-3.0646,-2.9462,-2.7697,-2.6465,-2.5211,-2.3515,-2.3174,-2.2432,-2.0042,-1.9488,-1.8672,-1.6197,-1.5832,-1.5832,-1.5832,-1.5832,-1.5832,-1.5832,-1.5832,-1.5832,-1.5832,-1.5832,-1.5832,-1.5832,-1.5832,-1.5832,-1.592,-1.592,-1.648,-1.7777,-1.7777,-1.8319,-1.9588,-1.9579,-1.9047,-1.787,-1.7777,-1.7131,-1.592,-1.5832,-1.5832,-4.1077,-4.2223,-4.3348,-4.4092,-4.429,-4.4409,-4.4966,-4.4147,-4.3082,-4.2302,-4.0623,-3.8777,-3.7084,-3.8834,-4.0585,-4.0684,-4.4752,0.0,-4.863,-5.0644,0.0,-5.0879,0.0,-5.2692,-5.1937,-5.2977,-5.334,-5.2454,-5.2491,-5.2988,-5.3961,-5.4998,-5.5186,-5.4355,-5.4322,-5.3979,-5.3206,-5.3206,-5.3206,-5.3206,-5.285,-5.2101,-5.1086,-5.0734,-4.9993,-4.9001,-4.9001,-4.9001,-4.9001,-4.9001,-4.89,-4.8523,-4.6388,-4.5182,-4.4325,-4.1689,-4.0497,-4.0083,-3.9589,-3.9424,-3.9424,-3.9424,-3.887,-3.8069,-3.7587,-3.6318,-3.4939,-3.4245,-3.3174,-3.2177,-3.2039,-3.1522,-3.0406,-2.8288,-2.7565,-2.6649,-2.4138,-2.3623,-2.306,-2.1177,-1.9405,-1.7677,-1.6109,-1.5832,-1.5832,-1.5832,-1.5832,-1.5832,-1.5832,-1.5832,-1.5832,-1.5832,-1.5832,-1.5832,-1.5832,-1.5832,-1.6197,-1.7131,-1.7225,-1.777,-1.8948,-1.9039,-1.9588,-2.0845,-2.0845,-2.0666,-2.0395,-1.9497,-1.8403,-1.7225,-1.6197,-1.5832,-4.2155,-4.3042,-4.3772,-4.3955,-4.4016,-4.3837,-4.3184,-4.2132,-4.0708,-3.8695,-3.6865,-3.5149,-3.3551,-3.5718,-3.7969,0.0,0.0,0.0,-4.844,-5.0971,-5.2519,0.0,-5.3516,0.0,-5.3789,-5.4548,-5.4976,-5.4646,-5.4015,-5.3895,-5.4472,-5.5261,-5.5423,-5.476,-5.4579,-5.4086,-5.3206,-5.3206,-5.3206,-5.3206,-5.2875,-5.2131,-5.1086,-5.077,-5.005,-4.9001,-4.9001,-4.9001,-4.9001,-4.9001,-4.9001,-4.8827,-4.6996,-4.5818,-4.4899,-4.269,-4.1232,-4.0352,-3.9978,-3.9664,-3.9424,-3.9424,-3.9017,-3.8383,-3.7919,-3.6632,-3.5292,-3.4815,-3.3708,-3.2591,-3.2591,-3.2365,-3.162,-2.9542,-2.8703,-2.769,-2.5375,-2.4496,-2.3563,-2.1925,-1.952,-1.7505,-1.6763,-1.6197,-1.5832,-1.5832,-1.5832,-1.5832,-1.5832,-1.5832,-1.5832,-1.5832,-1.5832,-1.5832,-1.5832,-1.6292,-1.6943,-1.7692,-1.8234,-1.9039,-2.0215,-2.0305,-2.0854,-2.2031,-2.212,-2.1845,-2.1293,-2.0666,-1.9405,-1.7692,-1.6943,-1.6292,-4.3739,-4.3924,-4.3955,-4.3986,-4.3881,-4.3174,-4.097,-3.9771,-3.8085,-3.4367,-3.2791,-3.1642,-3.0119,-3.2148,-3.4834,-3.7276,0.0,-4.5438,-4.8127,-5.093,-5.2734,-5.2851,-5.4414,-5.5469,-5.5469,-5.5371,-5.555,-5.6154,-5.6033,-5.5568,-5.4703,-5.5318,-5.5489,-5.5034,-5.4609,-5.4015,-5.3206,-5.3206,-5.3206,-5.3206,-5.2554,-5.1856,-5.1086,-5.0445,-4.9722,-4.9001,-4.9001,-4.9001,-4.9001,-4.9001,-4.9001,-4.8861,-4.7803,-4.6578,-4.5192,-4.4065,-4.2389,-4.0636,-4.0457,-4.0023,-3.9529,-3.9454,-3.9424,-3.9265,-3.8308,-3.7175,-3.6053,-3.5129,-3.4024,-3.3081,-3.3081,-3.3081,-3.2673,-3.085,-2.9681,-2.8377,-2.6552,-2.525,-2.3929,-2.2354,-2.002,-1.8218,-1.7845,-1.6784,-1.6015,-1.5832,-1.5832,-1.5832,-1.5832,-1.5832,-1.5832,-1.5832,-1.5832,-1.5825,-1.6015,-1.7037,-1.787,-1.8141,-1.9131,-2.0305,-2.148,-2.1569,-2.2031,-2.3047,-2.3135,-2.2589,-2.1569,-2.1391,-2.0215,-1.8141,-1.8048,-1.7239,-4.356,-4.3597,-4.3646,-4.3924,-4.3304,-4.2297,-4.1092,-3.8432,0.0,0.0,-3.0906,-2.8949,-2.7319,-3.0356,-3.3737,-3.5641,-4.0204,-4.4693,-4.802,-5.0871,-5.291,0.0,-5.5312,-5.6367,-5.6367,-5.6348,-5.6292,-5.6212,-5.6186,-5.5974,-5.5511,-5.5607,-5.5356,-5.4628,-5.4153,-5.3701,-5.3206,-5.3206,-5.3206,-5.3206,-5.306,-5.2353,-5.1086,-5.0981,-5.0202,-4.9001,-4.9001,-4.9001,-4.9001,-4.9001,-4.9001,-4.8861,-4.7088,-4.625,-4.5776,-4.347,-4.2346,-4.1863,-4.0771,-4.0322,-4.0142,-3.9589,-3.9424,-3.9337,-3.9177,-3.7724,-3.6119,-3.5974,-3.4568,-3.3081,-3.3081,-3.3081,-3.25,-3.0122,-2.9466,-2.8591,-2.5865,-2.4844,-2.4015,-2.2711,-2.1808,-2.061,-1.8555,-1.7769,-1.7037,-1.592,-1.5832,-1.5832,-1.5832,-1.5832,-1.5832,-1.5832,-1.5832,-1.6204,-1.7318,-1.7591,-1.8588,-2.0576,-2.0845,-2.1569,-2.2765,-2.2775,-2.2872,-2.3135,-2.3135,-2.296,-2.2775,-2.1756,-2.1114,-2.0657,-1.967,-1.8644,-4.3497,-4.3497,-4.3548,-4.3693,-4.2709,-4.0988,-3.8412,0.0,0.0,0.0,-2.7643,-2.637,-2.5736,-2.8447,-3.1507,-3.3782,-3.742,-4.1671,-4.6518,-4.9171,-5.1465,-5.373,-5.5547,-5.6601,-5.6601,-5.6598,-5.6522,-5.6323,-5.6233,-5.6051,-5.5722,-5.5703,-5.5331,-5.4535,-5.4288,-5.3833,-5.3206,-5.3206,-5.3206,-5.3206,-5.3206,-5.2463,-5.1086,-5.1086,-5.0314,-4.9001,-4.9001,-4.9001,-4.9001,-4.9001,-4.9001,-4.8861,-4.744,-4.6609,-4.6,-4.4275,-4.3091,-4.2222,-4.125,-4.0681,-4.0292,-3.9634,-3.9424,-3.9424,-3.9424,-3.8294,-3.693,-3.6369,-3.5116,-3.3797,-3.324,-3.3081,-3.2797,-3.1601,-3.0316,-2.8696,-2.6014,-2.5068,-2.4559,-2.3985,-2.3074,-2.1755,-1.9845,-1.8762,-1.775,-1.6272,-1.6621,-1.694,-1.6784,-1.7304,-1.7203,-1.592,-1.5832,-1.6292,-1.7598,-1.8326,-1.9405,-2.1203,-2.1845,-2.2492,-2.3047,-2.3135,-2.3135,-2.3135,-2.3135,-2.3135,-2.3135,-2.2492,-2.1933,-2.1302,-2.0975,-2.0155,-4.3442,-4.3497,-4.3513,-4.3597,-4.2206,-3.9858,-3.6012,-3.3077,0.0,-2.6394,-2.5038,-2.4588,-2.4898,-2.6772,-2.9218,-3.2096,-3.4831,-3.865,-4.4506,-4.7306,-4.9976,-5.3301,-5.5254,0.0,-5.6582,-5.6592,-5.6539,-5.6405,-5.623,-5.6013,-5.5722,-5.5703,-5.5375,-5.464,-5.4547,-5.4102,-5.3336,-5.323,-5.3206,-5.3206,-5.3206,-5.2463,-5.1086,-5.1086,-5.0314,-4.9001,-4.9001,-4.9001,-4.9001,-4.9001,-4.9001,-4.894,-4.795,-4.702,-4.6119,-4.5153,-4.3884,-4.2476,-4.1818,-4.116,-4.0502,-3.9843,-3.9529,-3.9424,-3.9424,-3.8634,-3.7587,-3.6526,-3.5521,-3.4428,-3.3398,-3.3081,-3.2982,-3.2426,-3.0598,-2.8402,-2.6197,-2.5459,-2.5215,-2.5215,-2.4079,-2.2722,-2.1369,-2.0047,-1.8656,-1.7448,-1.7792,-1.8273,-1.8387,-1.9108,-1.8867,-1.6935,-1.6421,-1.6842,-1.8319,-1.9131,-2.0124,-2.1569,-2.2589,-2.3135,-2.3135,-2.3135,-2.3135,-2.3135,-2.3135,-2.3135,-2.3135,-2.3135,-2.2637,-2.1805,-2.2235,-2.1821,-4.3296,-4.3497,-4.3563,-4.3881,-4.1952,-3.9234,-3.6242,0.0,-2.9365,-2.6103,-2.493,-2.4578,-2.479,-2.5766,-2.7605,-3.0901,-3.3801,-3.7406,-4.2476,-4.6274,-4.9574,-5.2382,0.0,0.0,-5.6523,-5.6601,-5.6532,-5.6414,-5.6112,-5.5857,-5.5703,-5.5703,-5.5489,-5.5061,-5.4671,-5.4255,-5.374,-5.3381,-5.3206,-5.3206,-5.3206,-5.2463,-5.1086,-5.1086,-5.0314,-4.9001,-4.9001,-4.9001,-4.9001,-4.9001,-4.9001,-4.894,-4.795,-4.702,-4.6119,-4.5153,-4.4113,-4.315,-4.2491,-4.1848,-4.119,-4.0531,-3.9903,-3.9424,-3.9424,-3.8634,-3.7587,-3.6526,-3.5521,-3.4428,-3.3398,-3.3081,-3.2525,-3.0316,-2.8773,-2.74,-2.6014,-2.5703,-2.5674,-2.5674,-2.5217,-2.4412,-2.313,-2.1567,-2.0465,-2.0432,-1.9369,-1.9069,-2.0383,-2.0276,-1.9975,-1.9694,-1.8411,-1.8495,-2.0755,-2.0034,-2.0494,-2.2775,-2.3047,-2.3135,-2.3135,-2.3135,-2.3135,-2.3135,-2.3135,-2.3135,-2.3135,-2.3135,-2.3252,-2.3541,-2.358,-2.3343,-4.2433,-4.313,-4.3548,-4.3679,-4.1406,-3.8364,-3.5217,-3.1894,-2.8576,-2.5328,-2.4505,-2.4375,-2.4575,-2.5054,-2.6318,-2.9159,-3.0341,-3.2846,-3.8339,-4.139,-4.488,-4.9744,-5.2305,-5.4453,-5.6406,-5.6601,-5.6507,-5.629,-5.6167,-5.5974,-5.5703,-5.5703,-5.5512,-5.5115,-5.4701,-5.4255,-5.3795,-5.3381,-5.3206,-5.3206,-5.3206,-5.2463,-5.1086,-5.1086,-5.0314,-4.9001,-4.9001,-4.9001,-4.9001,-4.9001,-4.9001,-4.894,-4.8576,-4.7523,-4.6244,-4.64,-4.5488,-4.4129,-4.3441,-4.2827,-4.2023,-4.0813,-3.9963,-3.9424,-3.9424,-3.8634,-3.7587,-3.6526,-3.5521,-3.4428,-3.3398,-3.3081,-3.2426,-2.9954,-2.9039,-2.8132,-2.61,-2.5742,-2.5742,-2.5742,-2.5596,-2.5064,-2.3752,-2.2921,-2.214,-2.1209,-2.1184,-2.1408,-2.1856,-2.2357,-2.2732,-2.2732,-2.0306,-1.9497,-2.1203,-2.0845,-2.1302,-2.296,-2.3135,-2.3135,-2.3135,-2.3135,-2.3135,-2.3135,-2.3135,-2.3271,-2.3525,-2.3525,-2.375,-2.417,-2.4434,-2.4446,-4.1387,-4.2525,-4.3149,-4.3149,-4.0726,-3.7477,-3.4192,-3.0962,-2.7805,-2.4814,-2.419,-2.4247,-2.4461,-2.4607,-2.5355,-2.7349,-2.8174,-3.0299,-3.5369,-3.8473,-4.224,-4.7663,-5.0383,-5.2871,-5.5527,-5.6269,-5.6515,-5.6269,-5.6214,-5.6071,-5.5761,-5.5722,-5.5577,-5.5282,-5.476,-5.4322,-5.4013,-5.3462,-5.3206,-5.3206,-5.3206,-5.2463,-5.1086,-5.1086,-5.0314,-4.9001,-4.9001,-4.9001,-4.9001,-4.9001,-4.9001,-4.9001,-4.9001,-4.7868,-4.6314,-4.7239,-4.64,-4.4734,-4.4575,-4.3878,-4.285,-4.1568,-4.0437,-3.9679,-3.9484,-3.887,-3.7979,-3.6604,-3.5278,-3.4037,-3.3313,-3.3081,-3.2426,-2.9954,-2.9407,-2.8669,-2.6197,-2.5742,-2.5742,-2.5742,-2.5742,-2.543,-2.4402,-2.3989,-2.3385,-2.2609,-2.2966,-2.3275,-2.349,-2.4116,-2.4609,-2.4609,-2.2437,-2.1245,-2.1949,-2.1544,-2.1845,-2.3047,-2.3135,-2.3193,-2.333,-2.333,-2.3389,-2.3516,-2.3516,-2.3672,-2.3975,-2.3975,-2.4189,-2.4619,-2.4922,-2.5137,-4.0249,-4.1699,-4.2304,-4.2304,-3.9882,-3.6633,-3.3366,-3.0118,-2.7126,-2.4704,-2.419,-2.4247,-2.4461,-2.4512,-2.4774,-2.5595,-2.8187,-3.1196,-3.4376,-3.8939,-4.3239,-4.6709,-4.8847,-5.1035,-5.3574,-5.5508,-5.6543,-5.6406,-5.6265,-5.6109,-5.5895,-5.5761,-5.5703,-5.5684,-5.4924,-5.4503,-5.4503,-5.3623,-5.3206,-5.3206,-5.3206,-5.2463,-5.1086,-5.1086,-5.0314,-4.9001,-4.9001,-4.9001,-4.9001,-4.9001,-4.9001,-4.9001,-4.9001,-4.7868,-4.6314,-4.7239,-4.64,-4.4946,-4.5834,-4.5144,-4.3707,-4.3009,-4.1656,-4.0277,-3.9619,-3.9424,-3.8943,-3.676,-3.4719,-3.3081,-3.3081,-3.3081,-3.2426,-2.9954,-2.9407,-2.8669,-2.6197,-2.5742,-2.5742,-2.5742,-2.5742,-2.5742,-2.5635,-2.4609,-2.4097,-2.543,-2.4501,-2.4187,-2.5518,-2.5332,-2.5059,-2.5059,-2.4668,-2.4238,-2.3818,-2.2264,-2.1845,-2.3047,-2.3135,-2.333,-2.3769,-2.3779,-2.3975,-2.4394,-2.4404,-2.4404,-2.4414,-2.4414,-2.4639,-2.5059,-2.5068,-2.5303,-3.4871,-3.6285,-3.7184,-3.6633,-3.5312,-3.3458,-3.076,-2.8925,-2.7108,-2.4704,-2.419,-2.4209,-2.4284,-2.4528,-2.5665,-2.8634,-3.0048,-3.2181,-3.6212,-3.9508,-4.2944,-4.6789,-5.1544,-5.4824,-5.5644,-5.625,-5.6543,-5.6406,-5.6279,-5.6117,-5.5898,-5.5761,-5.5703,-5.5703,-5.4924,-5.4503,-5.4503,-5.3623,-5.3206,-5.3206,-5.3206,-5.2463,-5.1086,-5.1086,-5.0314,-4.9001,-4.9001,-4.9001,-4.9001,-4.9001,-4.9001,-4.894,-4.8289,-4.7306,-4.6314,-4.7239,-4.6815,-4.5762,-4.6103,-4.5585,-4.4543,-4.3011,-4.158,-4.0367,-4.0157,-3.8719,-3.6774,-3.465,-3.3628,-3.3081,-3.3081,-3.3081,-3.2426,-2.9954,-2.9407,-2.8669,-2.6197,-2.5742,-2.5742,-2.5742,-2.5742,-2.5742,-2.5742,-2.5333,-2.5226,-2.5635,-2.5323,-2.5226,-2.5635,-2.5615,-2.5527,-2.5527,-2.5127,-2.4687,-2.4258,-2.3707,-2.3621,-2.3913,-2.4014,-2.4425,-2.5437,-2.4655,-2.4715,-2.5643,-2.5733,-2.5807,-2.6126,-2.6126,-2.5916,-2.5527,-2.5527,-2.5605,-3.1604,-3.3109,-3.3963,-3.3476,-3.2522,-3.1146,-2.9035,-2.7695,-2.6374,-2.4575,-2.419,-2.419,-2.419,-2.4461,-2.559,-2.8371,-2.9528,-3.164,-3.6129,-3.9127,-4.2696,-4.7656,-5.2552,-5.5562,-5.5605,-5.6211,-5.6562,-5.6484,-5.6303,-5.6154,-5.6015,-5.5799,-5.5703,-5.5703,-5.4924,-5.4503,-5.4503,-5.3623,-5.3206,-5.3206,-5.3206,-5.2463,-5.1086,-5.1086,-5.0314,-4.9001,-4.9001,-4.9001,0.0,-4.9001,-4.9001,-4.894,-4.837,-4.7572,-4.6815,-4.7803,-4.7506,-4.6747,-4.6747,-4.6233,-4.5276,-4.3482,-4.1821,-4.0323,-3.9905,-3.815,-3.5974,-3.465,-3.37,-3.3081,-3.3081,-3.3081,-3.2612,-3.0586,-2.9772,-2.8855,-2.6839,-2.6014,-2.5742,-2.5742,-2.5742,-2.5742,-2.5742,-2.5742,-2.5742,-2.5742,-2.5742,-2.5742,-2.5742,-2.5742,-2.5742,-2.5742,-2.5488,-2.5215,-2.4941,-2.4609,-2.4414,-2.4414,-2.4414,-2.5025,-2.6435,-2.5727,-2.5982,-2.7414,-2.7504,-2.7564,-2.7866,-2.7866,-2.7564,-2.7115,-2.7115,-2.7115,0.0,-3.1476,-3.2082,-3.2027,-3.0925,-2.9457,-2.7897,-2.6429,0.0,-2.4373,-2.419,-2.4245,-2.441,-2.4542,-2.5011,-2.6222,-2.7859,-3.0549,-3.5111,-3.8704,-4.3159,-4.9323,-5.2382,-5.4043,-5.4158,-5.5644,-5.6601,-5.6601,-5.6342,-5.6213,-5.6188,-5.5876,-5.5703,-5.5703,-5.4924,-5.4503,-5.4503,-5.3623,-5.3206,-5.3206,-5.3206,-5.2463,-5.1086,-5.1086,-5.0314,-4.9001,-4.9001,-4.9001,-4.9001,-4.9001,-4.9001,-4.9001,-4.894,-4.837,-4.7737,-4.8576,-4.837,-4.7589,-4.7523,-4.6952,-4.592,-4.4252,-4.2282,-4.0353,-3.9208,-3.7671,-3.6212,-3.6119,-3.4637,-3.3081,-3.3081,-3.3081,-3.2797,-3.1412,-3.0226,-2.9039,-2.7767,-2.6572,-2.5742,-2.5742,-2.5742,-2.5742,-2.5742,-2.5742,-2.5742,-2.5742,-2.5742,-2.5742,-2.5742,-2.5742,-2.5742,-2.5742,-2.5742,-2.5742,-2.5742,-2.498,-2.4512,-2.4512,-2.4604,-2.5318,-2.701,-2.7123,-2.7856,-2.9487,-2.9498,-2.9498,-2.9498,-2.9498,-2.9498,-2.9407,-2.9407,-2.9407,-2.564,0.0,-2.6924,-2.6337,-2.6337,-2.6264,0.0,-2.5217,-2.5182,-2.4373,-2.419,-2.4759,-2.6612,-2.6228,-2.7382,-3.2713,-3.4017,-3.5983,-4.0581,-4.5433,-4.9519,-5.224,-5.4558,-5.5902,-5.584,-5.6308,-5.6601,-5.6601,-5.6342,-5.6213,-5.6188,-5.5876,-5.5703,-5.5703,-5.4924,-5.4503,-5.4503,-5.3623,-5.3206,-5.3206,-5.3206,-5.2463,-5.1086,-5.1086,-5.0314,-4.9001,-4.9001,-4.9001,-4.9001,-4.9001,-4.9001,-4.894,-4.8225,-4.7803,-4.7655,-4.7868,-4.7803,-4.7523,-4.6815,-4.6384,-4.5849,-4.3485,-4.2363,-4.1713,-4.0382,-3.8227,-3.6053,-3.5278,-3.4108,-3.3081,-3.3081,-3.3081,-3.2525,-3.0316,-2.959,-2.8762,-2.6658,-2.5927,-2.5742,-2.5742,-2.5742,-2.5742,-2.5742,-2.5742,-2.5742,-2.5742,-2.5742,-2.5742,-2.5742,-2.5742,-2.5742,-2.5742,-2.5742,-2.5742,-2.5742,-2.5547,-2.543,-2.543,-2.6344,-2.7482,-2.8782,-2.8782,-2.9466,-3.0765,-3.0765,-3.0765,-3.0765,-3.0765,-3.0316,-2.9407,-2.9407,-2.9407,-2.4098,-2.5052,-2.5841,-2.5401,-2.5621,-2.5841,-2.5401,-2.5071,-2.4722,-2.4281,-2.419,-2.4704,-2.6374,-2.6971,-2.8761,-3.3526,-3.54,-3.8078,-4.333,-4.7952,-5.1445,-5.3288,-5.5277,-5.6503,-5.6484,-5.6562,-5.6601,-5.6601,-5.6403,-5.626,-5.6209,-5.5955,-5.5761,-5.5703,-5.4924,-5.4503,-5.4503,-5.3623,-5.3206,-5.3206,-5.3206,-5.2463,-5.1086,-5.1086,-5.0314,-4.9001,-4.9001,-4.9001,-4.9001,-4.9001,-4.9001,-4.894,-4.8433,-4.8225,-4.8225,-4.8225,-4.8225,-4.808,-4.7172,-4.626,-4.5206,-4.3425,-4.2611,-4.2177,-4.116,-3.8919,-3.6505,-3.5588,-3.4262,-3.3081,-3.3081,-3.3081,-3.2797,-3.1424,-3.0676,-2.967,-2.7851,-2.6935,-2.638,-2.583,-2.5742,-2.5742,-2.5742,-2.5742,-2.5742,-2.5742,-2.5742,-2.5742,-2.5742,-2.5742,-2.5742,-2.5742,-2.5742,-2.5742,-2.5742,-2.6197,-2.6294,-2.5732,-2.74,-2.868,-2.9407,-2.9954,-3.0765,-3.2052,-3.2052,-3.2052,-3.2052,-3.2052,-3.1777,-3.1057,-3.1057,-3.1057,-2.4135,-2.5731,-2.7034,-2.6539,-2.6612,-2.6759,-2.6631,-2.5548,-2.4575,-2.4575,-2.4575,-2.4961,-2.6245,-2.7905,-3.005,-3.2939,-3.572,-3.9469,-4.5051,-4.8624,-5.137,-5.3351,-5.5238,-5.6437,-5.6567,-5.6598,-5.6601,-5.6601,-5.6484,-5.6341,-5.6194,-5.6016,-5.5838,-5.5703,-5.4924,-5.4503,-5.4503,-5.3623,-5.3206,-5.3206,-5.3206,-5.2463,-5.1086,-5.1086,-5.0314,-4.9001,-4.9001,-4.9001,-4.9001,-4.9001,-4.9001,-4.9001,-4.9001,-4.9001,-4.9001,-4.9001,-4.9001,-4.8861,-4.7737,-4.626,-4.4662,-4.363,-4.2955,-4.2372,-4.1609,-3.959,-3.7379,-3.6484,-3.4719,-3.3081,-3.3081,-3.3081,-3.3068,-3.2884,-3.1965,-3.0855,-2.9407,-2.8319,-2.722,-2.5917,-2.5742,-2.5742,-2.5742,-2.5742,-2.5742,-2.5742,-2.5742,-2.5742,-2.5742,-2.5742,-2.5742,-2.5742,-2.5742,-2.5732,-2.6014,-2.7125,-2.74,-2.6284,-2.8391,-2.9772,-2.9954,-3.0956,-3.1965,-3.3068,-3.3081,-3.3081,-3.3081,-3.3081,-3.3081,-3.3081,-3.3081,-3.3081,-2.4795,-2.7383,-2.8998,-2.6245,-2.6594,-2.7438,-2.6759,-2.641,-2.6227,-2.6227,-2.6227,-2.731,-3.0852,-3.1395,-3.2882,-3.769,-4.1055,-4.4397,-4.8222,-5.0529,-5.2242,-5.3301,-5.5181,-5.6406,-5.6435,-5.653,-5.6601,-5.6601,-5.6484,-5.6344,-5.6205,-5.6017,-5.5838,-5.5703,-5.4924,-5.4503,-5.4503,-5.3623,-5.3206,-5.3206,-5.3206,-5.2463,-5.1086,-5.1086,-5.0314,-4.9001,-4.9001,-4.9001,-4.9001,-4.9001,-4.9001,-4.9001,-4.9001,-4.9001,-4.9001,-4.9001,-4.9001,-4.8719,-4.702,-4.5706,-4.4662,-4.363,-4.3269,-4.2955,-4.1743,-4.047,-3.8982,-3.6833,-3.4719,-3.3081,-3.3081,-3.3081,-3.2797,-3.1777,-3.1311,-3.0586,-2.8319,-2.7778,-2.722,-2.5917,-2.5742,-2.5742,-2.5742,-2.5742,-2.5742,-2.5742,-2.5742,-2.5742,-2.5742,-2.5742,-2.5742,-2.5742,-2.5742,-2.611,-2.722,-2.8402,-2.9039,-2.8855,-3.0135,-3.1412,-3.2525,-3.2711,-3.2896,-3.3081,-3.3081,-3.3081,-3.3081,-3.3081,-3.3081,-3.3081,-3.3081,-3.3081,-2.3657,-2.5823,-2.7548,-2.7383,-2.9219,-3.0834,-3.0044,-2.9654,-2.9413,-2.9228,-2.9344,-3.016,-3.2455,-3.3885,-3.651,-4.195,-4.467,-4.6857,-4.9087,-5.0736,-5.2173,-5.3356,-5.5174,-5.6361,-5.6485,-5.6556,-5.6601,-5.6601,-5.6543,-5.6426,-5.6212,-5.6111,-5.5955,-5.5703,-5.4924,-5.4503,-5.4503,-5.3623,-5.3206,-5.3206,-5.3206,-5.2463,-5.1086,-5.1086,-5.0314,-4.9001,-4.9001,-4.9001,-4.9001,-4.9001,-4.9001,-4.9001,-4.9001,-4.9001,-4.9001,-4.9001,-4.9001,-4.8719,-4.6884,-4.5905,-4.5269,-4.3756,-4.3329,-4.315,-4.2207,-4.09,-3.9355,-3.7292,-3.537,-3.3797,-3.324,-3.3081,-3.2982,-3.2339,-3.2239,-3.1601,-2.9131,-2.8588,-2.8038,-2.611,-2.5742,-2.5742,-2.5742,-2.5742,-2.5742,-2.5742,-2.5742,-2.5742,-2.5742,-2.5742,-2.5742,-2.5742,-2.5742,-2.6197,-2.7494,-2.868,-2.9954,-3.1323,-3.1223,-3.1777,-3.3081,-3.3081,-3.3081,-3.3081,-3.3081,-3.3081,-3.3081,-3.3081,-3.3081,-3.3081,-3.3081,-3.3081,-2.307,-2.4593,-2.6209,-2.8425,-3.0723,-3.2522,-3.3054,-3.2506,-3.202,-3.2477,-3.2808,-3.3318,-3.425,-3.6727,-4.0241,-4.5169,-4.6948,-4.8175,-4.9529,-5.0749,-5.197,-5.3144,-5.4648,-5.5779,-5.6249,-5.6308,-5.6387,-5.6582,-5.6601,-5.6484,-5.6212,-5.6207,-5.6051,-5.5703,-5.4924,-5.4503,-5.4503,-5.3623,-5.3206,-5.3206,-5.3206,-5.2463,-5.1086,-5.1086,-5.0314,-4.9001,-4.9001,-4.9001,-4.9001,-4.9001,-4.9001,-4.9001,-4.9001,-4.9001,-4.9001,-4.9001,-4.9001,-4.8719,-4.6884,-4.6173,-4.5889,-4.3897,-4.3329,-4.321,-4.2551,-4.1503,-4.0054,-3.8267,-3.6702,-3.509,-3.3547,-3.3081,-3.3081,-3.3081,-3.3081,-3.2525,-3.0316,-2.9863,-2.9131,-2.6658,-2.611,-2.6014,-2.5732,-2.5742,-2.5742,-2.5742,-2.5742,-2.5742,-2.5742,-2.5742,-2.5742,-2.5742,-2.6014,-2.6754,-2.8319,-2.959,-3.1057,-3.2982,-3.2152,-3.2052,-3.3081,-3.3081,-3.3081,-3.3081,-3.3081,-3.3081,-3.3081,-3.3081,-3.3081,-3.3081,-3.3081,-3.3081,-2.4595,-2.586,-2.6924,-2.8572,-2.8613,-2.9384,-3.3817,-3.3308,-3.2657,-3.5377,-3.62,-3.6845,-3.8074,-4.0792,-4.3763,-4.6535,-4.7608,-4.8664,-5.0375,-5.1317,-5.1989,-5.2355,-5.3223,-5.4219,-5.5292,-5.539,-5.5723,-5.6543,-5.6601,-5.6484,-5.6212,-5.6207,-5.6051,-5.5703,-5.4924,-5.4503,-5.4503,-5.3623,-5.3206,-5.3206,-5.3206,-5.2463,-5.1086,-5.1086,-5.0314,-4.9001,-4.9001,-4.9001,-4.9001,-4.9001,-4.9001,-4.9001,-4.9001,-4.9001,-4.9001,-4.9001,-4.9001,-4.8719,-4.6884,-4.6173,-4.5889,-4.3897,-4.3329,-4.321,-4.2551,-4.2327,-4.1807,-4.0068,-3.8704,-3.6999,-3.3909,-3.3081,-3.3081,-3.3081,-3.3081,-3.2711,-3.14,-3.1033,-3.0406,-2.7955,-2.7494,-2.7125,-2.5917,-2.5742,-2.5742,-2.5742,-2.5742,-2.5742,-2.5742,-2.5742,-2.5742,-2.5742,-2.6754,-2.8402,-3.0765,-3.2064,-3.2896,-3.3081,-3.2982,-3.2982,-3.3081,-3.3081,-3.3081,-3.3081,-3.3081,-3.3081,-3.3081,-3.3081,-3.3081,-3.3081,-3.3081,-3.3081,-2.3382,-2.5236,-2.7108,-2.9237,-3.0283,-3.1531,-3.4348,-3.5907,-3.7371,-3.9596,-4.0067,-4.0409,-4.1378,-4.3284,-4.5395,-4.7403,-4.8393,-4.9336,-5.0529,-5.1395,-5.1991,-5.2261,-5.3063,-5.3822,-5.4432,-5.4492,-5.4629,-5.4961,-5.5488,-5.5664,-5.5404,-5.5917,-5.6051,-5.5703,-5.4924,-5.4503,-5.4503,-5.3623,-5.3206,-5.3206,-5.3206,-5.2463,-5.1086,-5.1086,-5.0314,-4.9001,-4.9001,-4.9001,-4.9001,-4.9001,-4.9001,-4.9001,-4.9001,-4.9001,-4.9001,-4.9001,-4.9001,-4.8798,-4.7523,-4.6678,-4.5961,-4.4631,-4.3771,-4.3284,-4.3045,-4.2686,-4.2127,-4.0793,-3.9762,-3.8527,-3.5936,-3.4676,-3.401,-3.3671,-3.3583,-3.3121,-3.1572,-3.1223,-3.0676,-2.9039,-2.868,-2.8319,-2.7125,-2.6849,-2.6572,-2.583,-2.5742,-2.5742,-2.5742,-2.5742,-2.5742,-2.5742,-2.7484,-2.9407,-3.1033,-3.2339,-3.3081,-3.3081,-3.3081,-3.3081,-3.3081,-3.3081,-3.3081,-3.3081,-3.3081,-3.3398,-3.4108,-3.3398,-3.3484,-3.4108,-3.4108,-3.4108,-2.307,-2.4777,-2.6869,-2.9531,-3.1421,-3.3246,-3.5754,-3.7879,-4.007,-4.2712,-4.317,-4.3273,-4.3799,-4.4881,-4.6165,-4.7683,-4.876,-4.9702,-5.0567,-5.1202,-5.1664,-5.1896,-5.2469,-5.3049,-5.3534,-5.3594,-5.3691,-5.3984,-5.4502,-5.4741,-5.4509,-5.5279,-5.5609,-5.5318,-5.479,-5.4503,-5.4503,-5.3623,-5.3206,-5.3206,-5.3206,-5.2463,-5.1086,-5.1086,-5.0314,-4.9001,-4.9001,-4.9001,-4.9001,-4.9001,-4.9001,-4.9001,-4.9001,-4.9001,-4.9001,-4.9001,-4.9001,-4.8861,-4.7933,-4.7172,-4.647,-4.5227,-4.4358,-4.3693,-4.3409,-4.3015,-4.2499,-4.1806,-4.0974,-3.9967,-3.8034,-3.642,-3.5035,-3.4325,-3.4161,-3.3731,-3.2329,-3.2031,-3.1603,-3.0249,-2.9954,-2.9498,-2.7861,-2.7589,-2.7125,-2.5927,-2.5742,-2.5742,-2.5742,-2.6014,-2.6562,-2.7389,-2.8947,-3.0496,-3.1689,-3.2612,-3.3081,-3.3081,-3.3081,-3.3081,-3.3081,-3.3081,-3.3081,-3.3081,-3.3081,-3.3641,-3.4664,-3.3953,-3.4191,-3.5197,-3.5197,-3.5197,-2.4208,-2.4814,-2.6211,-2.942,-3.1458,-3.3802,-3.8223,-3.886,-3.9811,-4.4371,-4.5326,-4.5307,-4.5227,-4.5566,-4.6228,-4.7419,-4.8621,-4.9702,-5.0567,-5.0837,-5.0952,-5.1068,-5.1164,-5.1596,-5.2594,-5.2695,-5.3047,-5.3906,-5.3868,-5.373,-5.3584,-5.4291,-5.4628,-5.4491,-5.4486,-5.4484,-5.4484,-5.3623,-5.3206,-5.3206,-5.3206,-5.2463,-5.1086,-5.1086,-5.0369,-4.9001,-4.9001,-4.9001,-4.9001,-4.9001,-4.9001,-4.9001,-4.9001,-4.9001,-4.9001,-4.9001,-4.9001,-4.8861,-4.795,-4.7589,-4.7306,-4.5431,-4.4812,-4.4662,-4.363,-4.3329,-4.3329,-4.3329,-4.2467,-4.1337,-4.0232,-3.8214,-3.6232,-3.4983,-3.4726,-3.4575,-3.4022,-3.3897,-3.3357,-3.1608,-3.1223,-3.0496,-2.8049,-2.7589,-2.722,-2.5917,-2.5742,-2.5742,-2.5742,-2.6849,-2.8495,-3.0944,-3.1223,-3.1689,-3.2982,-3.3081,-3.3081,-3.3081,-3.3081,-3.3081,-3.3081,-3.3081,-3.3167,-3.3167,-3.3154,-3.3628,-3.4746,-3.4746,-3.5197,-3.6212,-3.6212,-3.6212,-2.4887,-2.6869,-2.9274,-3.1384,-3.4995,-3.859,-4.0467,-4.0973,-4.1959,-4.5312,-4.6449,-4.6866,-4.6872,-4.7175,-4.7737,-4.87,-4.9183,-4.9702,-5.0567,-5.0837,-5.0948,-5.1089,-5.1151,-5.1344,-5.1755,-5.1797,-5.1894,-5.2148,-5.271,-5.2931,-5.2705,-5.3455,-5.382,-5.3587,-5.3041,-5.3013,-5.3566,-5.277,-5.2637,-5.3206,-5.3206,-5.2725,-5.1808,-5.1292,-5.0572,-4.9664,-4.9212,-4.9001,-4.9001,-4.9001,-4.9001,-4.9001,-4.9001,-4.9001,-4.9001,-4.9001,-4.9001,-4.894,-4.8656,-4.8144,-4.7523,-4.6968,-4.633,-4.5634,-4.4646,-4.4373,-4.422,-4.3472,-4.3076,-4.2548,-4.142,-4.0039,-3.8297,-3.5823,-3.5303,-3.5152,-3.46,-3.4173,-3.3759,-3.3206,-3.2784,-3.2052,-3.0406,-3.0135,-2.9681,-2.8495,-2.8308,-2.8308,-2.8308,-2.8588,-2.9498,-3.1033,-3.1223,-3.1689,-3.2982,-3.3081,-3.3081,-3.3081,-3.3081,-3.3081,-3.3081,-3.3797,-3.4191,-3.4191,-3.4884,-3.5828,-3.688,-3.6146,-3.6304,-3.7343,-3.7343,-3.7343,-2.6429,-2.8943,-3.1788,-3.4394,-3.7645,-4.0661,-4.2408,-4.3297,-4.425,-4.5951,-4.6965,-4.7537,-4.7556,-4.8037,-4.8624,-4.9279,-4.9683,-5.0087,-5.0625,-5.0875,-5.1001,-5.1102,-5.1197,-5.1315,-5.1386,-5.1406,-5.1406,-5.1406,-5.1836,-5.203,-5.1823,-5.2585,-5.2916,-5.2702,-5.2393,-5.2389,-5.2699,-5.2363,-5.2383,-5.2729,-5.3059,-5.2999,-5.249,-5.1562,-5.0716,-4.9976,-4.9316,-4.9001,-4.9001,-4.9001,-4.9001,-4.9001,-4.9001,-4.9001,-4.9001,-4.9001,-4.9001,-4.9001,-4.9001,-4.8656,-4.808,-4.7737,-4.7239,-4.6539,-4.5227,-4.4812,-4.4586,-4.3551,-4.3329,-4.3076,-4.1932,-4.0746,-3.9366,-3.7079,-3.6214,-3.5717,-3.5165,-3.4788,-3.4424,-3.3985,-3.3633,-3.2959,-3.1448,-3.1223,-3.0765,-2.959,-2.9407,-2.9579,-3.0045,-3.0135,-3.0586,-3.1777,-3.1952,-3.2239,-3.3068,-3.3081,-3.3081,-3.3081,-3.3471,-3.3556,-3.3167,-3.4108,-3.4664,-3.4664,-3.5668,-3.6696,-3.7829,-3.7175,-3.742,-3.8472,-3.8472,-3.8472,-2.8333,-3.0754,-3.3587,-3.7679,-3.9522,-4.1089,-4.3992,-4.547,-4.6266,-4.6339,-4.6991,-4.7525,-4.756,-4.8327,-4.9051,-4.9336,-5.0125,-5.0702,-5.0702,-5.0933,-5.1114,-5.1102,-5.1277,-5.1406,-5.1406,-5.1406,-5.1406,-5.1406,-5.1289,-5.1174,-5.1103,-5.1679,-5.1934,-5.1798,-5.2165,-5.2216,-5.1881,-5.2161,-5.2159,-5.1885,-5.2637,-5.2986,-5.2944,-5.1656,-5.0716,-4.9976,-4.9359,-4.9107,-4.9107,-4.9107,-4.9063,-4.9001,-4.9001,-4.9001,-4.9001,-4.9001,-4.9001,-4.9001,-4.9001,-4.9001,-4.8861,-4.8015,-4.7737,-4.7389,-4.5504,-4.4946,-4.4737,-4.363,-4.3329,-4.3076,-4.2029,-4.0916,-3.9711,-3.8559,-3.7335,-3.6219,-3.573,-3.5579,-3.5253,-3.4248,-3.3972,-3.3369,-3.1745,-3.1436,-3.1045,-2.9863,-2.9772,-3.0135,-3.1223,-3.14,-3.1777,-3.2982,-3.3081,-3.3081,-3.3081,-3.3081,-3.3081,-3.3081,-3.4108,-3.4275,-3.3326,-3.4345,-3.4897,-3.4815,-3.5908,-3.693,-3.7919,-3.7919,-3.8472,-3.9424,-3.9424,-3.9424,-2.8333,-3.0754,-3.3587,-3.7679,-4.1155,-4.386,-4.4782,-4.5376,-4.5936,-4.6628,-4.6916,-4.7242,-4.7856,-4.8702,-4.9317,-4.9394,-5.0125,-5.0702,-5.0702,-5.0933,-5.1114,-5.1102,-5.1277,-5.1406,-5.1406,-5.1406,-5.1406,-5.1406,-5.1367,-5.1271,-5.1103,-5.1238,-5.1203,-5.0971,-5.0753,-5.0753,-5.0964,-5.074,-5.0768,-5.1059,-5.1242,-5.1316,-5.1312,-5.1173,-5.0716,-4.9976,-4.9821,-4.978,-4.989,-4.978,-4.9462,-4.9001,-4.9001,-4.9001,-4.9001,-4.9001,-4.9001,-4.9001,-4.9001,-4.9001,-4.894,-4.8781,-4.8719,-4.837,-4.647,-4.5905,-4.5545,-4.3756,-4.3329,-4.325,-4.2981,-4.2111,-4.0916,-3.9798,-3.7952,-3.632,-3.6207,-3.5843,-3.5466,-3.524,-3.45,-3.3771,-3.3369,-3.2984,-3.2612,-3.2339,-3.2339,-3.2426,-3.2698,-3.2698,-3.2797,-3.3068,-3.3081,-3.3081,-3.3081,-3.3081,-3.3081,-3.3081,-3.4108,-3.4581,-3.4345,-3.6174,-3.671,-3.5894,-3.7738,-3.8855,-3.9031,-3.9031,-3.9177,-3.9424,-3.9424,-3.9424,-2.8613,-3.1347,-3.4339,-3.9221,-4.2389,-4.4401,-4.4781,-4.5118,-4.5534,-4.6145,-4.6605,-4.7028,-4.7451,-4.8221,-4.8779,-4.8779,-4.951,-5.0067,-5.0067,-5.0683,-5.1114,-5.1102,-5.1277,-5.1406,-5.1406,-5.1406,-5.1406,-5.1406,-5.1406,-5.131,-5.1103,-5.1103,-5.0991,-5.0702,-5.0483,-5.0302,-5.0145,-5.0297,-5.0333,-5.0215,-5.0618,-5.0602,-5.0253,-5.0061,-4.9625,-4.899,-4.899,-4.9196,-4.9555,-4.9521,-4.9316,-4.9001,-4.9001,-4.9001,-4.9001,-4.9001,-4.9001,-4.9001,-4.9001,-4.9001,-4.9001,-4.9001,-4.9001,-4.8656,-4.6747,-4.6173,-4.5818,-4.3834,-4.3329,-4.3329,-4.3329,-4.2467,-4.1337,-4.0145,-3.8482,-3.707,-3.6546,-3.6132,-3.5868,-3.5604,-3.4864,-3.4211,-3.3947,-3.3445,-3.3081,-3.3081,-3.3081,-3.3081,-3.3081,-3.3081,-3.3081,-3.3081,-3.3081,-3.3081,-3.3081,-3.3081,-3.3313,-3.3797,-3.4815,-3.544,-3.544,-3.742,-3.8055,-3.7021,-3.8531,-3.9424,-3.9424,-3.9424,-3.9424,-3.9424,-3.9864,-4.006,-2.8209,-3.1641,-3.5312,-4.0744,-4.2945,-4.3949,-4.4463,-4.4872,-4.5201,-4.5531,-4.6163,-4.6682,-4.6682,-4.7336,-4.7894,-4.7894,-4.8606,-4.9183,-4.9183,-5.001,-5.0634,-5.0645,-5.0941,-5.1172,-5.1191,-5.1328,-5.1406,-5.1406,-5.1406,-5.131,-5.1103,-5.1103,-5.0991,-5.0702,-5.0702,-5.0313,-4.9504,-5.0153,-5.0123,-4.937,-5.005,-5.0003,-4.9289,-4.8764,-4.8434,-4.822,-4.822,-4.8579,-4.9145,-4.8984,-4.8882,-4.8795,-4.8809,-4.8815,-4.8832,-4.8951,-4.9001,-4.9001,-4.9001,-4.9001,-4.9001,-4.9001,-4.9001,-4.8656,-4.6952,-4.6314,-4.5818,-4.4051,-4.3394,-4.3329,-4.3329,-4.2629,-4.1601,-4.049,-3.9434,-3.8289,-3.6709,-3.6358,-3.6219,-3.5768,-3.5165,-3.455,-3.3997,-3.3445,-3.3081,-3.3081,-3.3081,-3.3081,-3.3081,-3.3081,-3.3081,-3.3081,-3.3081,-3.3081,-3.3081,-3.3081,-3.3556,-3.4664,-3.5668,-3.6277,-3.6448,-3.8368,-3.8943,-3.8069,-3.8943,-3.9424,-3.9424,-3.9424,-3.9424,-3.9409,-4.0309,-4.069,-2.5474,-3.0356,-3.5852,-4.0194,-4.2112,-4.3239,-4.4357,-4.4872,-4.5201,-4.5531,-4.5682,-4.5759,-4.5759,-4.6471,-4.7067,-4.7067,-4.774,-4.8279,-4.8279,-4.8509,-4.8726,-4.8826,-4.9634,-5.0234,-5.0351,-5.0996,-5.1406,-5.1406,-5.1406,-5.131,-5.1103,-5.1103,-5.0991,-5.0702,-5.0702,-5.0313,-4.9504,-4.9617,-4.9244,-4.8471,-4.8581,-4.8306,-4.7692,-4.7605,-4.8264,-4.946,-4.946,-4.9531,-4.9573,-4.9036,-4.8434,-4.7885,-4.8005,-4.8071,-4.8139,-4.8765,-4.9001,-4.9001,-4.9001,-4.9001,-4.9001,-4.9001,-4.9001,-4.8798,-4.7737,-4.6815,-4.5977,-4.493,-4.3989,-4.3329,-4.3329,-4.317,-4.282,-4.1684,-4.1253,-4.029,-3.7057,-3.6358,-3.6345,-3.627,-3.5429,-3.455,-3.3997,-3.3445,-3.3081,-3.3081,-3.3081,-3.3081,-3.3081,-3.3081,-3.3081,-3.3081,-3.3081,-3.3081,-3.3081,-3.3081,-3.3556,-3.4664,-3.5668,-3.6604,-3.751,-3.8782,-3.9337,-3.9177,-3.9337,-3.9424,-3.9424,-3.9424,-3.9424,-3.9409,-4.0309,-4.069,-2.6355,-3.0815,-3.5202,-3.8854,-4.083,-4.221,-4.3551,-4.4367,-4.4966,-4.5495,-4.5586,-4.5586,-4.5586,-4.5913,-4.6163,-4.6163,-4.6874,-4.7432,-4.7432,-4.7932,-4.8349,-4.8473,-4.8964,-4.9316,-4.9453,-5.0234,-5.0723,-5.0723,-5.1152,-5.1325,-5.1156,-5.1125,-5.101,-5.0837,-5.0741,-5.0421,-4.9827,-4.9589,-4.9094,-4.8306,-4.8306,-4.8172,-4.7897,-4.7897,-4.8146,-4.8514,-4.8514,-4.8555,-4.8567,-4.8259,-4.7763,-4.7216,-4.7259,-4.7293,-4.7378,-4.8122,-4.8392,-4.846,-4.8866,-4.9001,-4.9001,-4.9001,-4.9001,-4.8798,-4.7868,-4.6952,-4.5961,-4.5079,-4.4082,-4.3329,-4.3329,-4.3329,-4.2981,-4.1587,-4.142,-4.1155,-3.9332,-3.8107,-3.706,-3.6049,-3.5516,-3.4939,-3.4186,-3.3847,-3.3545,-3.3131,-3.3081,-3.3081,-3.3081,-3.3081,-3.3313,-3.3953,-3.3484,-3.3313,-3.3953,-3.4037,-3.4428,-3.5521,-3.654,-3.7587,-3.8634,-3.9177,-3.9424,-3.9424,-3.9424,-3.9424,-3.9424,-3.9424,-3.9666,-4.0115,-4.1013,-4.1674,-2.6649,-2.9843,-3.2596,-3.6486,-3.8689,-4.04,-4.2423,-4.3585,-4.4492,-4.5304,-4.5531,-4.5586,-4.5586,-4.5586,-4.5586,-4.5586,-4.6144,-4.6567,-4.6567,-4.7181,-4.7662,-4.7816,-4.8115,-4.8373,-4.8515,-4.9336,-4.9863,-4.9863,-5.0625,-5.1035,-5.0898,-5.1033,-5.1043,-5.0895,-5.076,-5.0504,-5.0092,-4.9589,-4.8996,-4.8306,-4.8306,-4.8306,-4.8306,-4.8306,-4.8125,-4.7757,-4.7757,-4.7796,-4.7817,-4.7526,-4.7084,-4.6674,-4.6588,-4.6515,-4.6633,-4.7581,-4.7919,-4.802,-4.8748,-4.9001,-4.9001,-4.9001,-4.9001,-4.8861,-4.8161,-4.7306,-4.64,-4.5431,-4.4419,-4.363,-4.3409,-4.3329,-4.2996,-4.185,-4.185,-4.1767,-4.0901,-3.9596,-3.8079,-3.6427,-3.6235,-3.5993,-3.4665,-3.4629,-3.441,-3.3268,-3.3884,-3.4725,-3.5579,-3.522,-3.5173,-3.5979,-3.4866,-3.4483,-3.5288,-3.5141,-3.5521,-3.6526,-3.7343,-3.8308,-3.9337,-3.9424,-3.9424,-3.9424,-3.961,-3.9737,-3.9737,-3.9737,-4.0185,-4.108,-4.1917,-4.2645,-2.4466,-2.5715,-2.7166,-3.2687,-3.5312,-3.7448,-4.0896,-4.2562,-4.3705,-4.4881,-4.5381,-4.5586,-4.5586,-4.5586,-4.5586,-4.5586,-4.5624,-4.5663,-4.5663,-4.5701,-4.5796,-4.593,-4.6725,-4.734,-4.746,-4.8379,-4.8965,-4.8965,-4.9766,-5.0195,-5.0078,-5.0713,-5.103,-5.0895,-5.076,-5.0504,-5.0092,-4.9307,-4.8728,-4.8306,-4.8306,-4.8306,-4.8306,-4.8306,-4.8286,-4.8265,-4.8265,-4.8263,-4.8203,-4.6972,-4.6459,-4.6385,-4.596,-4.5771,-4.594,-4.7394,-4.7919,-4.802,-4.8748,-4.9001,-4.9001,-4.9001,-4.9001,-4.9001,-4.894,-4.8289,-4.7306,-4.6384,-4.5416,-4.451,-4.3551,-4.3329,-4.325,-4.317,-4.317,-4.2644,-4.0418,-3.9899,-3.9448,-3.8158,-3.8405,-3.802,-3.5671,-3.5878,-3.5632,-3.3427,-3.5841,-3.9126,-4.237,-4.0871,-3.9541,-3.9623,-3.8084,-3.7028,-3.7109,-3.6477,-3.6604,-3.7663,-3.7753,-3.8308,-3.9337,-3.9424,-3.9424,-3.9424,-4.0239,-4.0622,-4.0622,-4.0622,-4.108,-4.1933,-4.2847,-4.3246,-2.318,-2.4612,-2.6266,-2.9843,-3.2339,-3.4629,-3.7371,-3.9948,-4.2143,-4.3522,-4.4154,-4.4691,-4.5472,-4.5586,-4.5586,-4.5586,-4.5586,-4.5586,-4.5586,-4.5586,-4.5643,-4.5776,-4.6121,-4.6424,-4.6541,-4.748,-4.8066,-4.8066,-4.8867,-4.9348,-4.9295,-4.9904,-5.0248,-5.0183,-5.051,-5.038,-4.9719,-4.9416,-4.8963,-4.8306,-4.8306,-4.8306,-4.8306,-4.8306,-4.8306,-4.8306,-4.8306,-4.8075,-4.7656,-4.6756,-4.6143,-4.5767,-4.5196,-4.4976,-4.5111,-4.6126,-4.6802,-4.7293,-4.8054,-4.8612,-4.9001,-4.9001,-4.9001,-4.9001,-4.9001,-4.837,-4.7373,-4.6454,-4.5488,-4.4586,-4.3551,-4.3329,-4.3329,-4.3329,-4.3329,-4.3076,-4.2304,-4.093,-3.9812,-3.936,-3.9445,-3.928,-3.8438,-3.7232,-3.7197,-3.9283,-4.0718,-4.1397,-4.1134,-4.044,-3.9896,-3.988,-3.8257,-3.7473,-3.8203,-3.7621,-3.742,-3.7753,-3.8472,-3.9017,-3.9352,-3.9424,-3.9424,-3.9424,-4.0239,-4.069,-4.069,-4.128,-4.1997,-4.2847,-4.3169,-4.3621,-2.186,0.0,0.0,-2.786,-2.9604,-3.147,-3.4895,-3.746,-3.9668,-4.1571,-4.2637,-4.3605,-4.4787,-4.5227,-4.5476,-4.5586,-4.5586,-4.5586,-4.5586,-4.5586,-4.5624,-4.5719,-4.5834,-4.5924,-4.6019,-4.6716,-4.7168,-4.7168,-4.7969,-4.8469,-4.847,-4.9079,-4.9524,-4.9721,-5.0087,-5.0071,-4.9719,-4.9561,-4.9171,-4.8513,-4.8364,-4.8306,-4.8306,-4.8306,-4.8306,-4.8306,-4.8306,-4.8075,-4.7614,-4.6756,-4.6143,-4.5732,-4.4906,-4.4587,-4.4671,-4.5432,-4.6007,-4.6532,-4.7276,-4.7851,-4.8308,-4.8562,-4.8646,-4.868,-4.8934,-4.8576,-4.7803,-4.6523,-4.5762,-4.5005,-4.3615,-4.3329,-4.3329,-4.3329,-4.3329,-4.3329,-4.3329,-4.2126,-4.093,-4.0575,-4.076,-4.076,-4.0073,-3.9258,-3.9757,-4.282,-4.3329,-4.2773,-4.1258,-4.101,-4.0989,-4.0967,-3.9585,-3.8925,-3.9576,-3.8879,-3.8308,-3.8308,-3.9017,-3.9424,-3.9424,-3.9424,-3.9553,-3.9864,-4.069,-4.128,-4.1593,-4.2125,-4.2909,-4.3756,-4.3756,-4.4332,0.0,0.0,0.0,0.0,-2.709,-2.7989,-3.3513,-3.5106,-3.6222,-3.8999,-4.0835,-4.2304,-4.3507,-4.4426,-4.5125,-4.5493,-4.5586,-4.5586,-4.5586,-4.5586,-4.5586,-4.5586,-4.5776,-4.5901,-4.59,-4.6144,-4.6308,-4.6308,-4.707,-4.7558,-4.7558,-4.8266,-4.8932,-4.9548,-4.9471,-4.9621,-5.0054,-4.97,-4.9295,-4.8897,-4.8477,-4.8306,-4.8306,-4.8306,-4.8306,-4.8306,-4.8306,-4.8306,-4.821,-4.6937,-4.6383,-4.6288,-4.5089,-4.4587,-4.4671,-4.5399,-4.5686,-4.5805,-4.6515,-4.6769,-4.6921,-4.7648,-4.7885,-4.802,-4.8748,-4.8968,-4.856,-4.673,-4.6244,-4.5818,-4.3834,-4.3329,-4.3329,-4.3329,-4.3329,-4.3329,-4.3329,-4.3329,-4.2966,-4.185,-4.2548,-4.2563,-4.0418,-4.1864,-4.3329,-4.3329,-4.3329,-4.3329,-4.3329,-4.3329,-4.3329,-4.3329,-4.2162,-4.1384,-4.1384,-4.0172,-3.9424,-3.9424,-3.9424,-3.9409,-3.9424,-3.9409,-3.9793,-4.0758,-4.1543,-4.2458,-4.3306,-4.3306,-4.3756,-4.4587,-4.4604,-4.5399,-2.0668,0.0,0.0,0.0,0.0,0.0,0.0,-3.0255,-3.2181,-3.5721,-3.7397,-3.8968,-4.1506,-4.2503,-4.3259,-4.4209,-4.5073,-4.5586,-4.5586,-4.5586,-4.5586,-4.5586,-4.5738,-4.5843,-4.59,-4.6046,-4.6191,-4.6289,-4.6523,-4.666,-4.666,-4.7267,-4.794,-4.8642,-4.9125,-4.9313,-4.9177,-4.9389,-4.9295,-4.8897,-4.8477,-4.8306,-4.8306,-4.8306,-4.8306,-4.8306,-4.8306,-4.8306,-4.821,-4.6937,-4.6383,-4.6288,-4.5089,-4.4587,-4.4604,-4.4823,-4.5229,-4.5737,-4.594,-4.6346,-4.6819,-4.7039,-4.7107,-4.7242,-4.7986,-4.8223,-4.8063,-4.7375,-4.7223,-4.6747,-4.4856,-4.4373,-4.422,-4.3472,-4.3329,-4.3329,-4.3329,-4.297,-4.2682,-4.2812,-4.3076,-4.3076,-4.2482,-4.29,-4.3329,-4.3329,-4.3329,-4.3329,-4.3329,-4.3329,-4.3329,-4.3329,-4.2162,-4.1384,-4.1384,-4.0172,-3.9424,-3.9424,-3.9424,-3.9666,-4.0309,-3.9737,-4.013,-4.1609,-4.1869,-4.2458,-4.3306,-4.3931,-4.4384,-4.4587,-4.5145,-4.5889,0.0,0.0,0.0,0.0,0.0,0.0,-2.6838,-2.7825,-2.9268,-3.2636,-3.4199,-3.5802,-3.8398,-3.9708,-4.0777,-4.1952,-4.31,-4.4267,-4.5432,-4.5586,-4.5586,-4.5586,-4.5719,-4.5838,-4.588,-4.6021,-4.6152,-4.6289,-4.6308,-4.6308,-4.6308,-4.6577,-4.7086,-4.7831,-4.82,-4.8433,-4.8518,-4.8806,-4.8859,-4.8615,-4.8402,-4.8306,-4.8306,-4.8306,-4.8306,-4.8306,-4.8306,-4.8306,-4.821,-4.7237,-4.6664,-4.6288,-4.5372,-4.4814,-4.4587,-4.4587,-4.4857,-4.5229,-4.5229,-4.5517,-4.5923,-4.6244,-4.6346,-4.6481,-4.7225,-4.7445,-4.7332,-4.6858,-4.6405,-4.5937,-4.5144,-4.473,-4.4294,-4.3707,-4.3577,-4.3503,-4.3503,-4.3134,-4.2806,-4.291,-4.2701,-4.2686,-4.324,-4.3329,-4.3329,-4.3329,-4.3329,-4.3329,-4.3329,-4.3015,-4.2791,-4.2791,-4.1698,-4.0965,-4.0965,-4.0023,-3.9424,-3.9424,-3.9737,-4.0185,-4.069,-4.0569,-4.1162,-4.252,-4.252,-4.297,-4.3814,-4.4327,-4.4587,-4.4604,-4.5348,-4.6109,-2.3969,-2.419,0.0,0.0,-2.5731,0.0,-2.6998,-2.6998,-2.7306,-2.9788,-3.1242,-3.2668,-3.4609,-3.6341,-3.7785,-3.8803,-4.019,-4.2106,-4.4934,-4.5316,-4.5355,-4.5451,-4.5565,-4.5699,-4.5873,-4.5998,-4.6131,-4.6269,-4.6289,-4.6308,-4.6308,-4.6172,-4.6387,-4.7047,-4.7022,-4.7314,-4.7971,-4.808,-4.8154,-4.8192,-4.8227,-4.8252,-4.8306,-4.8306,-4.8306,-4.8306,-4.8306,-4.8306,-4.8267,-4.7715,-4.7088,-4.643,-4.5783,-4.5178,-4.4665,-4.4626,-4.4587,-4.4587,-4.4587,-4.4587,-4.4688,-4.5365,-4.5585,-4.572,-4.6447,-4.6667,-4.6549,-4.5761,-4.4967,-4.4439,-4.5014,-4.4641,-4.4109,-4.4022,-4.3889,-4.3763,-4.3572,-4.338,-4.3007,-4.2498,-4.1851,-4.1683,-4.2851,-4.309,-4.3165,-4.3314,-4.3329,-4.3329,-4.3329,-4.2541,-4.1972,-4.2077,-4.1264,-4.0661,-4.0661,-4.0058,-3.9681,-3.9681,-4.0447,-4.0878,-4.1013,-4.1674,-4.2458,-4.3443,-4.3426,-4.3814,-4.4587,-4.4587,-4.4587,-4.4604,-4.5546,-4.6259,-2.7291,-2.7915,-2.865,-2.7016,0.0,0.0,-2.5529,-2.5786,-2.6827,-2.7587,-2.8244,-2.9314,-3.1219,-3.2926,-3.4147,-3.4427,-3.7242,-4.0364,-4.3203,-4.3585,-4.3835,-4.447,-4.4586,-4.4913,-4.5738,-4.5841,-4.5949,-4.6113,-4.623,-4.6308,-4.6308,-4.6172,-4.6128,-4.6153,-4.6704,-4.7045,-4.7144,-4.7471,-4.782,-4.8192,-4.7951,-4.7977,-4.8306,-4.8306,-4.8306,-4.8306,-4.8306,-4.8306,-4.8306,-4.8172,-4.7756,-4.7106,-4.5933,-4.5407,-4.5284,-4.4759,-4.4587,-4.4587,-4.4587,-4.4587,-4.4604,-4.4756,-4.479,-4.4942,-4.5686,-4.5923,-4.5983,-4.6422,-4.6378,-4.6074,-4.5485,-4.5211,-4.4935,-4.4022,-4.3843,-4.3469,-4.2136,-4.223,-4.2503,-4.245,-4.1526,-4.0935,-4.119,-4.1519,-4.2117,-4.318,-4.3329,-4.3329,-4.3329,-4.2561,-4.2097,-4.2279,-4.2416,-4.2521,-4.2521,-4.1889,-4.1478,-4.1478,-4.1674,-4.2062,-4.2785,-4.2252,-4.2769,-4.4327,-4.4327,-4.444,-4.4587,-4.4587,-4.4587,-4.466,-4.6533,-4.7496,-2.9531,-2.9586,-3.0008,-2.92,0.0,0.0,0.0,-2.6282,-2.651,-2.8241,-2.753,-2.7374,-2.9924,-3.0765,-3.1262,-3.1867,-3.4239,-3.6558,-3.8132,-4.0718,-4.2604,-4.3008,-4.3047,-4.3451,-4.4414,-4.4893,-4.5423,-4.6054,-4.6152,-4.623,-4.6308,-4.623,-4.6117,-4.5907,-4.6269,-4.6392,-4.624,-4.6696,-4.6947,-4.7005,-4.7043,-4.7286,-4.7719,-4.7719,-4.7921,-4.8306,-4.8306,-4.8306,-4.8306,-4.8306,-4.8114,-4.7756,-4.6819,-4.6063,-4.5459,-4.5178,-4.4869,-4.4587,-4.4587,-4.4587,-4.4587,-4.4587,-4.4587,-4.4654,-4.5026,-4.5145,-4.5297,-4.6041,-4.5974,-4.5696,-4.5561,-4.53,-4.4886,-4.4344,-4.4202,-4.3993,-4.3167,-4.3251,-4.3327,-4.2734,-4.2141,-4.1563,-4.0968,-4.064,-4.0621,-4.128,-4.2792,-4.3942,-4.3942,-4.3585,-4.3333,-4.3467,-4.315,-4.2895,-4.2895,-4.2318,-4.1997,-4.1997,-4.2395,-4.2847,-4.3306,-4.329,-4.3739,-4.457,-4.4587,-4.4587,-4.4587,-4.4587,-4.4587,-4.466,-4.6835,-4.7817,0.0,0.0,0.0,0.0,0.0,-3.0283,0.0,0.0,0.0,-2.9072,-2.7438,-2.6429,-2.9035,-2.898,-2.8776,-2.956,-3.1339,-3.2625,-3.2581,-3.6854,-4.0085,-4.0427,-4.0822,-4.1476,-4.252,-4.3169,-4.4086,-4.5488,-4.5309,-4.5391,-4.6016,-4.6211,-4.618,-4.5949,-4.591,-4.5815,-4.5624,-4.5992,-4.6073,-4.5904,-4.6173,-4.6498,-4.6967,-4.6912,-4.7315,-4.8086,-4.8086,-4.8159,-4.8306,-4.8306,-4.8306,-4.8249,-4.7632,-4.6682,-4.5648,-4.5545,-4.5142,-4.4587,-4.4587,-4.4587,-4.4587,-4.4587,-4.4587,-4.4587,-4.4587,-4.4587,-4.4705,-4.5314,-4.5043,-4.4722,-4.5331,-4.5043,-4.4587,-4.4587,-4.4587,-4.4587,-4.4587,-4.4587,-4.431,-4.3333,-4.3136,-4.2737,-4.1512,-4.05,-3.9864,-3.9864,-4.2567,-4.4587,-4.4587,-4.4587,-4.4587,-4.4587,-4.3722,-4.3136,-4.3136,-4.2753,-4.2504,-4.2504,-4.3169,-4.3562,-4.3562,-4.4196,-4.4587,-4.4587,-4.4587,-4.4587,-4.4587,-4.4587,-4.4587,-4.466,-4.6771,-4.7875,0.0,0.0,0.0,0.0,-3.3972,0.0,0.0,0.0,-2.9145,-2.7383,0.0,0.0,0.0,0.0,0.0,-2.6086,-2.8812,-3.0485,-2.9101,-3.1485,-3.392,-3.5419,-3.7261,-3.8984,-4.0403,-4.0213,-4.1016,-4.3528,-4.2434,-4.2695,-4.5019,-4.5879,-4.623,-4.6072,-4.596,-4.5853,-4.5776,-4.5722,-4.5879,-4.6225,-4.5999,-4.6079,-4.6475,-4.6173,-4.6489,-4.726,-4.726,-4.7645,-4.8306,-4.8306,-4.8306,-4.8249,-4.7632,-4.6955,-4.624,-4.5681,-4.5142,-4.4587,-4.4587,-4.4587,-4.4587,-4.4587,-4.4587,-4.4587,-4.4587,-4.4587,-4.4604,-4.4671,-4.4637,-4.4604,-4.4688,-4.4637,-4.4587,-4.4587,-4.4587,-4.4587,-4.4587,-4.4587,-4.457,-4.444,-4.4384,-4.3856,-4.2189,-4.1804,-4.1674,-4.1674,-4.335,-4.4587,-4.4587,-4.4587,-4.4587,-4.4587,-4.4514,-4.4384,-4.4384,-4.4327,-4.431,-4.431,-4.4384,-4.4457,-4.4457,-4.457,-4.4587,-4.4587,-4.4587,-4.4587,-4.4587,-4.4587,-4.4587,-4.4643,-4.6741,-4.8081,0.0,0.0,0.0,0.0,0.0,0.0,-3.0301,0.0,-2.8925,0.0,0.0,0.0,0.0,0.0,0.0,0.0,-2.7366,0.0,-2.6784,-2.8091,-3.0037,-3.2387,-3.3451,-3.5057,-3.7729,-3.8254,-3.9349,-4.1651,-4.0731,-4.1257,-4.4043,-4.5058,-4.5723,-4.6094,-4.5963,-4.5858,-4.5796,-4.568,-4.5592,-4.5589,-4.5262,-4.5303,-4.5698,-4.536,-4.5645,-4.6434,-4.6911,-4.7297,-4.7645,-4.8122,-4.8306,-4.8267,-4.8035,-4.753,-4.6955,-4.6682,-4.5982,-4.5142,-4.5142,-4.4906,-4.4587,-4.4587,-4.4587,-4.4587,-4.4587,-4.4587,-4.4587,-4.4587,-4.4587,-4.4587,-4.4587,-4.4587,-4.4587,-4.4587,-4.4587,-4.4587,-4.4587,-4.4587,-4.4587,-4.4587,-4.4587,-4.4384,-4.3604,-4.3545,-4.3545,-4.3545,-4.4121,-4.4587,-4.4587,-4.4587,-4.4587,-4.4587,-4.4587,-4.4587,-4.4587,-4.4587,-4.4587,-4.4587,-4.4587,-4.4587,-4.4587,-4.4587,-4.4587,-4.4587,-4.4587,-4.4587,-4.4587,-4.4587,-4.4587,-4.4643,-4.6755,-4.786,-3.7386,0.0,0.0,0.0,0.0,0.0,0.0,0.0,0.0,0.0,0.0,0.0,0.0,0.0,0.0,0.0,0.0,-2.6484,-2.5256,-2.5893,-2.7252,0.0,-3.0203,-3.1781,-3.4666,-3.51,-3.6307,-3.9032,-3.8152,-3.9091,-4.2695,-4.3984,-4.498,-4.5762,-4.5898,-4.593,-4.5873,-4.5738,-4.5533,-4.53,-4.4896,-4.4855,-4.5025,-4.4661,-4.4939,-4.5731,-4.6232,-4.6765,-4.7279,-4.7775,-4.8104,-4.8306,-4.8306,-4.8035,-4.7614,-4.747,-4.6589,-4.5511,-4.5511,-4.5089,-4.4587,-4.4587,-4.4587,-4.4587,-4.4587,-4.4587,-4.4587,-4.4587,-4.4587,-4.4587,-4.4587,-4.4587,-4.4587,-4.4587,-4.4587,-4.4587,-4.4587,-4.4587,-4.4587,-4.4587,-4.4587,-4.4587,-4.4587,-4.4587,-4.4587,-4.4587,-4.4587,-4.4587,-4.4587,-4.4587,-4.4587,-4.4587,-4.4587,-4.4587,-4.4587,-4.4587,-4.4587,-4.4587,-4.4587,-4.4587,-4.4587,-4.4587,-4.4587,-4.4587,-4.4587,-4.4665,-4.4869,-4.4869,-4.4961,-4.5159,-4.666,-4.747,0.0,0.0,0.0,-3.5037,0.0,0.0,0.0,0.0,-3.1825,0.0,0.0,0.0,0.0,0.0,0.0,0.0,0.0,0.0,0.0,0.0,0.0,0.0,0.0,-3.0001,-3.1156,-2.9829,-3.0725,-3.513,-3.3934,-3.5357,-4.0781,-4.2715,-4.4062,-4.5019,-4.5722,-4.6098,-4.6102,-4.5892,-4.5796,-4.5778,-4.53,-4.4938,-4.4591,-4.4184,-4.4451,-4.5201,-4.4902,-4.5875,-4.7642,-4.7297,-4.7609,-4.8306,-4.8306,-4.8306,-4.821,-4.7614,-4.6589,-4.5511,-4.5511,-4.5089,-4.4587,-4.4587,-4.4587,-4.4587,-4.4587,-4.4587,-4.4587,-4.4587,-4.4587,-4.4587,-4.4587,-4.4587,-4.4587,-4.4587,-4.4587,-4.4587,-4.4587,-4.4587,-4.4587,-4.4587,-4.4587,-4.4587,-4.4587,-4.4587,-4.4587,-4.4587,-4.4587,-4.4587,-4.4587,-4.4587,-4.4587,-4.4587,-4.4587,-4.4587,-4.4587,-4.4587,-4.4587,-4.4587,-4.4587,-4.4587,-4.4587,-4.4587,-4.4587,-4.4587,-4.4587,-4.4906,-4.5459,-4.5459,-4.5783,-4.6336,-4.6401,-4.6891,0.0,0.0,-4.0488,-3.7106,0.0,0.0,0.0,0.0,0.0,0.0,0.0,0.0,0.0,0.0,0.0,0.0,0.0,0.0,0.0,0.0,0.0,0.0,0.0,0.0,-2.8349,-2.7997,-2.9345,-3.3223,-3.2546,-3.4289,-3.9656,-4.1729,-4.3418,-4.4883,-4.5683,-4.6104,-4.6092,-4.5886,-4.58,-4.5796,-4.532,-4.5052,-4.4919,-4.4271,-4.4165,-4.4414,-4.4589,-4.5073,-4.5785,-4.6709,-4.7278,-4.7572,-4.8104,-4.8306,-4.8267,-4.8075,-4.747,-4.6635,-4.5783,-4.5089,-4.4587,-4.4587,-4.4587,-4.4587,-4.4587,-4.4587,-4.4587,-4.4587,-4.4587,-4.4587,-4.4587,-4.4587,-4.4587,-4.4587,-4.4587,-4.4587,-4.4587,-4.4587,-4.472,-4.5142,-4.4852,-4.4587,-4.4587,-4.4587,-4.4587,-4.4587,-4.4587,-4.4587,-4.4587,-4.4587,-4.4776,-4.5125,-4.5178,-4.5372,-4.5732,-4.5425,-4.5052,-4.4626,-4.4587,-4.4587,-4.4587,-4.4587,-4.4759,-4.5178,-4.5178,-4.5511,-4.6112,-4.6112,-4.6192,-4.643,-4.6864,-4.7205,-4.1107,-4.1389,0.0,-3.8296,-3.7375,0.0,-3.2402,0.0,0.0,0.0,0.0,0.0,0.0,0.0,0.0,0.0,0.0,0.0,0.0,-2.419,0.0,0.0,0.0,0.0,0.0,-2.585,-2.7266,-3.0902,-3.0734,-3.2688,-3.7786,-4.0438,-4.2467,-4.3926,-4.5391,-4.6172,-4.6172,-4.5997,-4.5878,-4.5834,-4.5515,-4.526,-4.5074,-4.4612,-4.4382,-4.4392,-4.4594,-4.4832,-4.5171,-4.6352,-4.6966,-4.7205,-4.7994,-4.8306,-4.8306,-4.8306,-4.7937,-4.7194,-4.5933,-4.5232,-4.4906,-4.4906,-4.4906,-4.4944,-4.5178,-4.5232,-4.5232,-4.5232,-4.5232,-4.5232,-4.5232,-4.5232,-4.5232,-4.5232,-4.5232,-4.5232,-4.5232,-4.5232,-4.5372,-4.5732,-4.5511,-4.5232,-4.5232,-4.5232,-4.5232,-4.5232,-4.5142,-4.5142,-4.5425,-4.532,-4.5372,-4.5783,-4.5833,-4.5965,-4.6383,-4.6209,-4.5749,-4.4944,-4.5142,-4.5052,-4.4626,-4.4814,-4.5089,-4.5511,-4.5511,-4.5915,-4.6756,-4.6756,-4.6864,-4.7088,-4.7512,-4.7715]}]]